[[{"header":{"parameterUnit":"m.s-1","parameterCategory":1,"la1":31.0,"la2":29.5877,"lo1":-88.7671,"lo2":-86.6584,"dy":0.0162,"dx":0.0185,"nx":115,"ny":88,"refTime":"2023-08-04T18:00:00:Z","depth":0,"parameterNumber":2,"parameterNumberName":"U-component_of_WINDS"},"data":[0.0,0.0,0.0,0.0,0.0,0.0,0.0,0.0,0.0,0.0,0.0,0.0,0.0,0.0,0.0,0.0,0.0,0.0,0.0,0.0,0.0,0.0,0.0,0.0,0.0,0.0,0.0,0.0,0.0,0.0,0.0,0.0,0.0,0.0,0.0,0.0,0.0,0.0,0.0,0.0,0.0,0.0,0.0,0.0,0.0,0.0,0.0,0.0,0.0,0.0,0.0,0.0,0.0,0.0,0.0,0.0,0.0,0.0,0.0,0.0,0.0,0.0,0.0,0.0,0.0,0.0,0.0,0.0,0.0,0.0,0.0,0.0,0.0,0.0,0.0,0.0,0.0,0.0,0.0,0.0,0.0,0.0,0.0,0.0,0.0,0.0,0.0,0.0,0.0,0.0,0.0,0.0,0.0,0.0,0.0,0.0,0.0,0.0,0.0,0.0,0.0,0.0,0.0,0.0,0.0,0.0,0.0,0.0,0.0,0.0,0.0,0.0,0.0,0.0,0.0,0.0,0.0,0.0,0.0,0.0,0.0,0.0,0.0,0.0,0.0,0.0,0.0,0.0,0.0,0.0,0.0,0.0,0.0,0.0,0.0,0.0,0.0,0.0,0.0,0.0,0.0,0.0,0.0,0.0,0.0,0.0,0.0,0.0,0.0,0.0,0.0,0.0,0.0,0.0,0.0,0.0,0.0,0.0,0.0,0.0,0.0,0.0,0.0,0.0,0.0,0.0,0.0,0.0,0.0,0.0,0.0,0.0,0.0,0.0,0.0,0.0,0.0,0.0,0.0,0.0,0.0,0.0,0.0,0.0,0.0,0.0,0.0,0.0,0.0,0.0,0.0,0.0,0.0,0.0,0.0,0.0,0.0,0.0,0.0,0.0,0.0,0.0,0.0,0.0,0.0,0.0,0.0,0.0,0.0,0.0,0.0,0.0,0.0,0.0,0.0,0.0,0.0,0.0,0.0,0.0,0.0,0.0,0.0,0.0,0.0,0.0,0.0,0.0,0.0,0.0,0.0,0.0,0.0,0.0,0.0,0.0,0.0,0.0,0.0,0.0,0.0,0.0,0.0,0.0,0.0,0.0,0.0,0.0,0.0,0.0,0.0,0.0,0.0,0.0,0.0,0.0,0.0,0.0,0.0,0.0,0.0,0.0,0.0,0.0,0.0,0.0,0.0,0.0,0.0,0.0,0.0,0.0,0.0,0.0,0.0,0.0,0.0,0.0,0.0,0.0,0.0,0.0,0.0,0.0,0.0,0.0,0.0,0.0,0.0,0.0,0.0,0.0,0.0,0.0,0.0,0.0,0.0,0.0,0.0,0.0,0.0,0.0,0.0,0.0,0.0,0.0,0.0,0.0,0.0,0.0,0.0,0.0,0.0,0.0,0.0,0.0,0.0,0.0,0.0,0.0,0.0,0.0,0.0,0.0,0.0,0.0,0.0,0.0,0.0,0.0,0.0,0.0,0.0,0.0,0.0,0.0,0.0,0.0,0.0,0.0,0.0,0.0,0.0,0.0,0.0,0.0,0.0,0.0,0.0,0.0,0.0,0.0,0.0,0.0,0.0,0.0,0.0,0.0,0.0,0.0,0.0,0.0,0.0,0.0,0.0,0.0,0.0,0.0,0.0,0.0,0.0,0.0,0.0,0.0,0.0,0.0,0.0,0.0,0.0,0.0,0.0,0.0,0.0,0.0,0.0,0.0,0.0,0.0,0.0,0.0,0.0,0.0,0.0,0.0,0.0,0.0,0.0,0.0,0.0,0.0,0.0,0.0,0.0,0.0,0.0,0.0,0.0,0.0,0.0,0.0,0.0,0.0,0.0,0.0,0.0,0.0,0.0,0.0,0.0,0.0,0.0,0.0,0.0,0.0,0.0,0.0,0.0,0.0,0.0,0.0,0.0,0.0,0.0,0.0,0.0,0.0,0.0,0.0,0.0,0.0,0.0,0.0,0.0,0.0,0.0,0.0,0.0,0.0,0.0,0.0,0.0,0.0,0.0,0.0,0.0,0.0,0.0,0.0,0.0,0.0,0.0,0.0,0.0,0.0,0.0,0.0,0.0,0.0,0.0,0.0,0.0,0.0,0.0,0.0,0.0,0.0,0.0,0.0,0.0,0.0,0.0,0.0,0.0,0.0,0.0,0.0,0.0,0.0,0.0,0.0,0.0,0.0,0.0,0.0,0.0,0.0,0.0,0.0,0.0,0.0,0.0,0.0,0.0,0.0,0.0,0.0,0.0,0.0,0.0,0.0,0.0,0.0,0.0,0.0,0.0,0.0,0.0,0.0,0.0,0.0,0.0,0.0,0.0,0.0,0.0,0.0,0.0,0.0,0.0,0.0,0.0,0.0,0.0,0.0,0.0,0.0,0.0,0.0,0.0,0.0,0.0,0.0,0.0,0.0,0.0,0.0,0.0,0.0,0.0,0.0,0.0,0.0,0.0,0.0,0.0,0.0,0.0,0.0,0.0,0.0,0.0,0.0,0.0,0.0,0.0,0.0,0.0,0.0,0.0,0.0,0.0,0.0,0.0,0.0,0.0,0.0,0.0,0.0,0.0,0.0,0.0,0.0,0.0,0.0,0.0,0.0,0.0,0.0,0.0,0.0,0.0,0.0,0.0,0.0,0.0,0.0,0.0,0.0,0.0,0.0,0.0,0.0,0.0,0.0,0.0,0.0,0.0,0.0,0.0,0.0,0.0,0.0,0.0,0.0,0.0,0.0,0.0,0.0,0.0,0.0,0.0,0.0,0.0,0.0,0.0,0.0,0.0,0.0,0.0,0.0,0.0,0.0,0.0,0.0,0.0,0.0,0.0,0.0,0.0,0.0,0.0,0.0,0.0,0.0,0.0,0.0,0.0,0.0,0.0,0.0,0.0,0.0,0.0,0.0,0.0,0.0,0.0,0.0,0.0,0.0,0.0,0.0,0.0,0.0,0.0,0.0,0.0,0.0,0.0,0.0,0.0,0.0,0.0,0.0,0.0,0.0,0.0,0.0,0.0,0.0,0.0,0.0,0.0,0.0,0.0,0.0,0.0,0.0,0.0,0.0,0.0,0.0,0.0,0.0,0.0,0.0,0.0,0.0,0.0,0.0,0.0,0.0,0.0,0.0,0.0,0.0,0.0,0.0,0.0,0.0,0.0,0.0,0.0,0.0,0.0,0.0,0.0,0.0,0.0,0.0,0.0,0.0,0.0,0.0,0.0,0.0,0.0,0.0,0.0,0.0,0.0,0.0,0.0,0.0,0.0,0.0,0.0,0.0,0.0,0.0,0.0,0.0,0.0,0.0,0.0,0.0,0.0,0.0,0.0,0.0,0.0,0.0,0.0,0.0,0.0,0.0,0.0,0.0,0.0,0.0,0.0,0.0,0.0,0.0,0.0,0.0,0.0,0.0,0.0,0.0,0.0,0.0,0.0,0.0,0.0,0.0,0.0,0.0,0.0,0.0,0.0,0.0,0.0,0.0,0.0,0.0,0.0,0.0,0.0,0.0,0.0,0.0,0.0,0.0,0.0,0.0,0.0,0.0,0.0,0.0,0.0,0.0,0.0,0.0,0.0,0.0,0.0,0.0,0.0,0.0,0.0,0.0,0.0,0.0,0.0,0.0,0.0,0.0,0.0,0.0,0.0,0.0,0.0,0.0,0.0,0.0,0.0,0.0,0.0,0.0,0.0,0.0,0.0,0.0,0.0,0.0,0.0,0.0,0.0,0.0,0.0,0.0,0.0,0.0,0.0,0.0,0.0,0.0,0.0,0.0,0.0,0.0,0.0,0.0,0.0,0.0,0.0,0.0,0.0,0.0,0.0,0.0,0.0,0.0,0.0,0.0,0.0,0.0,0.0,0.0,0.0,0.0,0.0,0.0,0.0,0.0,0.0,0.0,0.0,0.0,0.0,0.0,0.0,0.0,0.0,0.0,0.0,0.0,0.0,0.0,0.0,0.0,0.0,0.0,0.0,0.0,0.0,0.0,0.0,0.0,0.0,0.0,0.0,0.0,0.0,0.0,0.0,0.0,0.0,0.0,0.0,0.0,0.0,0.0,0.0,0.0,0.0,0.0,0.0,0.0,0.0,0.0,0.0,0.0,0.0,0.0,0.0,0.0,0.0,0.0,0.0,0.0,0.0,0.0,0.0,0.0,0.0,0.0,0.0,0.0,0.0,0.0,0.0,0.0,0.0,0.0,0.0,0.0,0.0,0.0,0.0,0.0,0.0,0.0,0.0,0.0,0.0,0.0,0.0,0.0,0.0,0.0,0.0,0.0,0.0,0.0,-2.0816,0.0,0.0,0.0,0.0,0.0,0.0,0.0,0.0,0.0,0.0,0.0,0.0,0.0,0.0,0.0,0.0,0.0,0.0,0.0,0.0,0.0,0.0,0.0,0.0,0.0,0.0,0.0,0.0,0.0,0.0,0.0,0.0,0.0,0.0,0.0,0.0,0.0,0.0,0.0,0.0,0.0,0.0,0.0,0.0,0.0,0.0,0.0,0.0,0.0,0.0,0.0,0.0,0.0,0.0,0.0,0.0,0.0,0.0,0.0,0.0,0.0,0.0,0.0,0.0,0.0,0.0,0.0,0.0,0.0,0.0,0.0,0.0,0.0,0.0,0.0,0.0,0.0,0.0,0.0,0.0,0.0,0.0,0.0,0.0,0.0,0.0,0.0,0.0,0.0,0.0,0.0,0.0,0.0,0.0,0.0,0.0,0.0,0.0,0.0,0.0,0.0,0.0,0.0,0.0,0.0,0.0,0.0,0.0,0.0,0.0,-2.271,-2.3322,-2.2926,-2.2788,-2.2939,0.0,0.0,0.0,0.0,0.0,0.0,0.0,0.0,0.0,0.0,0.0,0.0,0.0,0.0,0.0,0.0,0.0,0.0,0.0,0.0,0.0,0.0,0.0,0.0,0.0,0.0,0.0,0.0,0.0,0.0,0.0,0.0,0.0,0.0,0.0,0.0,0.0,0.0,0.0,0.0,0.0,0.0,0.0,0.0,0.0,0.0,0.0,0.0,0.0,0.0,0.0,0.0,0.0,0.0,0.0,0.0,0.0,0.0,0.0,0.0,0.0,0.0,0.0,0.0,0.0,0.0,0.0,0.0,0.0,0.0,0.0,0.0,0.0,0.0,0.0,0.0,0.0,0.0,0.0,0.0,0.0,0.0,0.0,0.0,0.0,0.0,0.0,0.0,0.0,0.0,0.0,0.0,0.0,0.0,0.0,0.0,0.0,0.0,0.0,0.0,0.0,0.0,0.0,0.0,0.0,0.0,0.0,0.0,0.0,0.0,0.0,0.0,-2.4477,-2.411,-2.4342,0.0,0.0,0.0,0.0,0.0,0.0,0.0,0.0,0.0,0.0,0.0,0.0,0.0,0.0,0.0,0.0,0.0,0.0,0.0,0.0,0.0,0.0,0.0,0.0,0.0,0.0,0.0,0.0,0.0,0.0,0.0,0.0,0.0,0.0,0.0,0.0,0.0,0.0,0.0,0.0,0.0,0.0,0.0,0.0,0.0,0.0,0.0,0.0,0.0,0.0,0.0,0.0,0.0,0.0,0.0,0.0,0.0,0.0,0.0,0.0,0.0,0.0,0.0,0.0,0.0,0.0,0.0,0.0,0.0,0.0,0.0,0.0,0.0,0.0,0.0,0.0,0.0,0.0,0.0,0.0,0.0,0.0,0.0,0.0,0.0,0.0,0.0,0.0,0.0,0.0,0.0,0.0,0.0,0.0,0.0,0.0,0.0,0.0,0.0,0.0,0.0,0.0,0.0,0.0,0.0,0.0,0.0,0.0,0.0,0.0,-2.485,-2.6387,-2.6267,0.0,-2.3428,0.0,0.0,0.0,0.0,0.0,0.0,0.0,0.0,0.0,0.0,0.0,0.0,0.0,0.0,0.0,0.0,0.0,0.0,0.0,0.0,0.0,0.0,0.0,0.0,0.0,0.0,0.0,0.0,0.0,0.0,0.0,0.0,0.0,0.0,0.0,0.0,0.0,0.0,0.0,0.0,0.0,0.0,0.0,0.0,0.0,0.0,0.0,0.0,0.0,0.0,0.0,0.0,0.0,0.0,0.0,0.0,0.0,0.0,0.0,0.0,0.0,0.0,0.0,0.0,0.0,0.0,0.0,0.0,0.0,0.0,0.0,0.0,0.0,0.0,0.0,0.0,0.0,0.0,0.0,0.0,0.0,0.0,0.0,0.0,0.0,0.0,0.0,0.0,0.0,0.0,0.0,0.0,0.0,0.0,0.0,0.0,0.0,0.0,0.0,0.0,0.0,0.0,0.0,0.0,0.0,0.0,0.0,0.0,0.0,0.0,-2.6009,-2.6967,-2.6308,-2.5059,0.0,0.0,0.0,0.0,0.0,0.0,0.0,0.0,0.0,0.0,0.0,0.0,0.0,0.0,0.0,0.0,0.0,0.0,0.0,0.0,0.0,0.0,0.0,0.0,0.0,0.0,0.0,0.0,0.0,0.0,0.0,0.0,0.0,0.0,0.0,0.0,0.0,0.0,0.0,0.0,0.0,0.0,0.0,0.0,0.0,0.0,0.0,0.0,0.0,0.0,0.0,0.0,0.0,0.0,0.0,0.0,0.0,0.0,0.0,0.0,0.0,0.0,0.0,0.0,0.0,0.0,0.0,0.0,0.0,0.0,0.0,0.0,0.0,0.0,0.0,0.0,0.0,0.0,0.0,0.0,0.0,0.0,0.0,0.0,0.0,0.0,0.0,0.0,0.0,0.0,0.0,0.0,0.0,0.0,0.0,0.0,0.0,0.0,0.0,0.0,0.0,0.0,0.0,0.0,0.0,0.0,0.0,0.0,0.0,0.0,-2.633,-2.6716,-2.7218,-2.664,-2.5297,-2.3213,0.0,0.0,0.0,0.0,0.0,0.0,0.0,0.0,0.0,0.0,0.0,0.0,0.0,0.0,0.0,0.0,0.0,0.0,0.0,0.0,0.0,0.0,0.0,0.0,0.0,0.0,0.0,0.0,0.0,0.0,0.0,0.0,0.0,0.0,0.0,0.0,0.0,0.0,0.0,0.0,0.0,0.0,0.0,0.0,0.0,0.0,0.0,0.0,0.0,0.0,0.0,0.0,0.0,0.0,0.0,0.0,0.0,0.0,0.0,0.0,0.0,0.0,0.0,0.0,0.0,0.0,0.0,0.0,0.0,0.0,0.0,0.0,0.0,0.0,0.0,0.0,0.0,0.0,0.0,0.0,0.0,0.0,0.0,0.0,0.0,0.0,0.0,0.0,0.0,0.0,0.0,0.0,0.0,0.0,0.0,0.0,0.0,0.0,0.0,0.0,0.0,0.0,0.0,0.0,0.0,0.0,0.0,0.0,-2.8425,-2.7256,-2.6741,-2.7293,-2.7733,-2.6465,0.0,0.0,0.0,0.0,0.0,0.0,0.0,0.0,0.0,0.0,0.0,0.0,0.0,0.0,0.0,0.0,0.0,0.0,0.0,0.0,0.0,0.0,0.0,0.0,0.0,0.0,0.0,0.0,0.0,0.0,0.0,0.0,0.0,0.0,0.0,0.0,0.0,0.0,0.0,0.0,0.0,0.0,0.0,0.0,0.0,0.0,0.0,0.0,0.0,0.0,0.0,0.0,0.0,0.0,0.0,0.0,0.0,0.0,0.0,0.0,0.0,0.0,0.0,0.0,0.0,0.0,0.0,0.0,0.0,0.0,0.0,0.0,0.0,0.0,0.0,0.0,0.0,0.0,0.0,0.0,0.0,0.0,0.0,0.0,0.0,0.0,0.0,0.0,0.0,0.0,0.0,0.0,0.0,0.0,0.0,0.0,0.0,0.0,0.0,0.0,0.0,0.0,0.0,0.0,0.0,0.0,0.0,0.0,0.0,-2.7243,-2.7105,-2.7431,-2.8247,-2.7155,-2.5774,0.0,0.0,0.0,0.0,0.0,0.0,0.0,0.0,0.0,0.0,0.0,0.0,0.0,0.0,0.0,0.0,0.0,0.0,0.0,0.0,0.0,0.0,0.0,0.0,0.0,0.0,0.0,0.0,0.0,0.0,0.0,0.0,0.0,0.0,0.0,0.0,0.0,0.0,0.0,0.0,0.0,0.0,0.0,0.0,0.0,0.0,0.0,0.0,0.0,0.0,0.0,0.0,0.0,0.0,0.0,0.0,0.0,0.0,0.0,0.0,0.0,0.0,0.0,0.0,0.0,0.0,0.0,0.0,0.0,0.0,0.0,0.0,0.0,0.0,0.0,0.0,0.0,0.0,0.0,0.0,0.0,0.0,0.0,0.0,0.0,0.0,0.0,0.0,0.0,0.0,0.0,0.0,0.0,0.0,0.0,0.0,0.0,0.0,0.0,0.0,0.0,0.0,0.0,0.0,0.0,0.0,0.0,0.0,0.0,-2.6716,0.0,-2.821,-2.831,-2.6929,-2.5473,0.0,0.0,0.0,0.0,0.0,0.0,0.0,0.0,0.0,0.0,0.0,0.0,0.0,0.0,0.0,0.0,0.0,0.0,0.0,0.0,0.0,0.0,0.0,0.0,0.0,0.0,0.0,0.0,0.0,0.0,0.0,0.0,0.0,0.0,0.0,0.0,0.0,0.0,0.0,0.0,0.0,0.0,0.0,0.0,0.0,0.0,0.0,0.0,0.0,0.0,0.0,0.0,0.0,0.0,0.0,0.0,0.0,0.0,0.0,0.0,0.0,0.0,0.0,0.0,0.0,0.0,0.0,0.0,0.0,0.0,0.0,0.0,0.0,0.0,0.0,0.0,0.0,0.0,0.0,0.0,0.0,0.0,0.0,0.0,0.0,0.0,0.0,0.0,0.0,0.0,0.0,0.0,0.0,0.0,0.0,0.0,0.0,0.0,0.0,0.0,0.0,0.0,0.0,0.0,0.0,0.0,0.0,0.0,-2.5686,-2.7243,-2.8863,-2.895,-2.7406,-2.7293,-2.5737,0.0,0.0,0.0,0.0,0.0,0.0,0.0,0.0,0.0,0.0,0.0,0.0,0.0,0.0,0.0,0.0,0.0,0.0,0.0,0.0,0.0,0.0,0.0,0.0,0.0,0.0,0.0,0.0,0.0,0.0,0.0,0.0,0.0,0.0,0.0,0.0,0.0,0.0,0.0,0.0,0.0,0.0,0.0,0.0,0.0,0.0,0.0,0.0,0.0,0.0,0.0,0.0,0.0,0.0,0.0,0.0,0.0,0.0,0.0,0.0,0.0,0.0,0.0,0.0,0.0,0.0,0.0,0.0,0.0,0.0,0.0,0.0,0.0,0.0,0.0,0.0,0.0,0.0,0.0,0.0,0.0,0.0,0.0,0.0,0.0,0.0,0.0,0.0,0.0,0.0,0.0,0.0,0.0,0.0,0.0,0.0,0.0,0.0,0.0,0.0,0.0,0.0,0.0,0.0,0.0,0.0,0.0,0.0,0.0,-2.6766,-2.8348,-2.9151,-2.8976,-2.7883,-2.6615,0.0,0.0,0.0,0.0,0.0,0.0,0.0,0.0,0.0,0.0,0.0,0.0,0.0,0.0,0.0,0.0,0.0,0.0,0.0,0.0,0.0,0.0,0.0,0.0,0.0,0.0,0.0,0.0,0.0,0.0,0.0,0.0,0.0,0.0,0.0,0.0,0.0,0.0,0.0,0.0,0.0,0.0,0.0,0.0,0.0,0.0,0.0,0.0,0.0,0.0,0.0,0.0,0.0,0.0,0.0,0.0,0.0,0.0,0.0,0.0,0.0,0.0,0.0,0.0,0.0,0.0,0.0,0.0,0.0,0.0,0.0,0.0,0.0,0.0,0.0,0.0,0.0,0.0,0.0,0.0,0.0,0.0,0.0,0.0,0.0,0.0,0.0,0.0,0.0,0.0,0.0,0.0,0.0,0.0,0.0,0.0,0.0,0.0,0.0,0.0,0.0,0.0,0.0,0.0,0.0,0.0,0.0,0.0,0.0,-2.7482,-2.9001,-2.9829,-2.9779,-2.836,-2.703,-2.5875,0.0,0.0,0.0,0.0,0.0,0.0,0.0,0.0,0.0,0.0,0.0,0.0,0.0,0.0,0.0,0.0,0.0,0.0,0.0,0.0,0.0,0.0,0.0,0.0,0.0,0.0,0.0,0.0,0.0,0.0,0.0,0.0,0.0,0.0,0.0,0.0,0.0,0.0,0.0,0.0,0.0,0.0,0.0,0.0,0.0,0.0,0.0,0.0,0.0,0.0,0.0,0.0,0.0,0.0,0.0,0.0,0.0,0.0,0.0,0.0,0.0,0.0,0.0,0.0,0.0,0.0,0.0,0.0,0.0,0.0,0.0,0.0,0.0,0.0,0.0,0.0,0.0,0.0,0.0,0.0,0.0,0.0,0.0,0.0,0.0,0.0,0.0,0.0,0.0,0.0,0.0,0.0,0.0,0.0,0.0,0.0,0.0,0.0,0.0,0.0,0.0,0.0,0.0,0.0,0.0,0.0,0.0,0.0,-2.9013,-3.0595,-3.0947,-2.9967,-2.8825,-2.7193,0.0,0.0,0.0,0.0,0.0,0.0,0.0,0.0,0.0,0.0,0.0,0.0,0.0,0.0,0.0,0.0,0.0,0.0,0.0,0.0,0.0,0.0,0.0,0.0,0.0,0.0,0.0,0.0,0.0,0.0,0.0,0.0,0.0,0.0,0.0,0.0,0.0,0.0,0.0,0.0,0.0,0.0,0.0,0.0,0.0,0.0,0.0,0.0,0.0,0.0,0.0,0.0,0.0,0.0,0.0,0.0,0.0,0.0,0.0,0.0,0.0,0.0,0.0,0.0,0.0,0.0,0.0,0.0,0.0,0.0,0.0,0.0,0.0,0.0,0.0,0.0,0.0,0.0,0.0,0.0,0.0,0.0,0.0,0.0,0.0,0.0,0.0,0.0,0.0,0.0,0.0,0.0,0.0,0.0,0.0,0.0,0.0,0.0,0.0,0.0,0.0,0.0,0.0,0.0,0.0,0.0,0.0,0.0,0.0,-3.0168,-3.1361,-3.1876,-3.1562,-3.0131,-2.8687,0.0,0.0,0.0,0.0,0.0,0.0,0.0,0.0,0.0,0.0,0.0,0.0,0.0,0.0,0.0,0.0,0.0,0.0,0.0,0.0,0.0,0.0,0.0,0.0,0.0,0.0,0.0,0.0,0.0,0.0,0.0,0.0,0.0,0.0,0.0,0.0,0.0,0.0,0.0,0.0,0.0,0.0,0.0,0.0,0.0,0.0,0.0,0.0,0.0,0.0,0.0,0.0,0.0,0.0,0.0,0.0,0.0,0.0,0.0,0.0,0.0,0.0,0.0,0.0,0.0,0.0,0.0,0.0,0.0,0.0,0.0,0.0,0.0,0.0,0.0,0.0,0.0,0.0,0.0,0.0,0.0,0.0,0.0,0.0,0.0,0.0,0.0,0.0,0.0,0.0,0.0,0.0,0.0,0.0,0.0,0.0,0.0,0.0,0.0,0.0,0.0,0.0,0.0,0.0,0.0,0.0,0.0,0.0,-2.9829,-3.0922,-3.2014,-3.2579,-3.2566,-3.1198,-2.9716,0.0,0.0,0.0,0.0,0.0,0.0,0.0,0.0,0.0,0.0,0.0,0.0,0.0,0.0,0.0,0.0,0.0,0.0,0.0,0.0,0.0,0.0,0.0,0.0,0.0,0.0,0.0,0.0,0.0,0.0,0.0,0.0,0.0,0.0,0.0,0.0,0.0,0.0,0.0,0.0,0.0,0.0,0.0,0.0,0.0,0.0,0.0,0.0,0.0,0.0,0.0,0.0,0.0,0.0,0.0,0.0,0.0,0.0,0.0,0.0,0.0,0.0,0.0,0.0,0.0,0.0,0.0,0.0,0.0,0.0,0.0,0.0,0.0,0.0,0.0,0.0,0.0,0.0,0.0,0.0,0.0,0.0,0.0,0.0,0.0,0.0,0.0,0.0,0.0,0.0,0.0,0.0,0.0,0.0,0.0,0.0,0.0,0.0,0.0,0.0,0.0,0.0,0.0,0.0,0.0,0.0,0.0,0.0,-3.0369,-3.1373,-3.2491,-3.3081,-3.3043,-3.1926,-3.0319,0.0,0.0,0.0,0.0,0.0,0.0,0.0,0.0,0.0,0.0,0.0,0.0,0.0,0.0,0.0,0.0,0.0,0.0,0.0,0.0,0.0,0.0,0.0,0.0,0.0,0.0,0.0,0.0,0.0,0.0,0.0,0.0,0.0,0.0,0.0,0.0,0.0,0.0,0.0,0.0,0.0,0.0,0.0,0.0,0.0,0.0,0.0,0.0,0.0,0.0,0.0,0.0,0.0,0.0,0.0,0.0,0.0,0.0,0.0,0.0,0.0,0.0,0.0,0.0,0.0,0.0,0.0,0.0,0.0,0.0,0.0,0.0,0.0,0.0,0.0,0.0,0.0,0.0,0.0,0.0,0.0,0.0,0.0,0.0,0.0,0.0,0.0,0.0,0.0,0.0,0.0,0.0,0.0,0.0,0.0,0.0,0.0,0.0,0.0,0.0,0.0,0.0,0.0,0.0,0.0,0.0,0.0,0.0,-3.0746,-3.1399,-3.2503,-3.3081,-3.3068,-3.1587,-3.0143,0.0,0.0,0.0,0.0,0.0,0.0,0.0,0.0,0.0,0.0,0.0,0.0,0.0,0.0,0.0,0.0,0.0,0.0,0.0,0.0,0.0,0.0,0.0,0.0,0.0,0.0,0.0,0.0,0.0,0.0,0.0,0.0,0.0,0.0,0.0,0.0,0.0,0.0,0.0,0.0,0.0,0.0,0.0,0.0,0.0,0.0,0.0,0.0,-2.3313,0.0,0.0,0.0,0.0,0.0,0.0,0.0,0.0,0.0,0.0,0.0,0.0,0.0,0.0,0.0,0.0,0.0,0.0,0.0,0.0,0.0,0.0,0.0,0.0,0.0,0.0,0.0,0.0,0.0,0.0,0.0,0.0,0.0,0.0,0.0,0.0,0.0,0.0,0.0,0.0,0.0,0.0,0.0,0.0,0.0,0.0,0.0,0.0,0.0,0.0,0.0,0.0,0.0,0.0,0.0,0.0,0.0,0.0,0.0,-3.0608,-3.1386,-3.2227,-3.2792,-3.3018,-3.1964,-3.0721,0.0,0.0,0.0,0.0,0.0,0.0,0.0,0.0,0.0,0.0,0.0,0.0,0.0,0.0,0.0,0.0,0.0,0.0,0.0,0.0,0.0,0.0,0.0,0.0,0.0,0.0,0.0,0.0,0.0,0.0,0.0,0.0,0.0,0.0,0.0,0.0,0.0,0.0,0.0,0.0,0.0,0.0,0.0,0.0,0.0,0.0,0.0,0.0,0.0,0.0,0.0,0.0,0.0,0.0,0.0,0.0,0.0,0.0,0.0,0.0,0.0,0.0,0.0,0.0,0.0,0.0,0.0,0.0,0.0,0.0,0.0,0.0,0.0,0.0,0.0,0.0,0.0,0.0,0.0,0.0,0.0,0.0,0.0,0.0,0.0,0.0,0.0,0.0,0.0,0.0,0.0,0.0,0.0,0.0,0.0,0.0,0.0,0.0,0.0,0.0,0.0,0.0,0.0,0.0,0.0,0.0,0.0,-2.9063,-3.0394,-3.1373,-3.2014,-3.2579,-3.3043,-3.2604,-3.1537,-2.9854,0.0,0.0,0.0,0.0,0.0,0.0,0.0,0.0,0.0,0.0,0.0,0.0,0.0,0.0,0.0,0.0,0.0,0.0,0.0,0.0,0.0,0.0,0.0,0.0,0.0,0.0,0.0,0.0,0.0,0.0,0.0,0.0,0.0,0.0,0.0,0.0,0.0,0.0,-2.084,-2.1934,0.0,0.0,0.0,0.0,0.0,0.0,0.0,0.0,-3.0133,0.0,0.0,0.0,0.0,0.0,0.0,0.0,0.0,0.0,0.0,0.0,0.0,0.0,0.0,0.0,0.0,0.0,0.0,0.0,0.0,0.0,0.0,0.0,0.0,0.0,0.0,0.0,0.0,0.0,0.0,0.0,0.0,0.0,0.0,0.0,0.0,0.0,0.0,0.0,0.0,0.0,0.0,0.0,0.0,0.0,0.0,0.0,0.0,0.0,0.0,0.0,0.0,0.0,0.0,0.0,0.0,-2.7959,-2.9628,-3.0771,-3.1386,-3.2403,-3.298,-3.3068,-3.298,-3.1938,-2.9917,0.0,0.0,0.0,0.0,0.0,0.0,0.0,0.0,0.0,0.0,0.0,0.0,0.0,0.0,0.0,0.0,0.0,0.0,0.0,0.0,0.0,0.0,0.0,0.0,0.0,0.0,0.0,0.0,0.0,0.0,0.0,0.0,0.0,0.0,0.0,0.0,0.0,0.0,0.0,-2.2988,-2.4217,0.0,0.0,0.0,0.0,0.0,0.0,0.0,0.0,-3.1486,0.0,0.0,0.0,0.0,0.0,0.0,0.0,0.0,0.0,0.0,0.0,0.0,0.0,0.0,0.0,0.0,0.0,0.0,0.0,0.0,0.0,0.0,0.0,0.0,0.0,0.0,0.0,0.0,0.0,0.0,0.0,0.0,0.0,0.0,0.0,0.0,0.0,0.0,0.0,0.0,0.0,0.0,0.0,0.0,0.0,0.0,0.0,0.0,0.0,0.0,0.0,0.0,0.0,0.0,0.0,-2.7331,-2.9465,-3.0871,-3.1386,-3.2202,-3.278,-3.3043,-3.2503,-3.1436,0.0,0.0,0.0,0.0,0.0,0.0,0.0,0.0,0.0,0.0,0.0,0.0,0.0,0.0,0.0,0.0,0.0,0.0,0.0,0.0,0.0,0.0,0.0,0.0,0.0,0.0,0.0,0.0,0.0,0.0,0.0,0.0,0.0,0.0,0.0,0.0,0.0,0.0,0.0,0.0,-2.334,-2.4028,-2.5754,0.0,0.0,0.0,0.0,0.0,0.0,-3.1294,-3.1913,0.0,0.0,0.0,0.0,0.0,0.0,0.0,0.0,0.0,0.0,0.0,0.0,0.0,0.0,0.0,0.0,0.0,0.0,0.0,0.0,0.0,0.0,0.0,0.0,0.0,0.0,0.0,0.0,0.0,0.0,0.0,0.0,0.0,0.0,0.0,0.0,0.0,0.0,0.0,0.0,0.0,0.0,0.0,0.0,0.0,0.0,0.0,0.0,0.0,0.0,0.0,0.0,0.0,0.0,0.0,-2.6728,-2.9264,-3.0871,-3.1386,-3.2039,-3.2616,-3.3043,-3.2102,-3.0997,0.0,0.0,0.0,0.0,0.0,0.0,0.0,0.0,0.0,0.0,0.0,0.0,0.0,0.0,0.0,0.0,0.0,0.0,0.0,0.0,0.0,0.0,0.0,0.0,0.0,0.0,0.0,0.0,0.0,0.0,0.0,0.0,0.0,0.0,0.0,0.0,0.0,0.0,0.0,0.0,0.0,-2.433,-2.5698,-2.6341,0.0,0.0,0.0,0.0,-3.1997,-3.2403,0.0,0.0,0.0,0.0,0.0,0.0,0.0,0.0,0.0,0.0,0.0,0.0,0.0,0.0,0.0,0.0,0.0,0.0,0.0,0.0,0.0,0.0,0.0,0.0,0.0,0.0,0.0,0.0,0.0,0.0,0.0,0.0,0.0,0.0,0.0,0.0,0.0,0.0,0.0,0.0,0.0,0.0,0.0,0.0,0.0,0.0,0.0,0.0,0.0,0.0,0.0,0.0,0.0,0.0,0.0,0.0,-2.7256,-2.944,-3.0871,-3.1411,-3.2428,-3.3006,-3.3068,-3.2453,-3.1386,0.0,0.0,0.0,0.0,0.0,0.0,0.0,0.0,0.0,0.0,0.0,0.0,0.0,0.0,0.0,0.0,0.0,0.0,0.0,0.0,0.0,0.0,0.0,0.0,0.0,0.0,0.0,0.0,0.0,0.0,0.0,0.0,0.0,0.0,0.0,0.0,0.0,0.0,0.0,0.0,0.0,-2.617,-2.6693,-2.7942,-2.9184,0.0,0.0,-3.2632,-3.229,-3.3043,0.0,0.0,0.0,0.0,0.0,0.0,0.0,0.0,0.0,0.0,0.0,0.0,0.0,0.0,0.0,0.0,0.0,0.0,0.0,0.0,0.0,0.0,0.0,0.0,0.0,0.0,0.0,0.0,0.0,0.0,0.0,0.0,0.0,0.0,0.0,0.0,0.0,0.0,0.0,0.0,0.0,0.0,0.0,0.0,0.0,0.0,0.0,0.0,0.0,0.0,0.0,0.0,0.0,0.0,0.0,-2.7356,-2.7369,-2.9767,-3.116,-3.1411,-3.2491,-3.3081,-3.3081,-3.1938,-3.0834,0.0,0.0,0.0,0.0,0.0,0.0,0.0,0.0,0.0,0.0,0.0,0.0,0.0,0.0,0.0,0.0,0.0,0.0,0.0,0.0,0.0,0.0,0.0,0.0,0.0,0.0,0.0,0.0,0.0,0.0,0.0,0.0,0.0,0.0,0.0,0.0,0.0,0.0,0.0,0.0,0.0,0.0,-2.7526,-2.862,0.0,0.0,0.0,-3.3093,-3.3169,0.0,0.0,0.0,0.0,0.0,0.0,0.0,0.0,0.0,0.0,0.0,0.0,0.0,0.0,0.0,0.0,0.0,0.0,0.0,0.0,0.0,0.0,0.0,0.0,0.0,0.0,0.0,0.0,0.0,0.0,0.0,0.0,0.0,0.0,0.0,0.0,0.0,0.0,0.0,0.0,0.0,0.0,0.0,0.0,0.0,0.0,0.0,0.0,0.0,0.0,0.0,0.0,0.0,0.0,0.0,0.0,0.0,-2.7544,-3.0055,-3.1386,-3.1411,-3.2491,-3.3081,-3.3056,-3.1612,0.0,0.0,0.0,0.0,0.0,0.0,0.0,0.0,0.0,0.0,0.0,0.0,0.0,0.0,0.0,0.0,0.0,0.0,0.0,0.0,0.0,0.0,0.0,0.0,0.0,0.0,0.0,-1.9443,0.0,0.0,0.0,0.0,0.0,0.0,0.0,0.0,0.0,0.0,0.0,0.0,0.0,0.0,-2.5714,-2.7528,-2.8823,-3.0221,0.0,0.0,-3.3432,-3.3834,-3.3909,-3.3721,0.0,0.0,0.0,0.0,0.0,0.0,0.0,0.0,0.0,0.0,0.0,0.0,0.0,0.0,0.0,0.0,0.0,0.0,0.0,0.0,0.0,0.0,0.0,0.0,0.0,0.0,0.0,0.0,0.0,0.0,0.0,0.0,0.0,0.0,0.0,0.0,0.0,0.0,0.0,0.0,0.0,0.0,0.0,0.0,0.0,0.0,0.0,0.0,0.0,0.0,0.0,0.0,0.0,0.0,0.0,-2.8109,-3.0256,-3.1386,-3.1411,-3.2503,-3.3081,-3.3056,-3.1951,-3.0846,0.0,0.0,0.0,0.0,0.0,0.0,0.0,0.0,0.0,0.0,0.0,0.0,0.0,0.0,0.0,0.0,0.0,0.0,0.0,0.0,0.0,0.0,0.0,0.0,0.0,0.0,0.0,0.0,0.0,0.0,0.0,0.0,0.0,0.0,0.0,0.0,0.0,0.0,0.0,0.0,0.0,-2.6572,-2.5967,-2.8614,-3.07,0.0,0.0,-3.3847,-3.3884,-3.3909,-3.3709,-3.3169,0.0,0.0,0.0,0.0,0.0,0.0,0.0,0.0,0.0,0.0,0.0,0.0,0.0,0.0,0.0,0.0,0.0,0.0,0.0,0.0,0.0,0.0,0.0,0.0,0.0,0.0,0.0,0.0,0.0,0.0,0.0,0.0,0.0,0.0,0.0,0.0,0.0,0.0,0.0,0.0,0.0,0.0,0.0,0.0,0.0,0.0,0.0,0.0,0.0,0.0,0.0,0.0,0.0,-2.8059,-2.8624,-3.0444,-3.1549,-3.1913,-3.2667,-3.2918,-3.2554,-3.1193,-2.9797,0.0,0.0,0.0,0.0,0.0,0.0,0.0,0.0,0.0,0.0,0.0,0.0,0.0,0.0,0.0,0.0,0.0,0.0,0.0,0.0,0.0,0.0,0.0,0.0,0.0,0.0,0.0,0.0,-2.167,-2.1758,-2.1768,0.0,0.0,0.0,0.0,0.0,0.0,0.0,0.0,0.0,0.0,-2.6794,-2.7309,-2.8642,0.0,0.0,-3.2465,-3.3266,-3.3162,-3.3835,-3.3806,-3.2198,-3.1952,0.0,0.0,0.0,0.0,0.0,0.0,0.0,0.0,0.0,0.0,0.0,0.0,0.0,0.0,0.0,0.0,0.0,0.0,0.0,0.0,0.0,0.0,0.0,0.0,0.0,0.0,0.0,0.0,0.0,0.0,0.0,0.0,0.0,0.0,0.0,0.0,0.0,0.0,0.0,0.0,0.0,0.0,0.0,0.0,0.0,0.0,0.0,0.0,0.0,0.0,0.0,0.0,-2.8285,-2.9189,-3.0645,-3.1397,-3.1534,-3.2079,-3.192,-3.1004,-2.9713,-2.8433,0.0,0.0,0.0,0.0,0.0,0.0,0.0,0.0,0.0,0.0,0.0,0.0,0.0,0.0,0.0,0.0,0.0,0.0,0.0,0.0,0.0,0.0,0.0,0.0,0.0,0.0,0.0,0.0,-2.2588,-2.2559,-2.2685,0.0,0.0,0.0,0.0,0.0,0.0,0.0,0.0,0.0,0.0,-2.6913,-2.7739,-2.825,-2.9186,-3.0636,-3.1563,-3.2008,-3.1985,-3.2778,-3.2863,-3.1129,0.0,0.0,0.0,0.0,0.0,0.0,0.0,0.0,0.0,0.0,0.0,0.0,0.0,0.0,0.0,0.0,0.0,0.0,0.0,0.0,0.0,0.0,0.0,0.0,0.0,0.0,0.0,0.0,0.0,0.0,-2.2753,0.0,0.0,0.0,0.0,0.0,0.0,0.0,0.0,0.0,0.0,0.0,0.0,0.0,0.0,0.0,0.0,0.0,0.0,0.0,0.0,0.0,0.0,-2.8074,-2.9754,-3.0766,-3.0906,-2.9905,-3.0384,-2.9879,-2.8321,-2.7651,-2.706,-2.6509,0.0,0.0,0.0,0.0,0.0,0.0,0.0,0.0,0.0,0.0,0.0,0.0,0.0,0.0,0.0,0.0,0.0,0.0,0.0,0.0,0.0,0.0,0.0,0.0,0.0,0.0,-2.3164,-2.2783,-2.2676,0.0,0.0,0.0,0.0,0.0,0.0,0.0,0.0,0.0,0.0,-2.6191,-2.6855,-2.6535,-2.7435,-2.8383,-2.9021,-2.9644,-3.0169,-3.0308,-3.0583,-3.06,0.0,0.0,0.0,0.0,0.0,0.0,0.0,0.0,0.0,0.0,0.0,0.0,0.0,0.0,0.0,0.0,0.0,0.0,0.0,0.0,0.0,0.0,0.0,0.0,0.0,0.0,0.0,-2.6792,-2.5339,0.0,0.0,0.0,0.0,0.0,0.0,0.0,0.0,0.0,0.0,0.0,-2.7173,-2.7065,0.0,0.0,0.0,0.0,0.0,0.0,0.0,0.0,0.0,0.0,0.0,0.0,-2.7104,-2.7964,-2.906,-2.9398,-2.9148,-2.932,-2.8813,-2.7566,-2.668,-2.5572,-2.4243,0.0,0.0,0.0,0.0,0.0,0.0,0.0,0.0,0.0,0.0,0.0,0.0,0.0,0.0,0.0,0.0,0.0,0.0,0.0,0.0,0.0,0.0,0.0,0.0,0.0,-2.3994,0.0,0.0,0.0,0.0,0.0,0.0,0.0,0.0,0.0,0.0,0.0,-2.5791,-2.5928,-2.6562,-2.6865,-2.6445,-2.7012,-2.7542,0.0,0.0,0.0,0.0,0.0,0.0,0.0,0.0,0.0,0.0,0.0,0.0,0.0,0.0,-2.7637,-2.6943,-2.668,-2.6582,-2.6582,0.0,0.0,0.0,0.0,0.0,0.0,0.0,0.0,0.0,0.0,0.0,0.0,0.0,0.0,0.0,0.0,-2.3104,0.0,0.0,0.0,0.0,0.0,0.0,0.0,0.0,-2.5258,-2.6023,-2.7384,-2.6971,-2.6425,0.0,-2.5564,-2.5492,0.0,0.0,0.0,0.0,0.0,0.0,0.0,0.0,-2.6863,-2.7607,-2.8254,-2.8422,-2.7988,-2.7887,-2.7261,-2.5883,-2.5076,-2.417,-2.2919,-2.2294,-2.1797,0.0,0.0,0.0,0.0,0.0,0.0,0.0,0.0,0.0,0.0,0.0,0.0,0.0,0.0,0.0,0.0,0.0,0.0,0.0,0.0,0.0,0.0,0.0,-2.3862,0.0,0.0,0.0,0.0,0.0,0.0,0.0,0.0,0.0,-2.5977,-2.6348,-2.6728,-2.7021,-2.7285,-2.7314,-2.6894,0.0,0.0,0.0,0.0,0.0,0.0,0.0,-3.0003,-2.9147,-2.8829,-2.8389,-2.7845,-2.8018,-2.8242,-2.8096,0.0,0.0,-2.7559,-2.7344,-2.7285,-2.7432,-2.7344,-2.7285,-2.7432,-2.7451,-2.7373,0.0,0.0,0.0,0.0,0.0,0.0,0.0,0.0,-2.7977,-2.7399,0.0,-2.5112,0.0,0.0,0.0,0.0,0.0,0.0,0.0,0.0,-2.5361,-2.6172,-2.6818,-2.6142,-2.5762,-2.5655,-2.5713,-2.572,-2.561,-2.4999,0.0,0.0,0.0,0.0,0.0,0.0,-2.7347,-2.8343,-2.841,-2.773,-2.6293,-2.6272,-2.5221,-2.3271,-2.3144,-2.2949,-2.2568,-2.293,-2.2588,-2.1367,-2.1309,0.0,0.0,0.0,0.0,0.0,0.0,0.0,0.0,0.0,0.0,0.0,0.0,0.0,0.0,0.0,0.0,0.0,0.0,0.0,0.0,-2.267,0.0,0.0,0.0,0.0,0.0,0.0,0.0,0.0,0.0,0.0,-2.6562,-2.751,-2.8291,-2.8271,0.0,0.0,0.0,0.0,-2.7051,-2.707,-2.7773,-2.8174,-2.7783,-2.8369,-2.874,-2.8369,0.0,0.0,-2.7812,-2.8057,-2.8193,-2.7783,-2.8057,-2.8301,-2.8271,-2.7939,-2.7812,-2.8164,-2.7939,-2.7842,-2.8174,-2.8164,-2.7949,-3.1002,0.0,0.0,0.0,0.0,-2.9319,-2.9084,-2.8732,-2.9546,-2.8391,-2.5988,-2.6164,0.0,0.0,0.0,0.0,0.0,0.0,-2.5059,-2.5381,-2.5937,-2.6191,-2.6063,-2.6191,-2.6053,-2.5679,-2.5654,-2.5684,-2.5673,-2.547,-2.5205,-2.4925,0.0,0.0,0.0,0.0,-2.5808,-2.6062,-2.6388,-2.5997,-2.4955,-2.4945,-2.4356,-2.3154,-2.3144,-2.3076,-2.2969,-2.3379,-2.3301,-2.2627,-2.2607,0.0,0.0,0.0,0.0,0.0,0.0,0.0,0.0,0.0,0.0,0.0,0.0,0.0,0.0,0.0,0.0,0.0,0.0,0.0,-2.1413,-2.1539,-2.1719,0.0,0.0,0.0,0.0,0.0,0.0,0.0,0.0,0.0,-2.8213,-2.8242,-2.8301,0.0,0.0,-2.8135,-2.7725,-2.7559,-2.7588,-2.7881,0.0,0.0,0.0,-2.8506,-2.8535,-2.8711,-2.874,-2.8789,-2.8994,-2.8867,-2.8701,-2.8564,-2.8408,-2.8301,-2.8291,-2.8203,-2.8154,-2.8262,-2.8184,-2.8144,-2.8252,-2.8066,-2.7773,-3.0042,-2.9307,-2.9443,-2.9127,-2.8588,-2.8679,-2.854,-2.8086,-2.8894,-2.8176,-2.6465,-2.6506,-2.5724,-2.4551,-2.4375,0.0,0.0,0.0,-2.5478,-2.5752,-2.6006,-2.5995,-2.5739,-2.5995,-2.5995,-2.572,-2.5732,-2.5732,-2.5732,-2.5732,-2.5469,-2.4951,0.0,0.0,-2.4951,-2.5195,-2.5332,-2.5342,-2.5605,-2.5391,-2.4687,-2.4346,-2.3838,-2.3174,-2.3144,-2.3144,-2.3144,-2.3171,-2.3276,-2.3329,-2.3108,-2.265,0.0,0.0,0.0,0.0,0.0,0.0,0.0,0.0,0.0,0.0,0.0,-1.9997,0.0,0.0,0.0,0.0,-2.0119,-2.0123,-1.999,-2.055,0.0,0.0,0.0,0.0,0.0,0.0,0.0,-2.5129,-2.7121,-2.8267,-2.7563,-2.8395,-2.8984,-2.8828,-2.8799,-2.8643,-2.8223,0.0,-2.8008,-2.8262,-2.8652,-2.8926,-2.8916,-2.8564,-2.8271,-2.8164,-2.8164,-2.832,-2.8721,-2.8584,-2.8261,-2.7905,-2.7555,-2.7286,-2.6617,-2.6499,-2.6952,-2.8067,-2.8301,-2.8242,-2.8086,-2.7391,-2.6798,-2.8495,-2.7589,-2.8669,-2.8516,-2.7589,-2.791,-2.7669,-2.7002,-2.7133,-2.7236,-2.749,-2.6208,-2.5749,-2.5703,-2.5303,0.0,-2.5732,-2.5732,-2.5732,-2.5732,-2.5732,-2.5732,-2.5732,-2.5732,-2.5732,-2.5732,-2.5732,-2.5732,-2.5732,-2.5732,-2.5732,-2.5732,-2.5732,-2.5732,-2.5732,-2.5732,-2.5732,-2.5732,-2.5732,-2.5518,-2.5068,-2.4268,-2.3633,-2.3213,-2.3096,-2.2998,-2.2891,-2.2465,-2.2628,-2.3405,-2.2694,-2.1973,-2.123,0.0,0.0,0.0,0.0,0.0,0.0,0.0,0.0,0.0,0.0,0.0,0.0,0.0,0.0,0.0,-1.9664,0.0,-1.8574,-1.9946,0.0,0.0,0.0,-2.3223,-2.3206,-2.398,-2.4488,-2.408,0.0,0.0,-2.5517,0.0,-2.9659,-2.9176,-2.941,-2.9404,-2.8935,-2.8506,-2.8301,-2.8291,-2.8623,-2.8848,-2.873,-2.8398,-2.7891,-2.7256,-2.7012,-2.7226,-2.736,-2.7428,-2.7017,-2.5973,-2.5828,-2.5484,-2.3953,-2.3936,-2.4667,-2.7327,-2.7814,-2.7728,-2.7228,-2.6194,-2.5056,-2.7305,-2.6207,-2.6476,-2.658,-2.6714,-2.6814,-2.6912,-2.7012,-2.7699,-2.7459,-2.667,-2.6058,-2.5749,-2.5732,-2.5625,-2.5635,-2.5732,-2.5732,-2.5732,-2.5732,-2.5732,-2.5732,-2.5732,-2.5732,-2.5732,-2.5732,-2.5732,-2.5732,-2.5732,-2.5732,-2.5732,-2.5732,-2.5732,-2.5732,-2.5732,-2.5732,-2.5732,-2.5732,-2.5732,-2.5518,-2.5078,-2.4541,-2.4062,-2.3652,-2.2715,-2.2087,-2.1784,-2.1316,-2.1111,-2.1311,-2.1111,-2.0974,-2.0779,-1.9546,0.0,0.0,0.0,0.0,0.0,0.0,0.0,0.0,0.0,-1.7957,-1.7182,0.0,-1.8217,0.0,-1.8789,-1.8993,-1.8804,-2.0074,0.0,0.0,-2.154,-2.2024,-2.1688,-2.2771,-2.3505,-2.368,-2.5278,-2.6125,-2.5093,-2.5973,-2.6261,-2.5371,-2.7781,-2.9287,-2.8574,-2.8359,-2.8301,-2.8291,-2.8359,-2.832,-2.7892,-2.7598,-2.7153,-2.7041,-2.7002,-2.6724,-2.5748,-2.5653,-2.5254,-2.3952,-2.3648,-2.3533,-2.3129,-2.3328,-2.362,-2.4425,-2.4732,-2.4827,-2.4455,-2.3931,-2.3271,-2.639,-2.5732,-2.5732,-2.5879,-2.6123,-2.6309,-2.6523,-2.6758,-2.7337,-2.7068,-2.6367,-2.5916,-2.5712,-2.5732,-2.5732,-2.5732,-2.5732,-2.5732,-2.5732,-2.5732,-2.5732,-2.5732,-2.5732,-2.5732,-2.5732,-2.5732,-2.5732,-2.5732,-2.5732,-2.5732,-2.5732,-2.5732,-2.5732,-2.5732,-2.5732,-2.5732,-2.5732,-2.5732,-2.5732,-2.5518,-2.5088,-2.424,-2.3746,-2.3728,-2.2179,-2.1331,-2.1509,-2.0438,-2.0061,-2.0586,-2.024,-1.9866,-1.97,-1.8838,-1.7873,0.0,0.0,0.0,0.0,0.0,0.0,0.0,0.0,0.0,0.0,0.0,-1.7789,0.0,-1.8971,-1.9366,-1.9492,-2.0302,-2.0753,-2.0678,-2.1188,-2.1401,-2.1182,-2.17,-2.2267,-2.2445,-2.3794,-2.428,-2.3194,-2.4348,-2.4686,-2.326,-2.5552,-2.7103,-2.6537,-2.6834,-2.721,-2.7031,-2.71,-2.667,-2.5586,-2.5085,-2.4866,-2.4692,-2.4656,-2.4395,-2.3947,-2.3774,-2.3391,-2.2167,-2.1886,-2.1679,-2.1055,-2.1084,-2.122,-2.1243,-2.1364,-2.1844,-2.2871,-2.2338,-2.156,-2.5732,-2.5732,-2.5732,-2.5732,-2.5762,-2.6143,-2.6299,-2.6328,-2.6429,-2.6391,-2.6279,-2.5898,-2.5732,-2.5732,-2.5732,-2.5732,-2.5732,-2.5732,-2.5732,-2.5732,-2.5732,-2.5732,-2.5732,-2.5732,-2.5635,-2.543,-2.543,-2.5333,-2.5226,-2.5226,-2.5226,-2.5226,-2.5216,-2.5226,-2.5226,-2.5226,-2.5235,-2.543,-2.5235,-2.5043,-2.466,-2.3468,-2.3008,-2.3347,-2.1337,-2.0575,-2.129,-1.9701,-1.9207,-2.0095,-1.9384,-1.8821,-1.8526,-1.8171,-1.7505,0.0,-1.6025,0.0,0.0,0.0,0.0,0.0,0.0,0.0,0.0,-1.823,-1.8524,-1.8991,-1.9533,-1.9973,-2.0267,-2.0488,-2.0748,-2.1069,-2.1102,-2.1102,-2.1102,-2.1102,-2.1102,-2.1102,-2.2065,-2.2227,-2.1081,-2.2946,-2.3652,-2.2042,-2.2905,-2.3594,-2.3391,-2.4675,-2.5693,-2.5183,-2.5138,-2.4483,-2.2953,-2.237,-2.2245,-2.1843,-2.2005,-2.1766,-2.1985,-2.1931,-2.1619,-2.0597,-2.0219,-1.9816,-1.8583,-1.8494,-1.8541,-1.8651,-1.8658,-1.9414,-2.1179,-2.088,-1.9925,-2.5732,-2.5732,-2.5732,-2.5732,-2.5742,-2.583,-2.5859,-2.5859,-2.5839,-2.582,-2.5859,-2.5771,-2.5732,-2.5732,-2.5732,-2.5732,-2.5732,-2.5732,-2.5732,-2.5732,-2.5732,-2.5732,-2.5732,-2.5732,-2.5128,-2.4097,-2.4097,-2.3493,-2.2466,-2.2466,-2.2466,-2.2466,-2.2466,-2.2466,-2.2466,0.0,0.0,0.0,-2.2976,-2.2424,-2.2347,-2.2055,-2.1844,-2.1502,-2.0194,0.0,-1.9077,-1.8153,-1.7619,-1.7768,-1.7721,0.0,0.0,0.0,0.0,0.0,0.0,0.0,0.0,0.0,0.0,0.0,-1.8404,-1.8283,-1.8417,-1.9265,-1.9766,-1.9659,-1.9953,-2.0274,-2.0555,-2.0428,-2.0528,-2.1036,-2.1102,-2.1102,-2.1102,-2.1096,-2.1102,-2.1102,-2.1091,-2.0937,-2.0449,-2.0646,-2.069,-2.0178,-2.0238,-2.0228,-1.9927,-2.2409,-2.4005,-2.3762,-2.333,-2.2703,-2.1926,-2.1775,-2.1563,-2.1651,-2.1744,-2.1269,-2.0331,-2.0139,-1.9732,-1.8499,-1.816,-1.8181,-1.7882,-1.7949,-1.813,-1.813,-1.8136,-1.8232,-1.8759,-1.8711,-1.8365,-2.5732,0.0,-2.5732,-2.5732,0.0,-2.5732,-2.5732,-2.5732,-2.5732,-2.5732,-2.5732,-2.5732,-2.5732,-2.5732,-2.5732,-2.5732,-2.5732,-2.5732,-2.5333,-2.4707,-2.4716,-2.4402,-2.3692,-2.3692,-2.3375,-2.2767,-2.2667,-2.2366,-2.1752,-2.1744,-2.1744,-2.1744,-2.1744,-2.1744,-2.1651,-2.1041,-2.1347,-2.2667,-2.2055,-2.1744,-2.1643,-2.1041,-2.0772,-2.0933,0.0,0.0,0.0,0.0,0.0,0.0,0.0,0.0,0.0,0.0,0.0,-1.6907,-1.6921,-1.7054,-1.7348,-1.7776,-1.8223,-1.8671,-1.8971,-1.9011,-1.8724,-1.9512,-1.996,-1.9826,-2.0067,-2.0294,-2.0434,-2.0454,-2.0568,-2.0855,-2.0895,-2.0895,-2.0882,-2.0762,-2.0681,-2.0648,-2.0428,-2.018,-2.0034,-1.9626,-1.9332,-1.9165,-1.9025,-1.8891,-1.8989,-2.081,-2.2277,-2.1881,-2.1375,-2.0654,-1.9872,-1.9723,-1.9723,-1.9723,-1.9723,-1.942,-1.8708,-1.8603,-1.8401,-1.7687,-1.7589,-1.7589,-1.7595,-1.7716,-1.7816,-1.7816,-1.7822,-1.7816,-1.7816,-1.7816,-1.7782,-2.5732,-2.5732,-2.5732,-2.5732,-2.5732,-2.5732,-2.5732,-2.5732,0.0,0.0,0.0,-2.5732,-2.5732,-2.5742,-2.544,-2.5323,-2.5323,-2.5118,-2.4402,-2.3384,-2.3384,-2.2767,-2.1752,-2.1744,-2.1659,-2.1464,-2.1355,-2.1245,-2.0939,-2.0939,-2.0939,-2.0939,-2.0939,-2.0931,-2.0939,-1.9826,-1.9826,-2.0939,-2.0931,-2.0939,-2.0939,-1.9826,-1.9596,-2.0408,-1.8565,-1.7977,-1.8746,-1.7963,-1.7468,-1.7241,-1.7331,-1.7228,-1.7324,-1.7228,-1.7328,-1.7555,-1.7589,-1.7609,-1.7669,-1.813,-1.8457,-1.8557,-1.9225,-1.9486,-1.9098,-1.9573,-1.988,-1.9873,-2.0047,-2.0174,-2.0227,-2.0394,-2.0548,-2.0588,-2.0595,-2.0595,-2.0588,-2.0388,-2.0261,-2.0201,-2.0007,-1.978,-1.972,-1.9272,-1.8898,-1.8831,-1.8671,-1.8457,-1.8554,-1.9555,-2.0406,-1.9949,-1.9596,-1.8923,-1.7996,-1.7793,-1.7589,-1.7786,-1.7793,-1.7589,-1.7589,-1.7589,-1.7589,-1.7589,-1.7589,-1.7589,-1.7589,-1.7602,-1.7589,-1.7589,-1.7589,-1.7589,-1.7589,-1.7589,-1.7595,-2.5732,-2.5732,-2.5732,-2.5732,-2.5732,-2.5732,-2.5732,-2.5732,-2.5732,-2.5732,-2.5732,-2.5732,-2.5732,-2.5635,-2.4501,-2.3998,-2.389,-2.2776,-2.2156,0.0,-2.1954,-2.1853,-2.1744,-2.1744,-2.1285,-2.0529,-2.0071,-1.9317,-1.8297,-1.8192,-1.8192,-1.8199,-1.8192,-1.8199,-1.8199,-1.7989,-1.7989,-1.8199,-1.8192,-1.8192,-1.8199,-1.7996,-1.7975,-1.8032,-1.7759,-1.7674,-1.7732,-1.7667,-1.7562,-1.7522,-1.7522,-1.7522,-1.7522,-1.7515,-1.7535,-1.7582,-1.7589,-1.7702,-1.7956,-1.8063,-1.8323,-1.8804,-1.8978,-1.9212,-1.9646,-1.998,-2.0174,-2.016,-1.9973,-1.9967,-2.018,-2.0054,-2.0054,-2.0261,-2.0294,-2.0301,-2.0294,-2.0241,-2.0194,-2.018,-1.998,-1.9686,-1.9439,-1.9125,-1.8804,-1.8611,-1.845,-1.8384,-1.817,-1.8245,-1.8347,-1.834,-1.8088,-1.7806,-1.7687,-1.7589,-1.7589,-1.7589,-1.7589,-1.7589,-1.7589,-1.7589,-1.7589,-1.7589,-1.7589,-1.7589,-1.7589,-1.7589,-1.7589,-1.7589,-1.7589,-1.7589,-1.7589,-1.7589,-1.7589,-2.5732,-2.5732,-2.5732,-2.5732,-2.5732,-2.5732,-2.5732,-2.5655,-2.5693,-2.5673,-2.5742,-2.5732,-2.5732,-2.5538,-2.4304,-2.3692,-2.3692,-2.2366,-2.1347,-2.0641,-2.0531,-2.0128,-1.9524,-1.9413,-1.9235,-1.8855,-1.8617,-1.8199,-1.7687,-1.7589,-1.7589,-1.7589,-1.7589,-1.7589,-1.7589,-1.7589,-1.7589,-1.7589,-1.7589,-1.7589,-1.7589,-1.7589,-1.7589,-1.7589,-1.7589,-1.7589,-1.7589,-1.7589,-1.7589,-1.7589,-1.7589,-1.7589,-1.7589,-1.7589,-1.7589,-1.7589,-1.7589,-1.7649,-1.7782,-1.7949,-1.8223,-1.8657,-1.8838,-1.9025,-1.9299,-1.9593,-1.9766,-1.976,-1.9639,-1.9613,-1.9753,-1.9786,-1.9853,-1.998,-2.0,-1.9993,-1.9973,-1.9846,-1.9766,-1.9753,-1.9653,-1.9452,-1.9158,-1.8871,-1.8584,-1.8303,-1.8123,-1.7949,-1.7822,-1.7796,-1.7796,-1.7782,-1.7669,-1.7602,-1.7589,-1.7589,-1.7589,-1.7589,-1.7589,-1.7589,-1.7589,-1.7589,-1.7589,-1.7589,-1.7589,-1.7589,-1.7589,-1.7589,-1.7589,-1.7589,-1.7589,-1.7589,-1.7589,-1.7589,-1.7589,-2.5732,-2.5732,-2.5732,-2.5732,-2.5732,-2.5732,-2.5732,-2.5664,-2.572,-2.5484,-2.5254,-2.5166,-2.496,-2.4618,-2.3384,-2.2776,-2.2576,-2.1347,-2.0231,-1.922,-1.9117,-1.861,-1.7687,-1.7589,-1.7589,-1.7589,-1.7589,-1.7589,-1.7589,-1.7589,-1.7589,-1.7589,-1.7589,-1.7589,-1.7589,-1.7589,-1.7589,-1.7589,-1.7589,-1.7589,-1.7589,-1.7589,-1.7589,-1.7589,-1.7589,-1.7589,-1.7589,-1.7589,-1.7589,-1.7589,-1.7589,-1.7589,-1.7589,-1.7589,-1.7589,-1.7589,-1.7589,-1.7589,-1.7602,-1.7802,-1.8076,-1.837,-1.8597,-1.8751,-1.8838,-1.9038,-1.9232,-1.9339,-1.9386,-1.9379,-1.9419,-1.9566,-1.9706,-1.9706,-1.9706,-1.9706,-1.9679,-1.9499,-1.9366,-1.9366,-1.9366,-1.9239,-1.8891,-1.8631,-1.8357,-1.7996,-1.7722,-1.7595,-1.7589,-1.7589,-1.7589,-1.7589,-1.7589,-1.7589,-1.7589,-1.7589,-1.7589,-1.7589,-1.7589,-1.7589,-1.7589,-1.7589,-1.7589,-1.7589,-1.7589,-1.7589,-1.7589,-1.7589,-1.7589,-1.7589,-1.7589,-1.7562,-1.7475,-1.7382,-1.7455,-2.5732,-2.5732,-2.5732,-2.5732,-2.5732,-2.5732,-2.5732,-2.5674,-2.572,-2.4961,-2.3917,-2.3427,-2.2788,-2.1963,-2.0641,-2.0135,-2.0033,-1.861,-1.7989,-1.7891,-1.7793,-1.7687,-1.7582,-1.7589,-1.7589,-1.7589,-1.7589,-1.7589,-1.7589,-1.7589,-1.7589,-1.7589,-1.7589,-1.7589,-1.7589,-1.7589,-1.7589,-1.7589,-1.7589,-1.7589,-1.7589,-1.7589,-1.7589,-1.7589,-1.7582,-1.7589,-1.7569,-1.7589,-1.7582,-1.7589,-1.7589,-1.7589,-1.7589,-1.7589,-1.7589,-1.7589,-1.7589,-1.7589,-1.7589,-1.7609,-1.7769,-1.8043,-1.813,-1.8263,-1.8497,-1.8564,-1.8811,-1.9199,-1.9345,-1.9345,-1.9366,-1.9406,-1.9439,-1.9446,-1.9432,-1.9406,-1.9419,-1.9386,-1.9366,-1.9366,-1.9332,-1.9165,-1.8677,-1.8497,-1.8243,-1.7742,-1.7635,-1.7589,-1.7589,-1.7589,-1.7589,-1.7589,-1.7589,-1.7589,-1.7589,-1.7589,-1.7589,-1.7589,-1.7589,-1.7589,-1.7589,-1.7589,-1.7589,-1.7589,-1.7589,-1.7589,-1.7589,-1.7589,-1.7589,-1.7575,-1.7555,-1.7488,-1.7248,-1.7021,-1.7034,-2.5732,-2.5732,-2.5732,-2.5732,-2.5732,-2.5732,-2.5732,-2.5664,-2.572,-2.4544,-2.2366,-2.0664,-2.0468,-2.155,-2.0238,-1.9627,-1.9524,-1.8199,-1.7589,-1.7589,-1.7589,-1.7589,-1.7589,-1.7589,-1.7589,-1.7589,-1.7589,-1.7589,-1.7589,-1.7589,-1.7589,-1.7589,-1.7589,-1.7589,-1.7589,-1.7589,-1.7589,-1.7589,-1.7589,-1.7589,-1.7589,-1.7589,-1.7495,-1.7348,-1.7328,-1.7328,-1.7328,-1.7328,-1.7402,-1.7569,-1.7589,-1.7589,-1.7589,-1.7589,-1.7589,-1.7589,-1.7589,-1.7589,-1.7589,-1.7589,-1.7635,-1.7762,-1.7943,-1.8103,-1.8223,-1.8384,-1.8604,-1.8804,-1.8998,-1.9165,-1.9325,-1.9366,-1.9366,-1.9366,-1.9366,-1.9366,-1.9366,-1.9212,-1.9105,-1.9098,-1.9105,-1.8965,-1.8571,-1.8337,-1.8056,-1.7682,-1.7589,-1.7589,-1.7589,-1.7589,-1.7589,-1.7589,-1.7589,-1.7589,-1.7589,-1.7589,-1.7589,-1.7589,-1.7589,-1.7589,-1.7589,-1.7589,-1.7589,-1.7589,-1.7589,-1.7589,-1.7589,-1.7589,-1.7589,-1.7549,-1.7388,-1.7241,-1.6947,-1.6794,-1.6854,-2.5732,-2.5732,-2.5732,-2.5732,-2.5732,-2.5732,-2.5732,-2.5684,-2.5698,-2.4199,-2.1541,-1.875,-1.8669,-2.0215,-1.9524,-1.9013,-1.8916,-1.7989,-1.7589,-1.7589,-1.7589,-1.7589,-1.7589,-1.7589,-1.7589,-1.7589,-1.7589,-1.7589,-1.7589,-1.7589,-1.7589,-1.7589,-1.7589,-1.7589,-1.7589,-1.7589,-1.7589,-1.7589,-1.7589,-1.7589,-1.7589,-1.7589,-1.7448,-1.7181,-1.725,-1.7114,-1.7034,-1.7108,-1.7248,-1.7448,-1.7535,-1.7589,-1.7589,-1.7589,-1.7589,-1.7589,-1.7589,-1.7589,-1.7589,-1.7589,-1.7589,-1.7602,-1.7802,-1.7916,-1.7956,-1.8123,-1.8277,-1.839,-1.8564,-1.8811,-1.9185,-1.9245,-1.9279,-1.9345,-1.9366,-1.9366,-1.9352,-1.9158,-1.9025,-1.8945,-1.9038,-1.8898,-1.8551,-1.8243,-1.7949,-1.7662,-1.7589,-1.7589,-1.7589,-1.7589,-1.7589,-1.7589,-1.7589,-1.7589,-1.7589,-1.7589,-1.7589,-1.7589,-1.7589,-1.7589,-1.7589,-1.7589,-1.7589,-1.7589,-1.7589,-1.7589,-1.7589,-1.7589,-1.7522,-1.7422,-1.7235,-1.6961,-1.6647,-1.6547,-1.646,-2.5732,-2.5732,-2.5732,-2.5732,-2.5732,-2.5732,-2.5635,-2.5567,-2.5662,-2.4152,-2.1473,-1.8776,-1.7667,-1.7884,-1.7891,-1.7687,-1.7681,-1.7687,-1.7589,-1.7589,-1.7589,-1.7589,-1.7589,-1.7589,-1.7589,-1.7589,-1.7589,-1.7589,-1.7589,-1.7589,-1.7589,-1.7589,-1.7589,-1.7589,-1.7589,-1.7589,-1.7589,-1.7589,-1.7589,-1.7589,-1.7589,-1.7589,-1.7442,-1.7284,-1.7244,-1.7007,-1.68,-1.6994,-1.7257,-1.7174,-1.7435,-1.7589,-1.7589,-1.7589,-1.7589,-1.7589,-1.7589,-1.7589,-1.7589,-1.7589,-1.7589,-1.7589,-1.7615,-1.7615,-1.7649,-1.7689,-1.7816,-1.8036,-1.8096,-1.8337,-1.8851,-1.8978,-1.9098,-1.9332,-1.9366,-1.9366,-1.9366,-1.9305,-1.9199,-1.9032,-1.9118,-1.9018,-1.8557,-1.823,-1.7949,-1.7689,-1.7589,-1.7589,-1.7589,-1.7589,-1.7589,-1.7589,-1.7589,-1.7589,-1.7589,-1.7589,-1.7589,-1.7589,-1.7589,-1.7589,-1.7589,-1.7589,-1.7589,-1.7589,-1.7589,-1.7589,-1.7589,-1.7522,-1.7408,-1.7255,-1.6987,-1.67,-1.6366,-1.6066,-1.5807,-2.5732,-2.5732,-2.5732,-2.5732,-2.5732,-2.5732,-2.5226,-2.4548,-2.54,-2.3714,-2.0451,-1.8372,-1.7573,-1.7589,-1.7589,-1.7589,-1.7589,-1.7589,-1.7589,-1.7589,-1.7589,-1.7589,-1.7589,-1.7589,-1.7589,-1.7589,-1.7589,-1.7589,-1.7589,-1.7589,-1.7589,-1.7589,-1.7589,-1.7589,-1.7589,-1.7589,-1.7589,-1.7589,-1.7589,-1.7589,-1.7589,-1.7589,-1.7448,-1.7264,-1.6961,-1.682,-1.6707,-1.6807,-1.6947,-1.7244,-1.7428,-1.7589,-1.7589,-1.7589,-1.7589,-1.7589,-1.7589,-1.7589,-1.7589,-1.7589,-1.7589,-1.7589,-1.7589,-1.7589,-1.7589,-1.7589,-1.7629,-1.7722,-1.7756,-1.8016,-1.8524,-1.8804,-1.9045,-1.9305,-1.9366,-1.9366,-1.9325,-1.9205,-1.9038,-1.8965,-1.9025,-1.8911,-1.8624,-1.8397,-1.8136,-1.7695,-1.7589,-1.7589,-1.7589,-1.7589,-1.7589,-1.7589,-1.7589,-1.7589,-1.7589,-1.7589,-1.7589,-1.7589,-1.7589,-1.7589,-1.7589,-1.7589,-1.7589,-1.7589,-1.7589,-1.7589,-1.7589,-1.7575,-1.7422,-1.683,-1.6566,-1.6236,-1.6086,-1.5351,-1.4987,-2.5732,-2.5732,-2.5732,-2.5732,-2.5732,-2.5732,-2.4922,-2.3809,-2.4181,-2.2621,-1.9716,-1.8157,-1.7566,-1.7569,-1.7589,-1.7589,-1.7589,-1.7589,-1.7589,-1.7589,-1.7589,-1.7589,-1.7589,-1.7589,-1.7589,-1.7589,-1.7589,-1.7589,-1.7589,-1.7589,-1.7589,-1.7589,-1.7589,-1.7589,-1.7589,-1.7589,-1.7589,-1.7589,-1.7589,-1.7589,-1.7589,-1.7589,-1.7495,-1.7261,-1.6914,-1.6653,-1.6573,-1.6567,-1.67,-1.6994,-1.7281,-1.7488,-1.7569,-1.7589,-1.7589,-1.7589,-1.7589,-1.7589,-1.7589,-1.7589,-1.7589,-1.7589,-1.7589,-1.7589,-1.7589,-1.7589,-1.7589,-1.7589,-1.7589,-1.7829,-1.8357,-1.8671,-1.8938,-1.9272,-1.9366,-1.9366,-1.9359,-1.9192,-1.9098,-1.9065,-1.8991,-1.8844,-1.8664,-1.8551,-1.8257,-1.7796,-1.7662,-1.7589,-1.7589,-1.7589,-1.7589,-1.7589,-1.7589,-1.7589,-1.7582,-1.7582,-1.7477,-1.7477,-1.7589,-1.7589,-1.7589,-1.7589,-1.7582,-1.7589,-1.7582,-1.7589,-1.7589,-1.7582,-1.71,-1.6393,-1.5809,-1.5445,-1.5016,-1.4455,-1.3908,-2.5713,-2.5693,-2.5732,-2.5654,-2.5615,-2.5605,-2.4865,-2.3638,-2.2441,-2.1135,-1.9517,-1.8185,-1.7562,-1.7589,-1.7589,-1.7589,-1.7589,-1.7589,-1.7589,-1.7589,-1.7589,-1.7589,-1.7589,-1.7589,-1.7589,-1.7589,-1.7589,-1.7589,-1.7589,-1.7589,-1.7589,-1.7589,-1.7589,-1.7589,-1.7589,-1.7589,-1.7589,-1.7589,-1.7589,-1.7589,-1.7589,-1.7589,-1.7575,-1.7495,-1.7001,-1.6593,-1.6326,-1.6306,-1.6446,-1.672,-1.7014,-1.7288,-1.7542,-1.7589,-1.7589,-1.7589,-1.7589,-1.7589,-1.7589,-1.7589,-1.7589,-1.7589,-1.7589,-1.7589,-1.7589,-1.7589,-1.7582,-1.7371,-1.7391,-1.7709,-1.798,-1.8046,-1.8526,-1.9252,-1.9366,-1.9366,-1.9243,-1.9243,-1.9359,-1.9305,-1.9125,-1.8951,-1.8865,-1.8704,-1.83,-1.7771,-1.7709,-1.743,-1.7106,-1.708,-1.7477,-1.7259,-1.6823,-1.6505,-1.7041,-1.747,-1.7364,-1.7364,-1.7477,-1.7589,-1.7589,-1.7589,-1.7259,-1.7153,-1.6393,-1.628,-1.6256,-1.6125,-1.5836,-1.5221,-1.4861,-1.43,-1.3709,-1.3077,-1.2549,-2.5273,-2.5273,-2.5273,-2.5098,-2.4844,-2.4824,-2.4193,-2.317,-2.2133,-2.0873,-1.9502,-1.8199,-1.7589,-1.7589,-1.7589,-1.7589,-1.7589,-1.7589,-1.7589,-1.7589,-1.7589,-1.7589,-1.7589,-1.7589,-1.7589,-1.7589,-1.7589,-1.7589,-1.7589,-1.7589,-1.7589,-1.7589,-1.7589,-1.7589,-1.7589,-1.7589,-1.7589,-1.7589,-1.7589,-1.7589,-1.7589,-1.7589,-1.7589,-1.7522,-1.7014,-1.666,-1.6567,-1.638,-1.642,-1.6693,-1.6994,-1.7281,-1.7522,-1.7589,-1.7589,-1.7589,-1.7589,-1.7589,-1.7589,-1.7589,-1.7589,-1.7589,-1.7589,-1.7589,-1.7589,-1.7589,-1.7147,-1.6387,-1.6068,-1.5899,-1.5319,-1.5317,-1.6529,-1.9061,-1.9366,-1.8765,-1.7923,-1.7683,-1.8286,-1.9236,-1.9279,-1.9152,-1.8864,-1.8692,-1.7959,-1.6999,-1.7181,-1.7117,-1.5435,-1.572,-1.5535,-1.4883,-1.4776,-1.499,-1.531,-1.553,-1.553,-1.5849,-1.6393,-1.6611,-1.6829,-1.6935,-1.6717,-1.6287,-1.5524,-1.5062,-1.4938,-1.4735,-1.446,-1.3914,-1.325,-1.272,-1.2205,-1.1614,-1.1086,-2.4824,-2.4824,-2.4824,-2.4678,-2.4424,-2.4424,-2.389,-2.3105,-2.3189,-2.1862,-1.9716,-1.8192,-1.7589,-1.7589,-1.7589,-1.7589,-1.7589,-1.7589,-1.7589,-1.7589,-1.7589,-1.7589,-1.7589,-1.7589,-1.7589,-1.7589,-1.7589,-1.7589,-1.7589,-1.7589,-1.7589,-1.7589,-1.7589,-1.7589,-1.7589,-1.7589,-1.7589,-1.7589,-1.7589,-1.7589,-1.7589,-1.7589,-1.7589,-1.7515,-1.7121,-1.6894,-1.6847,-1.6593,-1.652,-1.674,-1.7081,-1.7395,-1.7569,-1.7589,-1.7589,-1.7589,-1.7589,-1.7589,-1.7589,-1.7589,-1.7589,-1.7589,-1.7589,-1.7589,-1.7589,-1.7589,-1.7035,-1.6393,-1.5737,-1.5194,-1.4675,-1.4044,-1.5145,-1.7128,-1.7517,-1.7208,-1.6256,-1.6138,-1.6385,-1.7214,-1.7449,-1.7481,-1.7377,-1.708,-1.672,-1.5665,-1.587,-1.5976,-1.415,-1.4223,-1.3732,-1.348,-1.3696,-1.3804,-1.348,-1.348,-1.348,-1.4126,-1.4776,-1.5097,-1.5316,-1.531,-1.5097,-1.4776,-1.4126,-1.4019,-1.3875,-1.3673,-1.332,-1.254,-1.1706,-1.1089,-1.0558,-1.0147,-0.971,-2.4385,-2.4385,-2.4385,-2.4346,-2.4287,-2.4277,-2.3813,-2.3437,-2.4651,-2.3147,-2.0002,-1.8283,-1.7589,-1.7589,-1.7589,-1.7589,-1.7589,-1.7589,-1.7589,-1.7589,-1.7589,-1.7589,-1.7589,-1.7589,-1.7589,-1.7589,-1.7589,-1.7589,-1.7589,-1.7589,-1.7589,-1.7589,-1.7589,-1.7589,-1.7589,-1.7589,-1.7589,-1.7589,-1.7589,-1.7589,-1.7589,-1.7589,-1.7589,-1.7569,-1.7288,-1.721,-1.7061,-1.6867,-1.6734,-1.6807,-1.7268,-1.7549,-1.7582,-1.7589,-1.7589,-1.7589,-1.7589,-1.7589,-1.7582,-1.7259,-1.7259,-1.7252,-1.7041,-1.7364,-1.6935,-1.6717,-1.6605,-1.6174,-1.5417,-1.486,-1.4609,-1.3825,-1.3595,-1.3953,-1.4575,-1.4574,-1.4697,-1.4564,-1.476,-1.4754,-1.4672,-1.4667,-1.4933,-1.4771,-1.4369,-1.3962,-1.3851,-1.3768,-1.2864,-1.2692,-1.3063,-1.2724,-1.2186,-1.2077,-1.1647,-1.1647,-1.1647,-1.1864,-1.2724,-1.3264,-1.3696,-1.3804,-1.3521,-1.3209,-1.2773,-1.2787,-1.2438,-1.1901,-1.149,-1.0806,-1.0063,-0.9497,-0.9194,-0.8973,-0.8829,-2.3955,-2.3955,-2.3955,-2.3769,-2.3496,-2.3477,-2.3541,-2.3648,-2.4412,-2.318,-2.0519,-1.8504,-1.7569,-1.7582,-1.7582,-1.7589,-1.7589,-1.7589,-1.7589,-1.7589,-1.7589,-1.7589,-1.7589,-1.7589,-1.7589,-1.7589,-1.7589,-1.7589,-1.7589,-1.7589,-1.7589,-1.7589,-1.7589,-1.7589,-1.7589,-1.7589,-1.7589,-1.7589,-1.7589,-1.7589,-1.7589,-1.7589,-1.7589,-1.7555,-1.7308,-1.7271,-1.725,-1.7081,-1.7034,-1.7061,-1.7368,-1.7589,-1.7589,-1.7582,-1.7477,-1.7477,-1.7477,-1.7582,-1.7252,-1.6499,-1.6068,-1.5849,-1.5204,-1.4454,-1.4454,-1.4454,-1.3911,-1.3156,-1.2403,-1.1882,-1.1084,-1.0751,-1.0595,-1.0802,-1.1997,-1.32,-1.3805,-1.341,-1.3007,-1.4029,-1.4124,-1.4019,-1.3894,-1.3854,-1.3427,-1.2771,-1.2735,-1.2677,-1.1466,-1.1266,-1.1647,-1.0457,-0.9915,-0.9915,-0.9915,-0.9915,-0.9915,-0.9809,-1.046,-1.1324,-1.186,-1.2398,-1.1976,-1.1572,-1.094,-1.0671,-1.0051,-0.938,-0.9102,-0.9256,-0.894,-0.8639,-0.841,-0.8237,-0.8336,-2.3516,-2.3516,-2.3516,-2.3369,-2.3154,-2.3144,-2.3113,-2.3133,-2.3598,-2.2426,-2.0087,-1.8394,-1.7513,-1.7408,-1.7522,-1.7582,-1.7589,-1.7589,-1.7589,-1.7589,-1.7589,-1.7589,-1.7589,-1.7589,-1.7589,-1.7589,-1.7589,-1.7589,-1.7589,-1.7589,-1.7589,-1.7589,-1.7589,-1.7589,-1.7589,-1.7589,-1.7589,-1.7589,-1.7589,-1.7589,-1.7589,-1.7589,-1.7589,-1.7562,-1.7408,-1.7328,-1.7328,-1.7335,-1.7288,-1.7248,-1.7415,-1.7589,-1.7582,-1.6929,-1.6711,-1.6605,-1.6174,-1.5743,-1.5636,-1.499,-1.4556,-1.4449,-1.3696,-1.3372,-1.3372,-1.3264,-1.2832,-1.2403,-1.1538,-1.0672,-1.0052,-0.951,-0.9298,-0.9519,-1.0307,-1.1346,-1.2289,-1.1475,-1.1313,-1.1918,-1.2109,-1.2104,-1.2104,-1.2219,-1.1722,-1.1098,-1.1118,-1.0567,-0.9709,-0.9968,-1.0025,-0.9265,-0.8937,-0.9154,-0.9372,-0.9372,-0.9372,-0.9158,-0.9265,-0.9915,-1.0347,-1.0988,-1.0558,-0.9935,-0.9158,-0.8642,-0.8452,-0.8309,-0.847,-0.8501,-0.8089,-0.8052,-0.8041,-0.8038,-0.8038,-2.3144,-2.3144,-2.3144,-2.3144,-2.3144,-2.3057,-2.2701,-2.2154,-2.2369,-2.1111,-1.8965,-1.7792,-1.721,-1.7121,-1.7295,-1.7482,-1.7522,-1.7495,-1.7555,-1.7569,-1.7589,-1.7589,-1.7589,-1.7589,-1.7589,-1.7589,-1.7589,-1.7589,-1.7589,-1.7589,-1.7589,-1.7589,-1.7589,-1.7589,-1.7589,-1.7589,-1.7589,-1.7589,-1.7589,-1.7589,-1.7589,-1.7589,-1.7589,-1.7582,-1.7569,-1.7535,-1.7542,-1.7325,-1.7134,-1.6995,-1.7232,-1.7134,-1.6929,-1.5743,-1.5304,-1.5091,-1.4341,-1.3696,-1.3372,-1.3372,-1.3048,-1.294,-1.2832,-1.2832,-1.2507,-1.2295,-1.2295,-1.1973,-1.1538,-1.0672,-1.037,-0.9727,-0.924,-0.9281,-0.9387,-0.9459,-0.934,-0.9347,-0.9354,-0.9337,-0.9442,-0.9334,-0.9337,-0.9327,-0.9394,-0.9931,-0.9984,-0.9723,-0.9227,-0.94,-0.9372,-0.9154,-0.8937,-0.8937,-0.8937,-0.8937,-0.9047,-0.8937,-0.8937,-0.9261,-0.9261,-0.9559,-0.9149,-0.875,-0.8655,-0.8496,-0.8289,-0.8194,-0.816,-0.8123,-0.8055,-0.8041,-0.8038,-0.8038,-0.8038,-2.3144,-2.3144,-2.3144,-2.3144,-2.3144,-2.3057,-2.2451,-2.1383,-2.061,-1.9573,-1.8134,-1.6812,-1.6452,-1.6814,-1.6914,-1.7014,-1.7255,-1.7295,-1.7355,-1.7582,-1.7589,-1.7589,-1.7589,-1.7589,-1.7589,-1.7589,-1.7589,-1.7589,-1.7589,-1.7589,-1.7589,-1.7589,-1.7589,-1.7589,-1.7589,-1.7589,-1.7589,-1.7589,-1.7589,-1.7589,-1.7589,-1.7589,-1.7589,-1.7589,-1.7589,-1.7589,-1.7364,-1.6499,-1.5825,-1.5801,-1.5813,-1.5524,-1.4669,-1.4019,-1.3804,-1.3583,-1.348,-1.3161,-1.3048,-1.2186,-1.1542,-1.1538,-1.0785,-0.9809,-0.9805,-1.0021,-1.0025,-0.9805,-0.9482,-0.9482,-0.9493,-0.9398,-0.9083,-0.9055,-0.9117,-0.9164,-0.9083,-0.9137,-0.9154,-0.9086,-0.9055,-0.9039,-0.9049,-0.9066,-0.9035,-0.8991,-0.8984,-0.8971,-0.8957,-0.894,-0.8937,-0.8937,-0.8937,-0.8937,-0.8937,-0.8937,-0.8937,-0.8937,-0.8937,-0.8937,-0.8937,-0.8903,-0.8825,-0.8693,-0.854,-0.8364,-0.8191,-0.8113,-0.8085,-0.8055,-0.8038,-0.8038,-0.8038,-0.8038,-0.8038,-2.3144,-2.3144,-2.3144,-2.3144,-2.3047,-2.2492,-2.1578,-2.0538,-1.9777,-1.855,-1.7156,-1.611,-1.6058,-1.652,-1.6653,-1.6874,-1.7134,-1.7301,-1.7435,-1.7569,-1.7589,-1.7589,-1.7589,-1.7589,-1.7589,-1.7589,-1.7589,-1.7589,-1.7589,-1.7589,-1.7589,-1.7589,-1.7589,-1.7589,-1.7589,-1.7589,-1.7589,-1.7589,-1.7589,-1.7589,-1.7589,-1.7589,-1.7589,-1.7589,-1.7589,-1.7589,-1.7477,-1.6935,-1.6174,-1.5417,-1.4776,-1.4126,-1.327,-1.2615,-1.2299,-1.2186,-1.1538,-1.1324,-1.0891,-1.0566,-1.0021,-1.0131,-0.9265,-0.9047,-0.8937,-0.8937,-0.8937,-0.8937,-0.8937,-0.8937,-0.894,-0.8988,-0.8994,-0.8977,-0.9005,-0.9015,-0.8971,-0.9008,-0.9032,-0.8957,-0.8957,-0.8954,-0.894,-0.8937,-0.894,-0.8964,-0.8964,-0.8954,-0.895,-0.8937,-0.8937,-0.8937,-0.8937,-0.8937,-0.8937,-0.8937,-0.8937,-0.8937,-0.8937,-0.8937,-0.8937,-0.8889,-0.8832,-0.8672,-0.8506,-0.8323,-0.817,-0.8092,-0.8041,-0.8038,-0.8038,-0.8038,-0.8038,-0.8038,-0.8038,-2.3144,-2.3144,-2.3144,-2.3144,-2.295,-2.2031,-2.0854,-1.9613,-1.9518,-1.8209,-1.6164,-1.5783,-1.5985,-1.6253,-1.6426,-1.674,-1.7088,-1.7428,-1.7569,-1.7582,-1.7589,-1.7589,-1.7589,-1.7589,-1.7589,-1.7589,-1.7589,-1.7589,-1.7589,-1.7589,-1.7589,-1.7589,-1.7589,-1.7589,-1.7589,-1.7589,-1.7589,-1.7589,-1.7589,-1.7589,-1.7589,-1.7589,-1.7589,-1.7589,-1.7589,-1.7364,-1.7041,-1.6605,-1.6068,-1.477,-1.3372,-1.2724,-1.2295,-1.1647,-1.0781,-1.0781,-0.9805,-0.9478,-0.9482,-0.9154,-0.9047,-0.8937,-0.8937,-0.8937,-0.8937,-0.8937,-0.8937,-0.8937,-0.8937,-0.8937,-0.8937,-0.8954,-0.895,-0.894,-0.894,-0.8937,-0.8937,-0.8937,-0.8944,-0.8944,-0.8937,-0.8937,-0.8937,-0.8937,-0.8937,-0.8937,-0.8937,-0.8937,-0.8937,-0.8937,-0.8937,-0.8937,-0.8937,-0.8937,-0.8937,-0.8937,-0.8937,-0.8937,-0.8937,-0.8937,-0.8937,-0.891,-0.8838,-0.8655,-0.8482,-0.8323,-0.8187,-0.8099,-0.8058,-0.8045,-0.8038,-0.8038,-0.8038,-0.8038,-0.8038,-2.3144,-2.3144,-2.3144,-2.3144,-2.3047,-2.2862,-2.14,-1.9679,-1.9355,-1.8071,-1.6028,-1.5783,-1.5823,-1.5939,-1.5939,-1.6279,-1.6834,-1.7308,-1.7589,-1.7589,-1.7589,-1.7589,-1.7589,-1.7589,-1.7589,-1.7589,-1.7589,-1.7589,-1.7589,-1.7589,-1.7589,-1.7589,-1.7589,-1.7589,-1.7589,-1.7589,-1.7589,-1.7589,-1.7589,-1.7589,-1.7589,-1.7477,-1.7259,-1.7259,-1.7041,-1.6711,-1.5636,-1.4669,-1.3372,-1.1864,-1.0457,-0.9915,-1.0025,-0.9699,-0.9482,-0.9372,-0.9154,-0.8937,-0.8937,-0.8937,-0.8937,-0.8937,-0.8937,-0.8937,-0.8937,-0.8937,-0.8937,-0.8937,-0.8937,-0.8937,-0.8937,-0.8937,-0.8937,-0.8937,-0.8937,-0.8937,-0.8937,-0.8937,-0.8937,-0.8937,-0.8937,-0.8937,-0.8937,-0.8937,-0.8937,-0.8937,-0.8937,-0.8937,-0.8937,-0.8937,-0.8937,-0.8937,-0.8937,-0.8937,-0.8937,-0.8937,-0.8937,-0.8937,-0.8937,-0.8937,-0.8937,-0.8937,-0.8845,-0.8713,-0.8564,-0.8418,-0.8282,-0.814,-0.8072,-0.8052,-0.8045,-0.8041,-0.8038,-0.8038,-0.8038,-2.3144,-2.3144,-2.3144,-2.3144,-2.296,-2.2394,-2.1114,-1.9472,-1.811,-1.6937,-1.6082,-1.5825,-1.5825,-1.5825,-1.5825,-1.6159,-1.6734,-1.7308,-1.7562,-1.7589,-1.7589,-1.7589,-1.7589,-1.7589,-1.7589,-1.7589,-1.7589,-1.7589,-1.7589,-1.7589,-1.7589,-1.7589,-1.7589,-1.7589,-1.7589,-1.7589,-1.7589,-1.7589,-1.7589,-1.7582,-1.7477,-1.6935,-1.628,-1.5524,-1.5417,-1.4984,-1.4449,-1.3809,-1.3048,-1.2186,-1.0887,-1.0237,-0.9809,-0.9265,-0.8937,-0.8937,-0.8937,-0.8937,-0.8937,-0.8937,-0.8937,-0.8937,-0.8937,-0.8937,-0.8937,-0.8937,-0.8937,-0.8937,-0.8937,-0.8937,-0.8937,-0.8937,-0.8937,-0.8937,-0.8937,-0.8937,-0.8937,-0.8937,-0.8937,-0.8937,-0.8937,-0.8937,-0.8937,-0.8937,-0.8937,-0.8937,-0.8937,-0.8937,-0.8937,-0.8937,-0.8937,-0.8937,-0.8937,-0.8937,-0.8937,-0.8937,-0.8937,-0.8937,-0.8937,-0.8937,-0.8937,-0.8937,-0.892,-0.8849,-0.8693,-0.854,-0.8353,-0.8208,-0.8136,-0.8069,-0.8065,-0.8062,-0.8045,-0.8038,-0.8038,-2.3066,-2.3144,-2.3144,-2.295,-2.2589,-2.1756,-2.0486,-1.8915,-1.7479,-1.639,-1.5818,-1.5825,-1.5825,-1.5845,-1.5959,-1.6226,-1.6734,-1.7268,-1.7482,-1.7589,-1.7589,-1.7589,-1.7589,-1.7589,-1.7589,-1.7589,-1.7589,-1.7589,-1.7589,-1.7589,-1.7589,-1.7589,-1.7589,-1.7589,-1.7589,-1.7589,-1.7589,-1.7589,-1.7589,-1.7575,-1.6929,-1.5743,-1.4556,-1.348,-1.3264,-1.3264,-1.2832,-1.2729,-1.2403,-1.1864,-1.1105,-1.0562,-1.0457,-0.9482,-0.8937,-0.8937,-0.8937,-0.8937,-0.8937,-0.8937,-0.8937,-0.8937,-0.8937,-0.8937,-0.8937,-0.8937,-0.8937,-0.8937,-0.8937,-0.8937,-0.8937,-0.8937,-0.8937,-0.8937,-0.8937,-0.8937,-0.8937,-0.8937,-0.8937,-0.8937,-0.8937,-0.8937,-0.8937,-0.8937,-0.8937,-0.8937,-0.8937,-0.8937,-0.8937,-0.8937,-0.8937,-0.8937,-0.8937,-0.8937,-0.8937,-0.8937,-0.8937,-0.8937,-0.8937,-0.8937,-0.8937,-0.8937,-0.892,-0.8903,-0.8852,-0.8693,-0.8482,-0.8319,-0.8282,-0.8228,-0.8136,-0.8102,-0.813,-0.8082,-0.8038,-2.2803,-2.3135,-2.3047,-2.2492,-2.156,-2.1284,-1.9943,-1.8156,-1.8551,-1.771,-1.5825,-1.5825,-1.5825,-1.5879,-1.6106,-1.6393,-1.672,-1.7061,-1.7348,-1.7508,-1.7562,-1.7589,-1.7589,-1.7589,-1.7589,-1.7589,-1.7589,-1.7589,-1.7589,-1.7589,-1.7589,-1.7589,-1.7589,-1.7589,-1.7589,-1.7589,-1.7589,-1.7589,-1.7589,-1.7041,-1.5737,-1.4449,-1.3588,-1.3264,-1.2945,-1.2403,-1.1538,-1.1324,-1.0891,-0.9805,-0.9482,-0.9154,-0.9158,-0.9047,-0.8937,-0.8937,-0.8937,-0.8937,-0.8937,-0.8937,-0.8937,-0.8937,-0.8937,-0.8937,-0.8937,-0.8937,-0.8937,-0.8937,-0.8937,-0.8937,-0.8937,-0.8937,-0.8937,-0.8937,-0.8937,-0.8937,-0.8937,-0.8937,-0.8937,-0.8937,-0.8937,-0.8937,-0.8937,-0.8937,-0.8937,-0.8937,-0.8937,-0.8937,-0.8937,-0.8937,-0.8937,-0.8937,-0.8937,-0.8937,-0.8937,-0.8937,-0.8937,-0.8937,-0.8937,-0.8937,-0.8937,-0.8937,-0.8937,-0.8916,-0.8886,-0.8849,-0.8679,-0.855,-0.8476,-0.8381,-0.8286,-0.8252,-0.8248,-0.817,-0.8072,-2.2041,-2.2376,-2.2117,-2.1706,-2.0916,-2.048,-1.9314,-1.8079,-1.8458,-1.7695,-1.6116,-1.5825,-1.5825,-1.5885,-1.6139,-1.6326,-1.6547,-1.6914,-1.7194,-1.7368,-1.7475,-1.7575,-1.7589,-1.7589,-1.7589,-1.7589,-1.7589,-1.7589,-1.7589,-1.7589,-1.7589,-1.7589,-1.7589,-1.7589,-1.7589,-1.7589,-1.7589,-1.7589,-1.7477,-1.6823,-1.5417,-1.4019,-1.2832,-1.2077,-1.1324,-1.0566,-1.0131,-0.9809,-0.9592,-0.8937,-0.8937,-0.8937,-0.8937,-0.8937,-0.8937,-0.8937,-0.8937,-0.8937,-0.8937,-0.8937,-0.8937,-0.8937,-0.8937,-0.8937,-0.8937,-0.8937,-0.8937,-0.8937,-0.8937,-0.8937,-0.8937,-0.8937,-0.8937,-0.8937,-0.8937,-0.8937,-0.8937,-0.8937,-0.8937,-0.8937,-0.8937,-0.8937,-0.8937,-0.8937,-0.8937,-0.8937,-0.8937,-0.8937,-0.8937,-0.8937,-0.8937,-0.8937,-0.8937,-0.8937,-0.8937,-0.8937,-0.8937,-0.8937,-0.8937,-0.8937,-0.8937,-0.8937,-0.8937,-0.8937,-0.892,-0.8872,-0.8818,-0.873,-0.8608,-0.8516,-0.8431,-0.8384,-0.8333,-0.8248,-0.8153,-2.1196,-2.1129,-2.1034,-2.0658,-2.0087,-1.9289,-1.8179,-1.7201,-1.752,-1.6986,-1.6116,-1.5825,-1.5825,-1.5865,-1.6046,-1.6186,-1.6313,-1.6734,-1.6947,-1.7108,-1.7301,-1.7442,-1.7475,-1.7502,-1.7589,-1.7589,-1.7589,-1.7589,-1.7589,-1.7589,-1.7589,-1.7589,-1.7589,-1.7589,-1.7589,-1.7589,-1.7589,-1.7582,-1.7147,-1.6174,-1.4776,-1.3372,-1.1973,-1.0676,-0.9592,-0.8937,-0.8937,-0.8937,-0.8937,-0.8937,-0.8937,-0.8937,-0.8937,-0.8937,-0.8937,-0.8937,-0.8937,-0.8937,-0.8937,-0.8937,-0.8937,-0.8937,-0.8937,-0.8937,-0.8937,-0.8937,-0.8937,-0.8937,-0.8937,-0.8937,-0.8937,-0.8937,-0.8937,-0.8937,-0.8937,-0.8937,-0.8937,-0.8937,-0.8937,-0.8937,-0.8937,-0.8937,-0.8937,-0.8937,-0.8937,-0.8937,-0.8937,-0.8937,-0.8937,-0.8937,-0.8937,-0.8937,-0.8937,-0.8937,-0.8937,-0.8937,-0.8937,-0.8937,-0.8937,-0.8937,-0.8937,-0.8937,-0.8937,-0.8937,-0.8937,-0.892,-0.8876,-0.8804,-0.8737,-0.8686,-0.8618,-0.8482,-0.8397,-0.8306,-0.8201,-2.0429,-1.927,-1.996,-1.9589,-1.8473,-1.7675,-1.6668,-1.5848,-1.5994,-1.6001,-1.5832,-1.5825,-1.5825,-1.5845,-1.5892,-1.6032,-1.6259,-1.6313,-1.6547,-1.68,-1.7027,-1.7221,-1.7335,-1.7482,-1.7589,-1.7589,-1.7589,-1.7589,-1.7589,-1.7589,-1.7589,-1.7589,-1.7589,-1.7589,-1.7589,-1.7589,-1.7364,-1.7147,-1.6393,-1.5097,-1.3696,-1.2186,-1.0781,-0.9699,-0.9047,-0.8937,-0.8937,-0.8937,-0.8937,-0.8937,-0.8937,-0.8937,-0.8937,-0.8937,-0.8937,-0.8937,-0.8937,-0.8937,-0.8937,-0.8937,-0.8937,-0.8937,-0.8937,-0.8937,-0.8937,-0.8937,-0.8937,-0.8937,-0.8937,-0.8937,-0.8937,-0.8937,-0.8937,-0.8937,-0.8937,-0.8937,-0.8937,-0.8937,-0.8937,-0.8937,-0.8937,-0.8937,-0.8937,-0.8937,-0.8937,-0.8937,-0.8937,-0.8937,-0.8937,-0.8937,-0.8937,-0.8937,-0.8937,-0.8937,-0.8937,-0.8937,-0.8937,-0.8937,-0.8937,-0.8937,-0.8937,-0.8937,-0.8937,-0.8937,-0.8937,-0.8937,-0.8933,-0.8876,-0.8845,-0.8866,-0.8798,-0.8638,-0.8421,-0.8258,-0.816,-1.951,-1.8913,-1.7878,-1.7275,-1.6915,-1.6219,-1.5665,-1.549,-1.5518,-1.5671,-1.5825,-1.5825,-1.5825,-1.5825,-1.5832,-1.5879,-1.6025,-1.6219,-1.6433,-1.672,-1.6987,-1.7331,-1.7388,-1.7488,-1.7589,-1.7589,-1.7589,-1.7589,-1.7589,-1.7589,-1.7589,-1.7589,-1.7589,-1.7589,-1.7589,-1.7477,-1.7147,-1.6387,-1.5636,-1.4669,-1.3264,-1.1973,-1.0781,-1.0347,-0.9158,-0.8937,-0.8937,-0.8937,-0.8937,-0.8937,-0.8937,-0.8937,-0.8937,-0.8937,-0.8937,-0.8937,-0.8937,-0.8937,-0.8937,-0.8937,-0.8937,-0.8937,-0.8937,-0.8937,-0.8937,-0.8937,-0.8937,-0.8937,-0.8937,-0.8937,-0.8937,-0.8937,-0.8937,-0.8937,-0.8937,-0.8937,-0.8937,-0.8937,-0.8937,-0.8937,-0.8937,-0.8937,-0.8937,-0.8937,-0.8937,-0.8937,-0.8937,-0.8937,-0.8937,-0.8937,-0.8937,-0.8937,-0.8937,-0.8937,-0.8937,-0.8937,-0.8937,-0.8937,-0.8937,-0.8937,-0.8937,-0.8937,-0.8937,-0.8937,-0.8937,-0.8937,-0.8937,-0.8937,-0.8927,-0.8913,-0.8859,-0.8764,-0.852,-0.8265,-0.816,-1.9116,-1.831,-1.6846,-1.6073,-1.59,-1.5216,-1.495,-1.5144,-1.5331,-1.5558,-1.5825,-1.5825,-1.5825,-1.5825,-1.5825,-1.5832,-1.5899,-1.6052,-1.6299,-1.6567,-1.6854,-1.7174,-1.7388,-1.7535,-1.7589,-1.7589,-1.7589,-1.7589,-1.7589,-1.7589,-1.7589,-1.7589,-1.7589,-1.7589,-1.7589,-1.7477,-1.6823,-1.5743,-1.531,-1.4341,-1.2724,-1.1647,-1.0676,-1.0347,-0.9265,-0.8937,-0.8937,-0.8937,-0.8937,-0.8937,-0.8937,-0.8937,-0.8937,-0.8937,-0.8937,-0.8937,-0.8937,-0.8937,-0.8937,-0.8937,-0.8937,-0.8937,-0.8937,-0.8937,-0.8937,-0.8937,-0.8937,-0.8937,-0.8937,-0.8937,-0.8937,-0.8937,-0.8937,-0.8937,-0.8937,-0.8937,-0.8937,-0.8937,-0.8937,-0.8937,-0.8937,-0.8937,-0.8937,-0.8937,-0.8937,-0.8937,-0.8937,-0.8937,-0.8937,-0.8937,-0.8937,-0.8937,-0.8937,-0.8937,-0.8937,-0.8937,-0.8937,-0.8937,-0.8937,-0.8937,-0.8937,-0.8937,-0.8937,-0.8937,-0.8937,-0.8937,-0.8937,-0.8937,-0.8937,-0.8937,-0.8852,-0.8754,-0.8655,-0.8414,-0.8255,-1.9274,-1.7423,-1.7172,-1.6527,-1.5536,-1.4819,-1.4549,-1.471,-1.5177,-1.5558,-1.5812,-1.5825,-1.5825,-1.5825,-1.5825,-1.5825,-1.5845,-1.5905,-1.6099,-1.6426,-1.6754,-1.6954,-1.7221,-1.7448,-1.7589,-1.7589,-1.7589,-1.7589,-1.7589,-1.7589,-1.7589,-1.7477,-1.7371,-1.7371,-1.7582,-1.7582,-1.6817,-1.5524,-1.5304,-1.3475,-1.1642,-1.0891,-1.0131,-0.9482,-0.9047,-0.8937,-0.8937,-0.8937,-0.8937,-0.8937,-0.8937,-0.8937,-0.8937,-0.8937,-0.8937,-0.8937,-0.8937,-0.8937,-0.8937,-0.8937,-0.8937,-0.8937,-0.8937,-0.8937,-0.8937,-0.8937,-0.8937,-0.8937,-0.8937,-0.8937,-0.8937,-0.8937,-0.8937,-0.8937,-0.8937,-0.8937,-0.8937,-0.8937,-0.8937,-0.8937,-0.8937,-0.8937,-0.8937,-0.8937,-0.8937,-0.8937,-0.8937,-0.8937,-0.8937,-0.8937,-0.8937,-0.8937,-0.8937,-0.8937,-0.8937,-0.8937,-0.8937,-0.8937,-0.8937,-0.8937,-0.8937,-0.8937,-0.8937,-0.8937,-0.8937,-0.8937,-0.8937,-0.8937,-0.8937,-0.8923,-0.8804,-0.871,-0.8645,-0.856,-0.8384,-1.798,-1.718,-1.5794,-1.4985,-1.4587,-1.4345,-1.4335,-1.4603,-1.5124,-1.5558,-1.5785,-1.5825,-1.5825,-1.5825,-1.5825,-1.5832,-1.5852,-1.6092,-1.6286,-1.656,-1.6827,-1.7161,-1.7395,-1.7502,-1.7589,-1.7589,-1.7589,-1.7589,-1.7589,-1.7589,-1.7589,-1.7477,-1.7041,-1.6717,-1.7041,-1.6717,-1.5423,-1.4019,-1.3048,-1.1538,-0.9915,-0.9699,-0.9482,-0.8937,-0.8937,-0.8937,-0.8937,-0.8937,-0.8937,-0.8937,-0.8937,-0.8937,-0.8937,-0.8937,-0.8937,-0.8937,-0.8937,-0.8937,-0.8937,-0.8937,-0.8937,-0.8937,-0.8937,-0.8937,-0.8937,-0.8937,-0.8937,-0.8937,-0.8937,-0.8937,-0.8937,-0.8937,-0.8937,-0.8937,-0.8937,-0.8937,-0.8937,-0.8937,-0.8937,-0.8937,-0.8937,-0.8937,-0.8937,-0.8937,-0.8937,-0.8937,-0.8937,-0.8937,-0.8937,-0.8937,-0.8937,-0.8937,-0.8937,-0.8937,-0.8937,-0.8937,-0.8937,-0.8937,-0.8937,-0.8937,-0.8937,-0.8937,-0.8937,-0.8937,-0.8937,-0.8937,-0.8937,-0.8937,-0.8937,-0.8896,-0.8811,-0.875,-0.8716,-0.8621,-0.8472,-1.7423,-1.6601,-1.522,-1.4412,-1.4173,-1.4088,-1.4255,-1.4569,-1.4933,-1.5312,-1.5651,-1.5765,-1.5825,-1.5825,-1.5825,-1.5825,-1.5852,-1.6012,-1.6393,-1.6673,-1.6881,-1.7188,-1.7442,-1.7589,-1.7589,-1.7589,-1.7589,-1.7589,-1.7589,-1.7589,-1.7589,-1.7364,-1.6605,-1.6605,-1.6393,-1.5316,-1.4019,-1.2724,-1.1647,-1.0676,-0.9482,-0.9047,-0.8937,-0.8937,-0.8937,-0.8937,-0.8937,-0.8937,-0.8937,-0.8937,-0.8937,-0.8937,-0.8937,-0.8937,-0.8937,-0.8937,-0.8937,-0.8937,-0.8937,-0.8937,-0.8937,-0.8937,-0.8937,-0.8937,-0.8937,-0.8937,-0.8937,-0.8937,-0.8937,-0.8937,-0.8937,-0.8937,-0.8937,-0.8937,-0.8937,-0.8937,-0.8937,-0.8937,-0.8937,-0.8937,-0.8937,-0.8937,-0.8937,-0.8937,-0.8937,-0.8937,-0.8937,-0.8937,-0.8937,-0.8937,-0.8937,-0.8937,-0.8937,-0.8937,-0.8937,-0.8937,-0.8937,-0.8937,-0.8937,-0.8937,-0.8937,-0.8937,-0.8937,-0.8937,-0.8937,-0.8937,-0.8937,-0.8937,-0.8937,-0.8923,-0.8876,-0.8825,-0.8791,-0.8706,-0.8601,-1.7641,-1.5861,-1.5621,-1.497,-1.4173,-1.4088,-1.4255,-1.4529,-1.4625,-1.5013,-1.5424,-1.5698,-1.5798,-1.5818,-1.5825,-1.5825,-1.5899,-1.5919,-1.6279,-1.664,-1.6894,-1.7215,-1.7455,-1.7589,-1.7589,-1.7589,-1.7589,-1.7589,-1.7589,-1.7589,-1.7589,-1.7477,-1.7041,-1.6499,-1.553,-1.4019,-1.2729,-1.1647,-1.0891,-1.0025,-0.9158,-0.8937,-0.8937,-0.8937,-0.8937,-0.8937,-0.8937,-0.8937,-0.8937,-0.8937,-0.8937,-0.8937,-0.8937,-0.8937,-0.8937,-0.8937,-0.8937,-0.8937,-0.8937,-0.8937,-0.8937,-0.8937,-0.8937,-0.8937,-0.8937,-0.8937,-0.8937,-0.8937,-0.8937,-0.8937,-0.8937,-0.8937,-0.8937,-0.8937,-0.8937,-0.8937,-0.8937,-0.8937,-0.8937,-0.8937,-0.8937,-0.8937,-0.8937,-0.8937,-0.8937,-0.8937,-0.8937,-0.8937,-0.8937,-0.8937,-0.8937,-0.8937,-0.8937,-0.8937,-0.8937,-0.8937,-0.8937,-0.8937,-0.8937,-0.8937,-0.8937,-0.8937,-0.8937,-0.8937,-0.8937,-0.8937,-0.8937,-0.8937,-0.8937,-0.8916,-0.8899,-0.8896,-0.8862,-0.8879,-0.8808,-1.6048,-1.5613,-1.4894,-1.4412,-1.4166,-1.4088,-1.4255,-1.4516,-1.4629,-1.4917,-1.5404,-1.569,-1.5765,-1.5818,-1.5825,-1.5825,-1.5985,-1.6226,-1.6486,-1.6747,-1.6954,-1.7328,-1.7502,-1.7528,-1.7569,-1.7569,-1.7562,-1.7549,-1.7575,-1.7575,-1.7582,-1.7582,-1.6817,-1.6056,-1.4753,-1.3043,-1.1969,-1.1,-1.0241,-0.9482,-0.9047,-0.8937,-0.8937,-0.8937,-0.8937,-0.8937,-0.8937,-0.8937,-0.8937,-0.8937,-0.8937,-0.8937,-0.8937,-0.8937,-0.8937,-0.8937,-0.8937,-0.8937,-0.8937,-0.8937,-0.8937,-0.8937,-0.8937,-0.8937,-0.8937,-0.8937,-0.8937,-0.8937,-0.8937,-0.8937,-0.8937,-0.8937,-0.8937,-0.8937,-0.8937,-0.8937,-0.8937,-0.8937,-0.8937,-0.8937,-0.8937,-0.8937,-0.8937,-0.8937,-0.8937,-0.8937,-0.8937,-0.8937,-0.8937,-0.8937,-0.8937,-0.8937,-0.8937,-0.8937,-0.8937,-0.8937,-0.8937,-0.8937,-0.8937,-0.8937,-0.8937,-0.8937,-0.8937,-0.8937,-0.8937,-0.8937,-0.8937,-0.8937,-0.8937,-0.8937,-0.8927,-0.8933,-0.8937,-0.8937,-0.8937,-1.4983,-1.4607,-1.4186,-1.3975,-1.4075,-1.4088,-1.4195,-1.4349,-1.4462,-1.479,-1.5217,-1.5667,-1.5778,-1.5798,-1.5825,-1.5832,-1.5865,-1.6079,-1.6333,-1.658,-1.6947,-1.7034,-1.7168,-1.7255,-1.7427,-1.7495,-1.7472,-1.7486,-1.7546,-1.7535,-1.7562,-1.7408,-1.6405,-1.587,-1.4993,-1.3842,-1.2398,-1.1105,-0.9915,-0.9154,-0.8937,-0.8937,-0.8937,-0.8937,-0.8937,-0.8937,-0.8937,-0.8937,-0.8937,-0.8937,-0.8937,-0.8937,-0.8937,-0.8937,-0.8937,-0.8937,-0.8937,-0.8937,-0.8937,-0.8937,-0.8937,-0.8937,-0.8937,-0.8937,-0.8937,-0.8937,-0.8937,-0.8937,-0.8937,-0.8937,-0.8937,-0.8937,-0.8937,-0.8937,-0.8937,-0.8937,-0.8937,-0.8937,-0.8937,-0.8937,-0.8937,-0.8937,-0.8937,-0.8937,-0.8937,-0.8937,-0.8937,-0.8937,-0.8937,-0.8937,-0.8937,-0.8937,-0.8937,-0.8937,-0.8937,-0.8937,-0.8937,-0.8937,-0.8937,-0.8937,-0.8937,-0.8937,-0.8937,-0.8937,-0.8937,-0.8937,-0.8937,-0.8937,-0.8937,-0.8937,-0.8937,-0.8937,-0.8937,-0.8937,-0.8937,-1.4102,-1.3333,-1.3494,-1.3774,-1.4028,-1.4035,-1.4055,-1.4108,-1.4157,-1.4447,-1.504,-1.5545,-1.5803,-1.5705,-1.5785,-1.5825,-1.5872,-1.6005,-1.6192,-1.6293,-1.6513,-1.668,-1.6787,-1.6734,-1.6988,-1.7218,-1.7279,-1.7224,-1.7414,-1.7371,-1.7255,-1.7134,-1.7204,-1.6671,-1.5475,-1.4844,-1.3614,-1.2019,-1.0369,-0.9219,-0.8927,-0.8937,-0.8937,-0.8937,-0.8937,-0.8937,-0.8937,-0.8937,-0.8937,-0.8937,-0.8937,-0.8937,-0.8937,-0.8937,-0.8937,-0.8937,-0.8937,-0.8937,-0.8937,-0.8937,-0.8937,-0.8937,-0.8937,-0.8937,-0.8937,-0.8937,-0.8937,-0.8937,-0.8937,-0.8937,-0.8937,-0.8937,-0.8937,-0.8937,-0.8937,-0.8937,-0.8937,-0.8937,-0.8937,-0.8937,-0.8937,-0.8937,-0.8937,-0.8937,-0.8937,-0.8937,-0.8937,-0.8937,-0.8937,-0.8937,-0.8937,-0.8937,-0.8937,-0.8937,-0.8937,-0.8937,-0.8937,-0.8937,-0.8937,-0.8937,-0.8937,-0.8937,-0.8937,-0.8937,-0.8937,-0.8937,-0.8937,-0.8937,-0.8937,-0.8937,-0.8937,-0.8937,-0.8937,-0.8937,-0.8937,-1.3304,-1.3213,-1.328,-1.348,-1.3728,-1.3748,-1.3888,-1.4088,-1.4064,-1.4263,-1.4744,-1.5342,-1.5657,-1.5524,-1.5718,-1.5792,-1.5858,-1.5979,-1.6179,-1.6306,-1.6406,-1.644,-1.6647,-1.6593,-1.6753,-1.672,-1.6774,-1.6928,-1.7002,-1.6934,-1.6921,-1.6834,-1.6961,-1.6508,-1.6106,-1.5499,-1.4292,-1.3169,-1.1584,-1.0008,-0.9123,-0.893,-0.8937,-0.8937,-0.8937,-0.8937,-0.8937,-0.8937,-0.8937,-0.8937,-0.8937,-0.8937,-0.8937,-0.8937,-0.8937,-0.8937,-0.8937,-0.8937,-0.8937,-0.8937,-0.8937,-0.8937,-0.8937,-0.8937,-0.8937,-0.8937,-0.8937,-0.8937,-0.8937,-0.8937,-0.8937,-0.8937,-0.8937,-0.8937,-0.8937,-0.8937,-0.8937,-0.8937,-0.8937,-0.8937,-0.8937,-0.8937,-0.8937,-0.8937,-0.8937,-0.8937,-0.8937,-0.8937,-0.8937,-0.8937,-0.8937,-0.8937,-0.8937,-0.8937,-0.8937,-0.8937,-0.8937,-0.8937,-0.8937,-0.8937,-0.8937,-0.8937,-0.8937,-0.8937,-0.8937,-0.8937,-0.8937,-0.8937,-0.8937,-0.8937,-0.8937,-0.8937,-0.8937,-0.8937,-0.8937,-1.2652,-1.2819,-1.2953,-1.3253,-1.3601,-1.3647,-1.3808,-1.4055,-1.4088,-1.4175,-1.4355,-1.4838,-1.5183,-1.5331,-1.5571,-1.5738,-1.5818,-1.5985,-1.6019,-1.6126,-1.6239,-1.6239,-1.6319,-1.6353,-1.6273,-1.6208,-1.648,-1.6659,-1.6633,-1.67,-1.6707,-1.6573,-1.658,-1.662,-1.6467,-1.5682,-1.5034,-1.4468,-1.2936,-1.1433,-0.9911,-0.9318,-0.893,-0.8937,-0.8937,-0.8937,-0.8937,-0.8937,-0.8937,-0.8937,-0.8937,-0.8937,-0.8937,-0.8937,-0.8937,-0.8937,-0.8937,-0.8937,-0.8937,-0.8937,-0.8937,-0.8937,-0.8937,-0.8937,-0.8937,-0.8937,-0.8937,-0.8937,-0.8937,-0.8937,-0.8937,-0.8937,-0.8937,-0.8937,-0.8937,-0.8937,-0.8937,-0.8937,-0.8937,-0.8937,-0.8937,-0.8937,-0.8937,-0.8937,-0.8937,-0.8937,-0.8937,-0.8937,-0.8937,-0.8937,-0.8937,-0.8937,-0.8937,-0.8937,-0.8937,-0.8937,-0.8937,-0.8937,-0.8937,-0.8937,-0.8937,-0.8937,-0.8937,-0.8937,-0.8937,-0.8937,-0.8937,-0.8937,-0.8937,-0.8937,-0.8937,-0.8937,-0.8937,-0.893,-0.8899,-1.2318,-1.2345,-1.2585,-1.3033,-1.354,-1.3587,-1.3774,-1.4055,-1.4088,-1.4088,-1.4135,-1.417,-1.4599,-1.5026,-1.5404,-1.5578,-1.5732,-1.5858,-1.5858,-1.5858,-1.5879,-1.5972,-1.5959,-1.5885,-1.5932,-1.5999,-1.6132,-1.6326,-1.648,-1.6466,-1.6386,-1.6299,-1.6359,-1.6466,-1.6366,-1.6308,-1.5899,-1.4983,-1.3858,-1.3096,-1.1525,-0.9794,-0.9322,-0.9027,-0.8937,-0.8937,-0.8937,-0.8937,-0.8937,-0.8937,-0.8937,-0.8937,-0.8937,-0.8937,-0.8937,-0.8937,-0.8937,-0.8937,-0.8937,-0.8937,-0.8937,-0.8937,-0.8937,-0.8937,-0.8937,-0.8937,-0.8937,-0.8937,-0.8937,-0.8937,-0.8937,-0.8937,-0.8937,-0.8937,-0.8937,-0.8937,-0.8937,-0.8937,-0.8937,-0.8937,-0.8937,-0.8937,-0.8937,-0.8937,-0.8937,-0.8937,-0.8937,-0.8937,-0.8937,-0.8937,-0.8937,-0.8937,-0.8937,-0.8937,-0.8937,-0.8937,-0.8937,-0.8937,-0.8937,-0.8937,-0.8937,-0.8937,-0.8937,-0.8937,-0.8937,-0.8937,-0.8937,-0.8937,-0.8937,-0.8937,-0.8937,-0.8937,-0.8937,-0.892,-0.8852,-1.2305,-1.2311,-1.2365,-1.2739,-1.3247,-1.33,-1.3594,-1.4035,-1.4088,-1.4088,-1.4102,-1.4135,-1.4376,-1.4716,-1.5217,-1.5484,-1.5611,-1.5738,-1.5812,-1.5832,-1.5825,-1.5825,-1.5825,-1.5825,-1.5825,-1.5872,-1.5919,-1.5952,-1.6159,-1.6092,-1.5999,-1.5965,-1.5952,-1.5999,-1.5979,-1.5943,-1.5899,-1.5253,-1.4708,-1.3869,-1.3296,-1.1737,-0.9895,-0.9315,-0.8937,-0.8937,-0.8937,-0.8937,-0.8937,-0.8937,-0.8937,-0.8937,-0.8937,-0.8937,-0.8937,-0.8937,-0.8937,-0.8937,-0.8937,-0.8937,-0.8937,-0.8937,-0.8937,-0.8937,-0.8937,-0.8937,-0.8937,-0.8937,-0.8937,-0.8937,-0.8937,-0.8937,-0.8937,-0.8937,-0.8937,-0.8937,-0.8937,-0.8937,-0.8937,-0.8937,-0.8937,-0.8937,-0.8937,-0.8937,-0.8937,-0.8937,-0.8937,-0.8937,-0.8937,-0.8937,-0.8937,-0.8937,-0.8937,-0.8937,-0.8937,-0.8937,-0.8937,-0.8937,-0.8937,-0.8937,-0.8937,-0.8937,-0.8937,-0.8937,-0.8937,-0.8937,-0.8937,-0.8937,-0.8937,-0.8937,-0.8937,-0.8937,-0.8937,-0.8889,-0.8804]},{"header":{"parameterUnit":"m.s-1","parameterCategory":1,"la1":31.0,"la2":29.5877,"lo1":-88.7671,"lo2":-86.6584,"dy":0.0162,"dx":0.0185,"nx":115,"ny":88,"refTime":"2023-08-04T18:00:00:Z","depth":0,"parameterNumber":3,"parameterNumberName":"V-component_of_WINDS"},"data":[0.0,0.0,0.0,0.0,0.0,0.0,0.0,0.0,0.0,0.0,0.0,0.0,0.0,0.0,0.0,0.0,0.0,0.0,0.0,0.0,0.0,0.0,0.0,0.0,0.0,0.0,0.0,0.0,0.0,0.0,0.0,0.0,0.0,0.0,0.0,0.0,0.0,0.0,0.0,0.0,0.0,0.0,0.0,0.0,0.0,0.0,0.0,0.0,0.0,0.0,0.0,0.0,0.0,0.0,0.0,0.0,0.0,0.0,0.0,0.0,0.0,0.0,0.0,0.0,0.0,0.0,0.0,0.0,0.0,0.0,0.0,0.0,0.0,0.0,0.0,0.0,0.0,0.0,0.0,0.0,0.0,0.0,0.0,0.0,0.0,0.0,0.0,0.0,0.0,0.0,0.0,0.0,0.0,0.0,0.0,0.0,0.0,0.0,0.0,0.0,0.0,0.0,0.0,0.0,0.0,0.0,0.0,0.0,0.0,0.0,0.0,0.0,0.0,0.0,0.0,0.0,0.0,0.0,0.0,0.0,0.0,0.0,0.0,0.0,0.0,0.0,0.0,0.0,0.0,0.0,0.0,0.0,0.0,0.0,0.0,0.0,0.0,0.0,0.0,0.0,0.0,0.0,0.0,0.0,0.0,0.0,0.0,0.0,0.0,0.0,0.0,0.0,0.0,0.0,0.0,0.0,0.0,0.0,0.0,0.0,0.0,0.0,0.0,0.0,0.0,0.0,0.0,0.0,0.0,0.0,0.0,0.0,0.0,0.0,0.0,0.0,0.0,0.0,0.0,0.0,0.0,0.0,0.0,0.0,0.0,0.0,0.0,0.0,0.0,0.0,0.0,0.0,0.0,0.0,0.0,0.0,0.0,0.0,0.0,0.0,0.0,0.0,0.0,0.0,0.0,0.0,0.0,0.0,0.0,0.0,0.0,0.0,0.0,0.0,0.0,0.0,0.0,0.0,0.0,0.0,0.0,0.0,0.0,0.0,0.0,0.0,0.0,0.0,0.0,0.0,0.0,0.0,0.0,0.0,0.0,0.0,0.0,0.0,0.0,0.0,0.0,0.0,0.0,0.0,0.0,0.0,0.0,0.0,0.0,0.0,0.0,0.0,0.0,0.0,0.0,0.0,0.0,0.0,0.0,0.0,0.0,0.0,0.0,0.0,0.0,0.0,0.0,0.0,0.0,0.0,0.0,0.0,0.0,0.0,0.0,0.0,0.0,0.0,0.0,0.0,0.0,0.0,0.0,0.0,0.0,0.0,0.0,0.0,0.0,0.0,0.0,0.0,0.0,0.0,0.0,0.0,0.0,0.0,0.0,0.0,0.0,0.0,0.0,0.0,0.0,0.0,0.0,0.0,0.0,0.0,0.0,0.0,0.0,0.0,0.0,0.0,0.0,0.0,0.0,0.0,0.0,0.0,0.0,0.0,0.0,0.0,0.0,0.0,0.0,0.0,0.0,0.0,0.0,0.0,0.0,0.0,0.0,0.0,0.0,0.0,0.0,0.0,0.0,0.0,0.0,0.0,0.0,0.0,0.0,0.0,0.0,0.0,0.0,0.0,0.0,0.0,0.0,0.0,0.0,0.0,0.0,0.0,0.0,0.0,0.0,0.0,0.0,0.0,0.0,0.0,0.0,0.0,0.0,0.0,0.0,0.0,0.0,0.0,0.0,0.0,0.0,0.0,0.0,0.0,0.0,0.0,0.0,0.0,0.0,0.0,0.0,0.0,0.0,0.0,0.0,0.0,0.0,0.0,0.0,0.0,0.0,0.0,0.0,0.0,0.0,0.0,0.0,0.0,0.0,0.0,0.0,0.0,0.0,0.0,0.0,0.0,0.0,0.0,0.0,0.0,0.0,0.0,0.0,0.0,0.0,0.0,0.0,0.0,0.0,0.0,0.0,0.0,0.0,0.0,0.0,0.0,0.0,0.0,0.0,0.0,0.0,0.0,0.0,0.0,0.0,0.0,0.0,0.0,0.0,0.0,0.0,0.0,0.0,0.0,0.0,0.0,0.0,0.0,0.0,0.0,0.0,0.0,0.0,0.0,0.0,0.0,0.0,0.0,0.0,0.0,0.0,0.0,0.0,0.0,0.0,0.0,0.0,0.0,0.0,0.0,0.0,0.0,0.0,0.0,0.0,0.0,0.0,0.0,0.0,0.0,0.0,0.0,0.0,0.0,0.0,0.0,0.0,0.0,0.0,0.0,0.0,0.0,0.0,0.0,0.0,0.0,0.0,0.0,0.0,0.0,0.0,0.0,0.0,0.0,0.0,0.0,0.0,0.0,0.0,0.0,0.0,0.0,0.0,0.0,0.0,0.0,0.0,0.0,0.0,0.0,0.0,0.0,0.0,0.0,0.0,0.0,0.0,0.0,0.0,0.0,0.0,0.0,0.0,0.0,0.0,0.0,0.0,0.0,0.0,0.0,0.0,0.0,0.0,0.0,0.0,0.0,0.0,0.0,0.0,0.0,0.0,0.0,0.0,0.0,0.0,0.0,0.0,0.0,0.0,0.0,0.0,0.0,0.0,0.0,0.0,0.0,0.0,0.0,0.0,0.0,0.0,0.0,0.0,0.0,0.0,0.0,0.0,0.0,0.0,0.0,0.0,0.0,0.0,0.0,0.0,0.0,0.0,0.0,0.0,0.0,0.0,0.0,0.0,0.0,0.0,0.0,0.0,0.0,0.0,0.0,0.0,0.0,0.0,0.0,0.0,0.0,0.0,0.0,0.0,0.0,0.0,0.0,0.0,0.0,0.0,0.0,0.0,0.0,0.0,0.0,0.0,0.0,0.0,0.0,0.0,0.0,0.0,0.0,0.0,0.0,0.0,0.0,0.0,0.0,0.0,0.0,0.0,0.0,0.0,0.0,0.0,0.0,0.0,0.0,0.0,0.0,0.0,0.0,0.0,0.0,0.0,0.0,0.0,0.0,0.0,0.0,0.0,0.0,0.0,0.0,0.0,0.0,0.0,0.0,0.0,0.0,0.0,0.0,0.0,0.0,0.0,0.0,0.0,0.0,0.0,0.0,0.0,0.0,0.0,0.0,0.0,0.0,0.0,0.0,0.0,0.0,0.0,0.0,0.0,0.0,0.0,0.0,0.0,0.0,0.0,0.0,0.0,0.0,0.0,0.0,0.0,0.0,0.0,0.0,0.0,0.0,0.0,0.0,0.0,0.0,0.0,0.0,0.0,0.0,0.0,0.0,0.0,0.0,0.0,0.0,0.0,0.0,0.0,0.0,0.0,0.0,0.0,0.0,0.0,0.0,0.0,0.0,0.0,0.0,0.0,0.0,0.0,0.0,0.0,0.0,0.0,0.0,0.0,0.0,0.0,0.0,0.0,0.0,0.0,0.0,0.0,0.0,0.0,0.0,0.0,0.0,0.0,0.0,0.0,0.0,0.0,0.0,0.0,0.0,0.0,0.0,0.0,0.0,0.0,0.0,0.0,0.0,0.0,0.0,0.0,0.0,0.0,0.0,0.0,0.0,0.0,0.0,0.0,0.0,0.0,0.0,0.0,0.0,0.0,0.0,0.0,0.0,0.0,0.0,0.0,0.0,0.0,0.0,0.0,0.0,0.0,0.0,0.0,0.0,0.0,0.0,0.0,0.0,0.0,0.0,0.0,0.0,0.0,0.0,0.0,0.0,0.0,0.0,0.0,0.0,0.0,0.0,0.0,0.0,0.0,0.0,0.0,0.0,0.0,0.0,0.0,0.0,0.0,0.0,0.0,0.0,0.0,0.0,0.0,0.0,0.0,0.0,0.0,0.0,0.0,0.0,0.0,0.0,0.0,0.0,0.0,0.0,0.0,0.0,0.0,0.0,0.0,0.0,0.0,0.0,0.0,0.0,0.0,0.0,0.0,0.0,0.0,0.0,0.0,0.0,0.0,0.0,0.0,0.0,0.0,0.0,0.0,0.0,0.0,0.0,0.0,0.0,0.0,0.0,0.0,0.0,0.0,0.0,0.0,0.0,0.0,0.0,0.0,0.0,0.0,0.0,0.0,0.0,0.0,0.0,0.0,0.0,0.0,0.0,0.0,0.0,0.0,0.0,0.0,0.0,0.0,0.0,0.0,0.0,0.0,0.0,0.0,0.0,0.0,0.0,0.0,0.0,0.0,0.0,0.0,0.0,0.0,0.0,0.0,0.0,0.0,0.0,0.0,0.0,0.0,0.0,0.0,0.0,0.0,0.0,0.0,0.0,0.0,0.0,0.0,0.0,0.0,0.0,0.0,0.0,0.0,0.0,0.0,0.0,0.0,0.0,-2.9319,0.0,0.0,0.0,0.0,0.0,0.0,0.0,0.0,0.0,0.0,0.0,0.0,0.0,0.0,0.0,0.0,0.0,0.0,0.0,0.0,0.0,0.0,0.0,0.0,0.0,0.0,0.0,0.0,0.0,0.0,0.0,0.0,0.0,0.0,0.0,0.0,0.0,0.0,0.0,0.0,0.0,0.0,0.0,0.0,0.0,0.0,0.0,0.0,0.0,0.0,0.0,0.0,0.0,0.0,0.0,0.0,0.0,0.0,0.0,0.0,0.0,0.0,0.0,0.0,0.0,0.0,0.0,0.0,0.0,0.0,0.0,0.0,0.0,0.0,0.0,0.0,0.0,0.0,0.0,0.0,0.0,0.0,0.0,0.0,0.0,0.0,0.0,0.0,0.0,0.0,0.0,0.0,0.0,0.0,0.0,0.0,0.0,0.0,0.0,0.0,0.0,0.0,0.0,0.0,0.0,0.0,0.0,0.0,0.0,0.0,-3.3354,-3.3001,-3.17,-3.0516,-2.9493,0.0,0.0,0.0,0.0,0.0,0.0,0.0,0.0,0.0,0.0,0.0,0.0,0.0,0.0,0.0,0.0,0.0,0.0,0.0,0.0,0.0,0.0,0.0,0.0,0.0,0.0,0.0,0.0,0.0,0.0,0.0,0.0,0.0,0.0,0.0,0.0,0.0,0.0,0.0,0.0,0.0,0.0,0.0,0.0,0.0,0.0,0.0,0.0,0.0,0.0,0.0,0.0,0.0,0.0,0.0,0.0,0.0,0.0,0.0,0.0,0.0,0.0,0.0,0.0,0.0,0.0,0.0,0.0,0.0,0.0,0.0,0.0,0.0,0.0,0.0,0.0,0.0,0.0,0.0,0.0,0.0,0.0,0.0,0.0,0.0,0.0,0.0,0.0,0.0,0.0,0.0,0.0,0.0,0.0,0.0,0.0,0.0,0.0,0.0,0.0,0.0,0.0,0.0,0.0,0.0,0.0,0.0,0.0,0.0,0.0,0.0,0.0,-3.1612,-3.0311,-2.9139,0.0,0.0,0.0,0.0,0.0,0.0,0.0,0.0,0.0,0.0,0.0,0.0,0.0,0.0,0.0,0.0,0.0,0.0,0.0,0.0,0.0,0.0,0.0,0.0,0.0,0.0,0.0,0.0,0.0,0.0,0.0,0.0,0.0,0.0,0.0,0.0,0.0,0.0,0.0,0.0,0.0,0.0,0.0,0.0,0.0,0.0,0.0,0.0,0.0,0.0,0.0,0.0,0.0,0.0,0.0,0.0,0.0,0.0,0.0,0.0,0.0,0.0,0.0,0.0,0.0,0.0,0.0,0.0,0.0,0.0,0.0,0.0,0.0,0.0,0.0,0.0,0.0,0.0,0.0,0.0,0.0,0.0,0.0,0.0,0.0,0.0,0.0,0.0,0.0,0.0,0.0,0.0,0.0,0.0,0.0,0.0,0.0,0.0,0.0,0.0,0.0,0.0,0.0,0.0,0.0,0.0,0.0,0.0,0.0,0.0,-3.2532,-3.4233,-3.2437,0.0,-2.8045,0.0,0.0,0.0,0.0,0.0,0.0,0.0,0.0,0.0,0.0,0.0,0.0,0.0,0.0,0.0,0.0,0.0,0.0,0.0,0.0,0.0,0.0,0.0,0.0,0.0,0.0,0.0,0.0,0.0,0.0,0.0,0.0,0.0,0.0,0.0,0.0,0.0,0.0,0.0,0.0,0.0,0.0,0.0,0.0,0.0,0.0,0.0,0.0,0.0,0.0,0.0,0.0,0.0,0.0,0.0,0.0,0.0,0.0,0.0,0.0,0.0,0.0,0.0,0.0,0.0,0.0,0.0,0.0,0.0,0.0,0.0,0.0,0.0,0.0,0.0,0.0,0.0,0.0,0.0,0.0,0.0,0.0,0.0,0.0,0.0,0.0,0.0,0.0,0.0,0.0,0.0,0.0,0.0,0.0,0.0,0.0,0.0,0.0,0.0,0.0,0.0,0.0,0.0,0.0,0.0,0.0,0.0,0.0,0.0,0.0,-3.2118,-3.3302,-3.1772,-2.9864,0.0,0.0,0.0,0.0,0.0,0.0,0.0,0.0,0.0,0.0,0.0,0.0,0.0,0.0,0.0,0.0,0.0,0.0,0.0,0.0,0.0,0.0,0.0,0.0,0.0,0.0,0.0,0.0,0.0,0.0,0.0,0.0,0.0,0.0,0.0,0.0,0.0,0.0,0.0,0.0,0.0,0.0,0.0,0.0,0.0,0.0,0.0,0.0,0.0,0.0,0.0,0.0,0.0,0.0,0.0,0.0,0.0,0.0,0.0,0.0,0.0,0.0,0.0,0.0,0.0,0.0,0.0,0.0,0.0,0.0,0.0,0.0,0.0,0.0,0.0,0.0,0.0,0.0,0.0,0.0,0.0,0.0,0.0,0.0,0.0,0.0,0.0,0.0,0.0,0.0,0.0,0.0,0.0,0.0,0.0,0.0,0.0,0.0,0.0,0.0,0.0,0.0,0.0,0.0,0.0,0.0,0.0,0.0,0.0,0.0,-3.2083,-3.1839,-3.2437,-3.1749,-3.0148,-2.7664,0.0,0.0,0.0,0.0,0.0,0.0,0.0,0.0,0.0,0.0,0.0,0.0,0.0,0.0,0.0,0.0,0.0,0.0,0.0,0.0,0.0,0.0,0.0,0.0,0.0,0.0,0.0,0.0,0.0,0.0,0.0,0.0,0.0,0.0,0.0,0.0,0.0,0.0,0.0,0.0,0.0,0.0,0.0,0.0,0.0,0.0,0.0,0.0,0.0,0.0,0.0,0.0,0.0,0.0,0.0,0.0,0.0,0.0,0.0,0.0,0.0,0.0,0.0,0.0,0.0,0.0,0.0,0.0,0.0,0.0,0.0,0.0,0.0,0.0,0.0,0.0,0.0,0.0,0.0,0.0,0.0,0.0,0.0,0.0,0.0,0.0,0.0,0.0,0.0,0.0,0.0,0.0,0.0,0.0,0.0,0.0,0.0,0.0,0.0,0.0,0.0,0.0,0.0,0.0,0.0,0.0,0.0,0.0,-3.4177,-3.2482,-3.1869,-3.2527,-3.3051,-3.1539,0.0,0.0,0.0,0.0,0.0,0.0,0.0,0.0,0.0,0.0,0.0,0.0,0.0,0.0,0.0,0.0,0.0,0.0,0.0,0.0,0.0,0.0,0.0,0.0,0.0,0.0,0.0,0.0,0.0,0.0,0.0,0.0,0.0,0.0,0.0,0.0,0.0,0.0,0.0,0.0,0.0,0.0,0.0,0.0,0.0,0.0,0.0,0.0,0.0,0.0,0.0,0.0,0.0,0.0,0.0,0.0,0.0,0.0,0.0,0.0,0.0,0.0,0.0,0.0,0.0,0.0,0.0,0.0,0.0,0.0,0.0,0.0,0.0,0.0,0.0,0.0,0.0,0.0,0.0,0.0,0.0,0.0,0.0,0.0,0.0,0.0,0.0,0.0,0.0,0.0,0.0,0.0,0.0,0.0,0.0,0.0,0.0,0.0,0.0,0.0,0.0,0.0,0.0,0.0,0.0,0.0,0.0,0.0,0.0,-3.2467,-3.2302,-3.2691,-3.3664,-3.2362,-3.0717,0.0,0.0,0.0,0.0,0.0,0.0,0.0,0.0,0.0,0.0,0.0,0.0,0.0,0.0,0.0,0.0,0.0,0.0,0.0,0.0,0.0,0.0,0.0,0.0,0.0,0.0,0.0,0.0,0.0,0.0,0.0,0.0,0.0,0.0,0.0,0.0,0.0,0.0,0.0,0.0,0.0,0.0,0.0,0.0,0.0,0.0,0.0,0.0,0.0,0.0,0.0,0.0,0.0,0.0,0.0,0.0,0.0,0.0,0.0,0.0,0.0,0.0,0.0,0.0,0.0,0.0,0.0,0.0,0.0,0.0,0.0,0.0,0.0,0.0,0.0,0.0,0.0,0.0,0.0,0.0,0.0,0.0,0.0,0.0,0.0,0.0,0.0,0.0,0.0,0.0,0.0,0.0,0.0,0.0,0.0,0.0,0.0,0.0,0.0,0.0,0.0,0.0,0.0,0.0,0.0,0.0,0.0,0.0,0.0,-3.1839,0.0,-3.3619,-3.3739,-3.2093,-3.0357,0.0,0.0,0.0,0.0,0.0,0.0,0.0,0.0,0.0,0.0,0.0,0.0,0.0,0.0,0.0,0.0,0.0,0.0,0.0,0.0,0.0,0.0,0.0,0.0,0.0,0.0,0.0,0.0,0.0,0.0,0.0,0.0,0.0,0.0,0.0,0.0,0.0,0.0,0.0,0.0,0.0,0.0,0.0,0.0,0.0,0.0,0.0,0.0,0.0,0.0,0.0,0.0,0.0,0.0,0.0,0.0,0.0,0.0,0.0,0.0,0.0,0.0,0.0,0.0,0.0,0.0,0.0,0.0,0.0,0.0,0.0,0.0,0.0,0.0,0.0,0.0,0.0,0.0,0.0,0.0,0.0,0.0,0.0,0.0,0.0,0.0,0.0,0.0,0.0,0.0,0.0,0.0,0.0,0.0,0.0,0.0,0.0,0.0,0.0,0.0,0.0,0.0,0.0,0.0,0.0,0.0,0.0,0.0,-3.0612,-3.2467,-3.4397,-3.4502,-3.2662,-3.2527,-3.0672,0.0,0.0,0.0,0.0,0.0,0.0,0.0,0.0,0.0,0.0,0.0,0.0,0.0,0.0,0.0,0.0,0.0,0.0,0.0,0.0,0.0,0.0,0.0,0.0,0.0,0.0,0.0,0.0,0.0,0.0,0.0,0.0,0.0,0.0,0.0,0.0,0.0,0.0,0.0,0.0,0.0,0.0,0.0,0.0,0.0,0.0,0.0,0.0,0.0,0.0,0.0,0.0,0.0,0.0,0.0,0.0,0.0,0.0,0.0,0.0,0.0,0.0,0.0,0.0,0.0,0.0,0.0,0.0,0.0,0.0,0.0,0.0,0.0,0.0,0.0,0.0,0.0,0.0,0.0,0.0,0.0,0.0,0.0,0.0,0.0,0.0,0.0,0.0,0.0,0.0,0.0,0.0,0.0,0.0,0.0,0.0,0.0,0.0,0.0,0.0,0.0,0.0,0.0,0.0,0.0,0.0,0.0,0.0,0.0,-3.1898,-3.3784,-3.4741,-3.4532,-3.323,-3.1719,0.0,0.0,0.0,0.0,0.0,0.0,0.0,0.0,0.0,0.0,0.0,0.0,0.0,0.0,0.0,0.0,0.0,0.0,0.0,0.0,0.0,0.0,0.0,0.0,0.0,0.0,0.0,0.0,0.0,0.0,0.0,0.0,0.0,0.0,0.0,0.0,0.0,0.0,0.0,0.0,0.0,0.0,0.0,0.0,0.0,0.0,0.0,0.0,0.0,0.0,0.0,0.0,0.0,0.0,0.0,0.0,0.0,0.0,0.0,0.0,0.0,0.0,0.0,0.0,0.0,0.0,0.0,0.0,0.0,0.0,0.0,0.0,0.0,0.0,0.0,0.0,0.0,0.0,0.0,0.0,0.0,0.0,0.0,0.0,0.0,0.0,0.0,0.0,0.0,0.0,0.0,0.0,0.0,0.0,0.0,0.0,0.0,0.0,0.0,0.0,0.0,0.0,0.0,0.0,0.0,0.0,0.0,0.0,0.0,-3.2751,-3.4562,-3.5549,-3.5489,-3.3799,-3.2213,-3.0836,0.0,0.0,0.0,0.0,0.0,0.0,0.0,0.0,0.0,0.0,0.0,0.0,0.0,0.0,0.0,0.0,0.0,0.0,0.0,0.0,0.0,0.0,0.0,0.0,0.0,0.0,0.0,0.0,0.0,0.0,0.0,0.0,0.0,0.0,0.0,0.0,0.0,0.0,0.0,0.0,0.0,0.0,0.0,0.0,0.0,0.0,0.0,0.0,0.0,0.0,0.0,0.0,0.0,0.0,0.0,0.0,0.0,0.0,0.0,0.0,0.0,0.0,0.0,0.0,0.0,0.0,0.0,0.0,0.0,0.0,0.0,0.0,0.0,0.0,0.0,0.0,0.0,0.0,0.0,0.0,0.0,0.0,0.0,0.0,0.0,0.0,0.0,0.0,0.0,0.0,0.0,0.0,0.0,0.0,0.0,0.0,0.0,0.0,0.0,0.0,0.0,0.0,0.0,0.0,0.0,0.0,0.0,0.0,-3.4577,-3.6462,-3.6881,-3.5714,-3.4352,-3.2407,0.0,0.0,0.0,0.0,0.0,0.0,0.0,0.0,0.0,0.0,0.0,0.0,0.0,0.0,0.0,0.0,0.0,0.0,0.0,0.0,0.0,0.0,0.0,0.0,0.0,0.0,0.0,0.0,0.0,0.0,0.0,0.0,0.0,0.0,0.0,0.0,0.0,0.0,0.0,0.0,0.0,0.0,0.0,0.0,0.0,0.0,0.0,0.0,0.0,0.0,0.0,0.0,0.0,0.0,0.0,0.0,0.0,0.0,0.0,0.0,0.0,0.0,0.0,0.0,0.0,0.0,0.0,0.0,0.0,0.0,0.0,0.0,0.0,0.0,0.0,0.0,0.0,0.0,0.0,0.0,0.0,0.0,0.0,0.0,0.0,0.0,0.0,0.0,0.0,0.0,0.0,0.0,0.0,0.0,0.0,0.0,0.0,0.0,0.0,0.0,0.0,0.0,0.0,0.0,0.0,0.0,0.0,0.0,0.0,-3.5953,-3.7375,-3.7988,-3.7614,-3.5908,-3.4188,0.0,0.0,0.0,0.0,0.0,0.0,0.0,0.0,0.0,0.0,0.0,0.0,0.0,0.0,0.0,0.0,0.0,0.0,0.0,0.0,0.0,0.0,0.0,0.0,0.0,0.0,0.0,0.0,0.0,0.0,0.0,0.0,0.0,0.0,0.0,0.0,0.0,0.0,0.0,0.0,0.0,0.0,0.0,0.0,0.0,0.0,0.0,0.0,0.0,0.0,0.0,0.0,0.0,0.0,0.0,0.0,0.0,0.0,0.0,0.0,0.0,0.0,0.0,0.0,0.0,0.0,0.0,0.0,0.0,0.0,0.0,0.0,0.0,0.0,0.0,0.0,0.0,0.0,0.0,0.0,0.0,0.0,0.0,0.0,0.0,0.0,0.0,0.0,0.0,0.0,0.0,0.0,0.0,0.0,0.0,0.0,0.0,0.0,0.0,0.0,0.0,0.0,0.0,0.0,0.0,0.0,0.0,0.0,-3.5549,-3.6851,-3.8153,-3.8826,-3.8811,-3.718,-3.5415,0.0,0.0,0.0,0.0,0.0,0.0,0.0,0.0,0.0,0.0,0.0,0.0,0.0,0.0,0.0,0.0,0.0,0.0,0.0,0.0,0.0,0.0,0.0,0.0,0.0,0.0,0.0,0.0,0.0,0.0,0.0,0.0,0.0,0.0,0.0,0.0,0.0,0.0,0.0,0.0,0.0,0.0,0.0,0.0,0.0,0.0,0.0,0.0,0.0,0.0,0.0,0.0,0.0,0.0,0.0,0.0,0.0,0.0,0.0,0.0,0.0,0.0,0.0,0.0,0.0,0.0,0.0,0.0,0.0,0.0,0.0,0.0,0.0,0.0,0.0,0.0,0.0,0.0,0.0,0.0,0.0,0.0,0.0,0.0,0.0,0.0,0.0,0.0,0.0,0.0,0.0,0.0,0.0,0.0,0.0,0.0,0.0,0.0,0.0,0.0,0.0,0.0,0.0,0.0,0.0,0.0,0.0,0.0,-3.6193,-3.7389,-3.8721,-3.9424,-3.9379,-3.8048,-3.6133,0.0,0.0,0.0,0.0,0.0,0.0,0.0,0.0,0.0,0.0,0.0,0.0,0.0,0.0,0.0,0.0,0.0,0.0,0.0,0.0,0.0,0.0,0.0,0.0,0.0,0.0,0.0,0.0,0.0,0.0,0.0,0.0,0.0,0.0,0.0,0.0,0.0,0.0,0.0,0.0,0.0,0.0,0.0,0.0,0.0,0.0,0.0,0.0,0.0,0.0,0.0,0.0,0.0,0.0,0.0,0.0,0.0,0.0,0.0,0.0,0.0,0.0,0.0,0.0,0.0,0.0,0.0,0.0,0.0,0.0,0.0,0.0,0.0,0.0,0.0,0.0,0.0,0.0,0.0,0.0,0.0,0.0,0.0,0.0,0.0,0.0,0.0,0.0,0.0,0.0,0.0,0.0,0.0,0.0,0.0,0.0,0.0,0.0,0.0,0.0,0.0,0.0,0.0,0.0,0.0,0.0,0.0,0.0,-3.6641,-3.7419,-3.8736,-3.9424,-3.9409,-3.7644,-3.5923,0.0,0.0,0.0,0.0,0.0,0.0,0.0,0.0,0.0,0.0,0.0,0.0,0.0,0.0,0.0,0.0,0.0,0.0,0.0,0.0,0.0,0.0,0.0,0.0,0.0,0.0,0.0,0.0,0.0,0.0,0.0,0.0,0.0,0.0,0.0,0.0,0.0,0.0,0.0,0.0,0.0,0.0,0.0,0.0,0.0,0.0,0.0,0.0,-3.6071,0.0,0.0,0.0,0.0,0.0,0.0,0.0,0.0,0.0,0.0,0.0,0.0,0.0,0.0,0.0,0.0,0.0,0.0,0.0,0.0,0.0,0.0,0.0,0.0,0.0,0.0,0.0,0.0,0.0,0.0,0.0,0.0,0.0,0.0,0.0,0.0,0.0,0.0,0.0,0.0,0.0,0.0,0.0,0.0,0.0,0.0,0.0,0.0,0.0,0.0,0.0,0.0,0.0,0.0,0.0,0.0,0.0,0.0,0.0,-3.6477,-3.7404,-3.8407,-3.908,-3.9349,-3.8093,-3.6611,0.0,0.0,0.0,0.0,0.0,0.0,0.0,0.0,0.0,0.0,0.0,0.0,0.0,0.0,0.0,0.0,0.0,0.0,0.0,0.0,0.0,0.0,0.0,0.0,0.0,0.0,0.0,0.0,0.0,0.0,0.0,0.0,0.0,0.0,0.0,0.0,0.0,0.0,0.0,0.0,0.0,0.0,0.0,0.0,0.0,0.0,0.0,0.0,0.0,0.0,0.0,0.0,0.0,0.0,0.0,0.0,0.0,0.0,0.0,0.0,0.0,0.0,0.0,0.0,0.0,0.0,0.0,0.0,0.0,0.0,0.0,0.0,0.0,0.0,0.0,0.0,0.0,0.0,0.0,0.0,0.0,0.0,0.0,0.0,0.0,0.0,0.0,0.0,0.0,0.0,0.0,0.0,0.0,0.0,0.0,0.0,0.0,0.0,0.0,0.0,0.0,0.0,0.0,0.0,0.0,0.0,0.0,-3.4637,-3.6222,-3.7389,-3.8153,-3.8826,-3.9379,-3.8856,-3.7584,-3.5579,0.0,0.0,0.0,0.0,0.0,0.0,0.0,0.0,0.0,0.0,0.0,0.0,0.0,0.0,0.0,0.0,0.0,0.0,0.0,0.0,0.0,0.0,0.0,0.0,0.0,0.0,0.0,0.0,0.0,0.0,0.0,0.0,0.0,0.0,0.0,0.0,0.0,0.0,-3.6096,-3.799,0.0,0.0,0.0,0.0,0.0,0.0,0.0,0.0,-3.7046,0.0,0.0,0.0,0.0,0.0,0.0,0.0,0.0,0.0,0.0,0.0,0.0,0.0,0.0,0.0,0.0,0.0,0.0,0.0,0.0,0.0,0.0,0.0,0.0,0.0,0.0,0.0,0.0,0.0,0.0,0.0,0.0,0.0,0.0,0.0,0.0,0.0,0.0,0.0,0.0,0.0,0.0,0.0,0.0,0.0,0.0,0.0,0.0,0.0,0.0,0.0,0.0,0.0,0.0,0.0,0.0,-3.332,-3.531,-3.6671,-3.7404,-3.8616,-3.9305,-3.9409,-3.9305,-3.8063,-3.5654,0.0,0.0,0.0,0.0,0.0,0.0,0.0,0.0,0.0,0.0,0.0,0.0,0.0,0.0,0.0,0.0,0.0,0.0,0.0,0.0,0.0,0.0,0.0,0.0,0.0,0.0,0.0,0.0,0.0,0.0,0.0,0.0,0.0,0.0,0.0,0.0,0.0,0.0,0.0,-3.9817,-4.0908,0.0,0.0,0.0,0.0,0.0,0.0,0.0,0.0,-3.7524,0.0,0.0,0.0,0.0,0.0,0.0,0.0,0.0,0.0,0.0,0.0,0.0,0.0,0.0,0.0,0.0,0.0,0.0,0.0,0.0,0.0,0.0,0.0,0.0,0.0,0.0,0.0,0.0,0.0,0.0,0.0,0.0,0.0,0.0,0.0,0.0,0.0,0.0,0.0,0.0,0.0,0.0,0.0,0.0,0.0,0.0,0.0,0.0,0.0,0.0,0.0,0.0,0.0,0.0,0.0,-3.2572,-3.5115,-3.6791,-3.7404,-3.8377,-3.9065,-3.9379,-3.8736,-3.7464,0.0,0.0,0.0,0.0,0.0,0.0,0.0,0.0,0.0,0.0,0.0,0.0,0.0,0.0,0.0,0.0,0.0,0.0,0.0,0.0,0.0,0.0,0.0,0.0,0.0,0.0,0.0,0.0,0.0,0.0,0.0,0.0,0.0,0.0,0.0,0.0,0.0,0.0,0.0,0.0,-4.0426,-4.1201,-4.2652,0.0,0.0,0.0,0.0,0.0,0.0,-3.7963,-3.8033,0.0,0.0,0.0,0.0,0.0,0.0,0.0,0.0,0.0,0.0,0.0,0.0,0.0,0.0,0.0,0.0,0.0,0.0,0.0,0.0,0.0,0.0,0.0,0.0,0.0,0.0,0.0,0.0,0.0,0.0,0.0,0.0,0.0,0.0,0.0,0.0,0.0,0.0,0.0,0.0,0.0,0.0,0.0,0.0,0.0,0.0,0.0,0.0,0.0,0.0,0.0,0.0,0.0,0.0,0.0,-3.1854,-3.4876,-3.6791,-3.7404,-3.8182,-3.8871,-3.9379,-3.8257,-3.6941,0.0,0.0,0.0,0.0,0.0,0.0,0.0,0.0,0.0,0.0,0.0,0.0,0.0,0.0,0.0,0.0,0.0,0.0,0.0,0.0,0.0,0.0,0.0,0.0,0.0,0.0,0.0,0.0,0.0,0.0,0.0,0.0,0.0,0.0,0.0,0.0,0.0,0.0,0.0,0.0,0.0,-4.1929,-4.3844,-4.2567,0.0,0.0,0.0,0.0,-3.8472,-3.8616,0.0,0.0,0.0,0.0,0.0,0.0,0.0,0.0,0.0,0.0,0.0,0.0,0.0,0.0,0.0,0.0,0.0,0.0,0.0,0.0,0.0,0.0,0.0,0.0,0.0,0.0,0.0,0.0,0.0,0.0,0.0,0.0,0.0,0.0,0.0,0.0,0.0,0.0,0.0,0.0,0.0,0.0,0.0,0.0,0.0,0.0,0.0,0.0,0.0,0.0,0.0,0.0,0.0,0.0,0.0,0.0,-3.2482,-3.5085,-3.6791,-3.7434,-3.8646,-3.9334,-3.9409,-3.8676,-3.7404,0.0,0.0,0.0,0.0,0.0,0.0,0.0,0.0,0.0,0.0,0.0,0.0,0.0,0.0,0.0,0.0,0.0,0.0,0.0,0.0,0.0,0.0,0.0,0.0,0.0,0.0,0.0,0.0,0.0,0.0,0.0,0.0,0.0,0.0,0.0,0.0,0.0,0.0,0.0,0.0,0.0,-4.4428,-4.2717,-4.2215,-4.1486,0.0,0.0,-3.9062,-3.8482,-3.9379,0.0,0.0,0.0,0.0,0.0,0.0,0.0,0.0,0.0,0.0,0.0,0.0,0.0,0.0,0.0,0.0,0.0,0.0,0.0,0.0,0.0,0.0,0.0,0.0,0.0,0.0,0.0,0.0,0.0,0.0,0.0,0.0,0.0,0.0,0.0,0.0,0.0,0.0,0.0,0.0,0.0,0.0,0.0,0.0,0.0,0.0,0.0,0.0,0.0,0.0,0.0,0.0,0.0,0.0,0.0,-3.2602,-3.2617,-3.5474,-3.7135,-3.7434,-3.8721,-3.9424,-3.9424,-3.8063,-3.6746,0.0,0.0,0.0,0.0,0.0,0.0,0.0,0.0,0.0,0.0,0.0,0.0,0.0,0.0,0.0,0.0,0.0,0.0,0.0,0.0,0.0,0.0,0.0,0.0,0.0,0.0,0.0,0.0,0.0,0.0,0.0,0.0,0.0,0.0,0.0,0.0,0.0,0.0,0.0,0.0,0.0,0.0,-4.3416,-4.2632,0.0,0.0,0.0,-3.9439,-3.9529,0.0,0.0,0.0,0.0,0.0,0.0,0.0,0.0,0.0,0.0,0.0,0.0,0.0,0.0,0.0,0.0,0.0,0.0,0.0,0.0,0.0,0.0,0.0,0.0,0.0,0.0,0.0,0.0,0.0,0.0,0.0,0.0,0.0,0.0,0.0,0.0,0.0,0.0,0.0,0.0,0.0,0.0,0.0,0.0,0.0,0.0,0.0,0.0,0.0,0.0,0.0,0.0,0.0,0.0,0.0,0.0,0.0,-3.2826,-3.5818,-3.7404,-3.7434,-3.8721,-3.9424,-3.9394,-3.7674,0.0,0.0,0.0,0.0,0.0,0.0,0.0,0.0,0.0,0.0,0.0,0.0,0.0,0.0,0.0,0.0,0.0,0.0,0.0,0.0,0.0,0.0,0.0,0.0,0.0,0.0,0.0,-3.3677,0.0,0.0,0.0,0.0,0.0,0.0,0.0,0.0,0.0,0.0,0.0,0.0,0.0,0.0,-4.3654,-4.4268,-4.3342,-4.2762,0.0,0.0,-3.9843,-4.0322,-4.0412,-4.0187,0.0,0.0,0.0,0.0,0.0,0.0,0.0,0.0,0.0,0.0,0.0,0.0,0.0,0.0,0.0,0.0,0.0,0.0,0.0,0.0,0.0,0.0,0.0,0.0,0.0,0.0,0.0,0.0,0.0,0.0,0.0,0.0,0.0,0.0,0.0,0.0,0.0,0.0,0.0,0.0,0.0,0.0,0.0,0.0,0.0,0.0,0.0,0.0,0.0,0.0,0.0,0.0,0.0,0.0,0.0,-3.3499,-3.6058,-3.7404,-3.7434,-3.8736,-3.9424,-3.9394,-3.8078,-3.6761,0.0,0.0,0.0,0.0,0.0,0.0,0.0,0.0,0.0,0.0,0.0,0.0,0.0,0.0,0.0,0.0,0.0,0.0,0.0,0.0,0.0,0.0,0.0,0.0,0.0,0.0,0.0,0.0,0.0,0.0,0.0,0.0,0.0,0.0,0.0,0.0,0.0,0.0,0.0,0.0,0.0,-4.6024,-4.475,-4.4273,-4.4048,0.0,0.0,-4.0337,-4.0382,-4.0412,-4.0172,-3.9529,0.0,0.0,0.0,0.0,0.0,0.0,0.0,0.0,0.0,0.0,0.0,0.0,0.0,0.0,0.0,0.0,0.0,0.0,0.0,0.0,0.0,0.0,0.0,0.0,0.0,0.0,0.0,0.0,0.0,0.0,0.0,0.0,0.0,0.0,0.0,0.0,0.0,0.0,0.0,0.0,0.0,0.0,0.0,0.0,0.0,0.0,0.0,0.0,0.0,0.0,0.0,0.0,0.0,-3.344,-3.4113,-3.6282,-3.7599,-3.8033,-3.8931,-3.923,-3.8796,-3.8349,-3.7292,0.0,0.0,0.0,0.0,0.0,0.0,0.0,0.0,0.0,0.0,0.0,0.0,0.0,0.0,0.0,0.0,0.0,0.0,0.0,0.0,0.0,0.0,0.0,0.0,0.0,0.0,0.0,0.0,-3.7533,-3.7686,-3.7702,0.0,0.0,0.0,0.0,0.0,0.0,0.0,0.0,0.0,0.0,-4.5715,-4.4564,-4.4743,0.0,0.0,-4.3083,-4.1821,-4.1878,-4.1412,-4.0828,-4.0298,-4.017,0.0,0.0,0.0,0.0,0.0,0.0,0.0,0.0,0.0,0.0,0.0,0.0,0.0,0.0,0.0,0.0,0.0,0.0,0.0,0.0,0.0,0.0,0.0,0.0,0.0,0.0,0.0,0.0,0.0,0.0,0.0,0.0,0.0,0.0,0.0,0.0,0.0,0.0,0.0,0.0,0.0,0.0,0.0,0.0,0.0,0.0,0.0,0.0,0.0,0.0,0.0,0.0,-3.3709,-3.4786,-3.6522,-3.7751,-3.8424,-3.9088,-3.9243,-3.8803,-3.8722,-3.7904,0.0,0.0,0.0,0.0,0.0,0.0,0.0,0.0,0.0,0.0,0.0,0.0,0.0,0.0,0.0,0.0,0.0,0.0,0.0,0.0,0.0,0.0,0.0,0.0,0.0,0.0,0.0,0.0,-3.9123,-3.9073,-3.9292,0.0,0.0,0.0,0.0,0.0,0.0,0.0,0.0,0.0,0.0,-4.569,-4.4826,-4.4991,-4.5159,-4.5206,-4.3844,-4.2864,-4.2833,-4.2525,-4.2063,-4.1497,0.0,0.0,0.0,0.0,0.0,0.0,0.0,0.0,0.0,0.0,0.0,0.0,0.0,0.0,0.0,0.0,0.0,0.0,0.0,0.0,0.0,0.0,0.0,0.0,0.0,0.0,0.0,0.0,0.0,0.0,-3.2494,0.0,0.0,0.0,0.0,0.0,0.0,0.0,0.0,0.0,0.0,0.0,0.0,0.0,0.0,0.0,0.0,0.0,0.0,0.0,0.0,0.0,0.0,-3.3606,-3.5459,-3.6828,-3.7827,-3.8623,-3.9241,-3.9651,-3.9704,-3.9125,-3.8467,-3.7684,0.0,0.0,0.0,0.0,0.0,0.0,0.0,0.0,0.0,0.0,0.0,0.0,0.0,0.0,0.0,0.0,0.0,0.0,0.0,0.0,0.0,0.0,0.0,0.0,0.0,0.0,-4.0121,-3.9462,-3.9276,0.0,0.0,0.0,0.0,0.0,0.0,0.0,0.0,0.0,0.0,-4.5365,-4.6515,-4.573,-4.499,-4.4768,-4.5335,-4.4156,-4.3085,-4.3083,-4.3677,-4.3904,0.0,0.0,0.0,0.0,0.0,0.0,0.0,0.0,0.0,0.0,0.0,0.0,0.0,0.0,0.0,0.0,0.0,0.0,0.0,0.0,0.0,0.0,0.0,0.0,0.0,0.0,0.0,-3.5716,-3.5689,0.0,0.0,0.0,0.0,0.0,0.0,0.0,0.0,0.0,0.0,0.0,-4.0097,-4.1086,0.0,0.0,0.0,0.0,0.0,0.0,0.0,0.0,0.0,0.0,0.0,0.0,-3.6629,-3.7791,-3.9093,-3.9912,-4.0119,-4.0356,-4.0024,-3.9186,-3.937,-3.8818,-3.7331,0.0,0.0,0.0,0.0,0.0,0.0,0.0,0.0,0.0,0.0,0.0,0.0,0.0,0.0,0.0,0.0,0.0,0.0,0.0,0.0,0.0,0.0,0.0,0.0,0.0,-4.1559,0.0,0.0,0.0,0.0,0.0,0.0,0.0,0.0,0.0,0.0,0.0,-4.4671,-4.4908,-4.6007,-4.6532,-4.5805,-4.5858,-4.6294,0.0,0.0,0.0,0.0,0.0,0.0,0.0,0.0,0.0,0.0,0.0,0.0,0.0,0.0,-4.7868,-4.6667,-4.621,-4.6041,-4.6041,0.0,0.0,0.0,0.0,0.0,0.0,0.0,0.0,0.0,0.0,0.0,0.0,0.0,0.0,0.0,0.0,-3.7703,0.0,0.0,0.0,0.0,0.0,0.0,0.0,0.0,-4.2879,-4.331,-4.237,-4.3372,-4.3547,0.0,-4.2128,-4.0796,0.0,0.0,0.0,0.0,0.0,0.0,0.0,0.0,-3.8723,-3.961,-4.0539,-4.097,-4.0913,-4.0958,-4.0415,-3.9291,-3.9743,-3.9249,-3.777,-3.7848,-3.7188,0.0,0.0,0.0,0.0,0.0,0.0,0.0,0.0,0.0,0.0,0.0,0.0,0.0,0.0,0.0,0.0,0.0,0.0,0.0,0.0,0.0,0.0,0.0,-4.3048,0.0,0.0,0.0,0.0,0.0,0.0,0.0,0.0,0.0,-4.4993,-4.5635,-4.6295,-4.6802,-4.7259,-4.731,-4.6583,0.0,0.0,0.0,0.0,0.0,0.0,0.0,-4.6422,-4.7331,-4.7045,-4.7015,-4.7747,-4.8528,-4.8917,-4.8663,0.0,0.0,-4.7733,-4.7361,-4.7259,-4.7513,-4.7361,-4.7259,-4.7513,-4.7547,-4.7411,0.0,0.0,0.0,0.0,0.0,0.0,0.0,0.0,-4.0518,-4.1005,0.0,-4.0779,0.0,0.0,0.0,0.0,0.0,0.0,0.0,0.0,-4.3927,-4.4653,-4.4633,-4.4603,-4.4621,-4.466,-4.4536,-4.4103,-4.3261,-4.0596,0.0,0.0,0.0,0.0,0.0,0.0,-3.979,-4.1048,-4.1144,-4.1112,-4.1074,-4.1042,-4.0757,-4.0104,-4.0087,-3.9749,-3.9089,-3.9715,-3.9123,-3.7009,-3.6907,0.0,0.0,0.0,0.0,0.0,0.0,0.0,0.0,0.0,0.0,0.0,0.0,0.0,0.0,0.0,0.0,0.0,0.0,0.0,0.0,-4.4017,0.0,0.0,0.0,0.0,0.0,0.0,0.0,0.0,0.0,0.0,-4.6007,-4.7648,-4.9001,-4.8968,0.0,0.0,0.0,0.0,-4.6853,-4.6887,-4.8105,-4.8798,-4.8122,-4.9137,-4.9779,-4.9137,0.0,0.0,-4.8173,-4.8595,-4.8832,-4.8122,-4.8595,-4.9018,-4.8968,-4.8392,-4.8173,-4.8781,-4.8392,-4.8223,-4.8798,-4.8781,-4.8409,-3.9502,0.0,0.0,0.0,0.0,-4.1103,-4.2317,-4.4243,-4.401,-4.3928,-4.39,-4.2906,0.0,0.0,0.0,0.0,0.0,0.0,-4.3403,-4.3961,-4.4925,-4.5365,-4.5371,-4.5365,-4.5354,-4.5388,-4.4885,-4.4485,-4.4243,-4.3457,-4.2366,-4.1076,0.0,0.0,0.0,0.0,-4.2322,-4.2739,-4.3272,-4.3053,-4.1946,-4.193,-4.1348,-4.0104,-4.0087,-3.9969,-3.9783,-4.0493,-4.0358,-3.9191,-3.9157,0.0,0.0,0.0,0.0,0.0,0.0,0.0,0.0,0.0,0.0,0.0,0.0,0.0,0.0,0.0,0.0,0.0,0.0,0.0,-4.4642,-4.4906,-4.5535,0.0,0.0,0.0,0.0,0.0,0.0,0.0,0.0,0.0,-4.8866,-4.8917,-4.9018,0.0,0.0,-4.8731,-4.802,-4.7733,-4.7784,-4.8291,0.0,0.0,0.0,-4.9373,-4.9424,-4.9729,-4.9779,-4.9864,-5.0219,-4.9999,-4.9712,-4.9475,-4.9204,-4.9018,-4.9001,-4.8849,-4.8765,-4.8951,-4.8815,-4.8748,-4.8934,-4.8612,-4.8105,-4.116,-4.1087,-4.0339,-4.1024,-4.2583,-4.2921,-4.4158,-4.6057,-4.6016,-4.5979,-4.5838,-4.4774,-4.367,-4.2523,-4.2219,0.0,0.0,0.0,-4.413,-4.4604,-4.5043,-4.5252,-4.5264,-4.5252,-4.5252,-4.523,-4.4795,-4.457,-4.457,-4.457,-4.4113,-4.3217,0.0,0.0,-4.3217,-4.3639,-4.3876,-4.3893,-4.435,-4.3978,-4.276,-4.2168,-4.1288,-4.0138,-4.0087,-4.0087,-4.0087,-4.1375,-4.1563,-4.0612,-4.1052,-4.0861,0.0,0.0,0.0,0.0,0.0,0.0,0.0,0.0,0.0,0.0,0.0,-4.3129,0.0,0.0,0.0,0.0,-4.4662,-4.6006,-4.7381,-4.7546,0.0,0.0,0.0,0.0,0.0,0.0,0.0,-5.0957,-5.1277,-5.1525,-5.1839,-5.0963,-5.0202,-4.9932,-4.9881,-4.961,-4.8883,0.0,-4.8511,-4.8951,-4.9627,-5.0101,-5.0084,-4.9475,-4.8968,-4.8781,-4.8781,-4.9052,-4.9746,-4.9509,-4.9447,-4.9828,-4.971,-4.9479,-4.9797,-4.9838,-4.9639,-4.9107,-4.9018,-4.8917,-4.8646,-4.8413,-4.8097,-4.2645,-4.3306,-4.2504,-4.2678,-4.3515,-4.4235,-4.5374,-4.6769,-4.676,-4.7175,-4.7614,-4.6323,-4.5281,-4.4519,-4.3826,0.0,-4.457,-4.457,-4.457,-4.457,-4.457,-4.457,-4.457,-4.457,-4.457,-4.457,-4.457,-4.457,-4.457,-4.457,-4.457,-4.457,-4.457,-4.457,-4.457,-4.457,-4.457,-4.457,-4.457,-4.4198,-4.342,-4.2033,-4.0933,-4.0206,-4.0206,-4.0239,-4.0255,-4.225,-4.2783,-4.158,-4.2681,-4.2662,-4.1221,0.0,0.0,0.0,0.0,0.0,0.0,0.0,0.0,0.0,0.0,0.0,0.0,0.0,0.0,0.0,-4.6608,0.0,-5.0688,-5.0962,0.0,0.0,0.0,-5.1554,-5.1818,-5.2926,-5.3425,-5.2838,0.0,0.0,-5.4411,0.0,-5.2157,-5.1308,-5.1197,-5.093,-5.0118,-4.9373,-4.9018,-4.9001,-4.9576,-4.9965,-4.9763,-4.9187,-4.8308,-4.7208,-4.6786,-4.7158,-4.787,-4.7988,-4.8489,-4.963,-4.9881,-5.0015,-5.0787,-5.0752,-5.0575,-4.93,-4.9161,-4.9008,-4.8371,-4.8495,-4.839,-4.3486,-4.427,-4.4064,-4.4457,-4.5127,-4.5295,-4.5917,-4.6786,-4.6791,-4.6615,-4.6194,-4.5824,-4.5281,-4.457,-4.4384,-4.4401,-4.457,-4.457,-4.457,-4.457,-4.457,-4.457,-4.457,-4.457,-4.457,-4.457,-4.457,-4.457,-4.457,-4.457,-4.457,-4.457,-4.457,-4.457,-4.457,-4.457,-4.457,-4.457,-4.457,-4.4198,-4.3436,-4.2506,-4.1677,-4.0967,-4.1405,-4.1323,-4.0754,-4.2754,-4.3768,-4.3454,-4.3768,-4.3726,-4.3321,-4.075,0.0,0.0,0.0,0.0,0.0,0.0,0.0,0.0,0.0,-4.6476,-4.4472,0.0,-4.715,0.0,-4.9921,-5.1138,-5.1665,-5.1289,0.0,0.0,-5.365,-5.3833,-5.6132,-5.5659,-5.5374,-5.5787,-5.5468,-5.4772,-5.3812,-5.3848,-5.3252,-5.1447,-5.1167,-5.0727,-4.9492,-4.912,-4.9018,-4.9001,-4.912,-4.9052,-4.8555,-4.78,-4.7268,-4.6836,-4.6769,-4.6995,-4.767,-4.7743,-4.8,-4.8837,-4.9028,-4.9062,-4.9319,-4.9743,-5.0081,-4.9802,-5.0151,-5.0344,-4.9591,-4.9065,-4.8516,-4.4138,-4.457,-4.457,-4.4823,-4.5246,-4.5568,-4.594,-4.6346,-4.6641,-4.6414,-4.5669,-4.5343,-4.4987,-4.457,-4.457,-4.457,-4.457,-4.457,-4.457,-4.457,-4.457,-4.457,-4.457,-4.457,-4.457,-4.457,-4.457,-4.457,-4.457,-4.457,-4.457,-4.457,-4.457,-4.457,-4.457,-4.457,-4.457,-4.457,-4.457,-4.4198,-4.3453,-4.3284,-4.262,-4.1306,-4.2379,-4.255,-4.1539,-4.3828,-4.4795,-4.4147,-4.4671,-4.4882,-4.4507,-4.256,-4.1851,0.0,0.0,0.0,0.0,0.0,0.0,0.0,0.0,0.0,0.0,0.0,-4.8875,0.0,-5.2123,-5.3206,-5.3555,-5.3588,-5.4419,-5.6428,-5.5925,-5.6116,-5.7804,-5.7277,-5.6891,-5.7346,-5.6397,-5.5508,-5.4975,-5.4367,-5.3548,-5.2243,-5.1815,-5.1242,-5.0172,-4.9681,-4.9342,-4.9017,-4.889,-4.8614,-4.7868,-4.7427,-4.7013,-4.6685,-4.6615,-4.6862,-4.7509,-4.7683,-4.7959,-4.8923,-4.9156,-4.9269,-4.9603,-4.9973,-5.0297,-5.0351,-5.0638,-5.054,-4.9611,-4.9017,-4.8425,-4.457,-4.457,-4.457,-4.457,-4.4621,-4.528,-4.5551,-4.5602,-4.6242,-4.6174,-4.5517,-4.4857,-4.457,-4.457,-4.457,-4.457,-4.457,-4.457,-4.457,-4.457,-4.457,-4.457,-4.457,-4.457,-4.4626,-4.472,-4.472,-4.4776,-4.4814,-4.4814,-4.4814,-4.4814,-4.4797,-4.4814,-4.4814,-4.4814,-4.4831,-4.472,-4.4831,-4.449,-4.381,-4.4371,-4.3731,-4.1903,-4.3506,-4.3872,-4.2702,-4.504,-4.5804,-4.4609,-4.5666,-4.6006,-4.5283,-4.4415,-4.4157,0.0,-4.403,0.0,0.0,0.0,0.0,0.0,0.0,0.0,0.0,-5.0086,-5.0894,-5.2179,-5.3665,-5.4876,-5.5684,-5.629,-5.7005,-5.7886,-5.7978,-5.7978,-5.7978,-5.7978,-5.7978,-5.7978,-5.6739,-5.6067,-5.6383,-5.472,-5.3437,-5.3213,-5.2677,-5.2072,-5.1327,-5.0592,-4.9886,-4.9159,-4.8809,-4.831,-4.7586,-4.7431,-4.7166,-4.6578,-4.6394,-4.6678,-4.7417,-4.7571,-4.7992,-4.9118,-4.9422,-4.9669,-5.0373,-5.0468,-5.0597,-5.0556,-5.0574,-5.0247,-4.9295,-4.8892,-4.8403,-4.457,-4.457,-4.457,-4.457,-4.4587,-4.4739,-4.479,-4.479,-4.4981,-4.4948,-4.479,-4.4637,-4.457,-4.457,-4.457,-4.457,-4.457,-4.457,-4.457,-4.457,-4.457,-4.457,-4.457,-4.457,-4.4869,-4.532,-4.532,-4.5614,-4.6063,-4.6063,-4.6063,-4.6063,-4.6063,-4.6063,-4.6063,0.0,0.0,0.0,-4.5833,-4.5975,-4.5817,-4.598,-4.554,-4.4577,-4.5356,0.0,-4.4671,-4.6085,-4.6813,-4.659,-4.6775,0.0,0.0,0.0,0.0,0.0,0.0,0.0,0.0,0.0,0.0,0.0,-5.0563,-5.0233,-5.06,-5.2931,-5.4308,-5.4014,-5.4821,-5.5702,-5.6473,-5.6124,-5.64,-5.7795,-5.7978,-5.7978,-5.7978,-5.796,-5.7978,-5.7978,-5.7171,-5.6374,-5.5805,-5.4856,-5.39,-5.3259,-5.3069,-5.2696,-5.1912,-5.1231,-5.0611,-4.9818,-4.8639,-4.7597,-4.6754,-4.6696,-4.6773,-4.643,-4.6365,-4.6671,-4.7321,-4.7445,-4.7637,-4.8506,-4.8571,-4.8626,-4.8799,-4.9315,-4.9811,-4.9811,-4.9829,-4.9753,-4.9515,-4.9387,-4.912,-4.457,0.0,-4.457,-4.457,0.0,-4.457,-4.457,-4.457,-4.457,-4.457,-4.457,-4.457,-4.457,-4.457,-4.457,-4.457,-4.457,-4.457,-4.4776,-4.5035,-4.5052,-4.5178,-4.5511,-4.5511,-4.563,-4.5915,-4.5965,-4.6112,-4.6383,-4.6365,-4.6365,-4.6365,-4.6365,-4.6365,-4.643,-4.671,-4.6571,-4.5965,-4.624,-4.6365,-4.6413,-4.671,-4.6381,-4.5407,0.0,0.0,0.0,0.0,0.0,0.0,0.0,0.0,0.0,0.0,0.0,-4.6452,-4.6489,-4.6856,-4.7664,-4.8838,-5.0068,-5.1298,-5.2123,-5.2234,-5.1444,-5.361,-5.484,-5.4473,-5.5133,-5.5757,-5.6143,-5.6198,-5.651,-5.7299,-5.7409,-5.7409,-5.7373,-5.7042,-5.6822,-5.673,-5.6124,-5.5445,-5.5042,-5.3922,-5.3115,-5.2656,-5.227,-5.1903,-5.1472,-5.1185,-5.0628,-4.9436,-4.8293,-4.7501,-4.7389,-4.7324,-4.7324,-4.7324,-4.7324,-4.747,-4.7797,-4.7838,-4.7937,-4.8267,-4.8324,-4.8324,-4.8343,-4.8673,-4.8948,-4.8948,-4.8967,-4.8948,-4.8948,-4.8948,-4.8857,-4.457,-4.457,-4.457,-4.457,-4.457,-4.457,-4.457,-4.457,0.0,0.0,0.0,-4.457,-4.457,-4.4587,-4.4737,-4.4759,-4.4759,-4.4852,-4.5178,-4.5648,-4.5648,-4.5915,-4.6383,-4.6365,-4.6448,-4.656,-4.6589,-4.6618,-4.6756,-4.6756,-4.6756,-4.6756,-4.6756,-4.6738,-4.6756,-4.7281,-4.7281,-4.6756,-4.6738,-4.6756,-4.6756,-4.7281,-4.7017,-4.5838,-4.7434,-4.7764,-4.669,-4.7727,-4.7994,-4.737,-4.7296,-4.7333,-4.7277,-4.7333,-4.7609,-4.8233,-4.8324,-4.8379,-4.8545,-4.9811,-5.071,-5.0986,-5.2821,-5.3537,-5.2472,-5.3775,-5.462,-5.4601,-5.5078,-5.5427,-5.5574,-5.6033,-5.6455,-5.6565,-5.6583,-5.6583,-5.6565,-5.6014,-5.5666,-5.55,-5.4968,-5.4344,-5.4179,-5.2949,-5.1922,-5.1738,-5.1298,-5.071,-5.0633,-5.0611,-5.019,-4.9068,-4.82,-4.7733,-4.8132,-4.8229,-4.8324,-4.821,-4.8229,-4.8324,-4.8324,-4.8324,-4.8324,-4.8324,-4.8324,-4.8324,-4.8324,-4.8361,-4.8324,-4.8324,-4.8324,-4.8324,-4.8324,-4.8324,-4.8343,-4.457,-4.457,-4.457,-4.457,-4.457,-4.457,-4.457,-4.457,-4.457,-4.457,-4.457,-4.457,-4.457,-4.4626,-4.5125,-4.5372,-4.5407,-4.5933,-4.6192,0.0,-4.6288,-4.6336,-4.6365,-4.6365,-4.6707,-4.7214,-4.7284,-4.7512,-4.7977,-4.8017,-4.8017,-4.8035,-4.8017,-4.8035,-4.8035,-4.8114,-4.8114,-4.8035,-4.8017,-4.8017,-4.8035,-4.8132,-4.8078,-4.791,-4.8137,-4.8231,-4.8064,-4.8212,-4.8251,-4.8141,-4.8141,-4.8141,-4.8141,-4.8122,-4.8177,-4.8306,-4.8324,-4.8636,-4.9334,-4.9627,-5.0343,-5.1665,-5.2142,-5.2784,-5.3977,-5.4895,-5.5427,-5.539,-5.4876,-5.4858,-5.5445,-5.5097,-5.5097,-5.5666,-5.5757,-5.5776,-5.5757,-5.5611,-5.5482,-5.5445,-5.4895,-5.4087,-5.3408,-5.2546,-5.1665,-5.1132,-5.0692,-5.0508,-4.9921,-4.979,-4.9731,-4.938,-4.8703,-4.8265,-4.8267,-4.8324,-4.8324,-4.8324,-4.8324,-4.8324,-4.8324,-4.8324,-4.8324,-4.8324,-4.8324,-4.8324,-4.8324,-4.8324,-4.8324,-4.8324,-4.8324,-4.8324,-4.8324,-4.8324,-4.8324,-4.457,-4.457,-4.457,-4.457,-4.457,-4.457,-4.457,-4.466,-4.4953,-4.4919,-4.4587,-4.457,-4.457,-4.4682,-4.5232,-4.5511,-4.5511,-4.6112,-4.6571,-4.691,-4.6937,-4.7132,-4.7428,-4.7452,-4.7609,-4.7866,-4.7875,-4.8035,-4.8267,-4.8324,-4.8324,-4.8324,-4.8324,-4.8324,-4.8324,-4.8324,-4.8324,-4.8324,-4.8324,-4.8324,-4.8324,-4.8324,-4.8324,-4.8324,-4.8324,-4.8324,-4.8324,-4.8324,-4.8324,-4.8324,-4.8324,-4.8324,-4.8324,-4.8324,-4.8324,-4.8324,-4.8324,-4.8489,-4.8857,-4.9315,-5.0068,-5.1261,-5.1756,-5.227,-5.3023,-5.383,-5.4308,-5.4289,-5.3959,-5.3885,-5.4271,-5.4363,-5.4546,-5.4895,-5.495,-5.4932,-5.4876,-5.4528,-5.4308,-5.4271,-5.3995,-5.3445,-5.2637,-5.1848,-5.1059,-5.0288,-4.9793,-4.9315,-4.8967,-4.8893,-4.8893,-4.8857,-4.8545,-4.8361,-4.8324,-4.8324,-4.8324,-4.8324,-4.8324,-4.8324,-4.8324,-4.8324,-4.8324,-4.8324,-4.8324,-4.8324,-4.8324,-4.8324,-4.8324,-4.8324,-4.8324,-4.8324,-4.8324,-4.8324,-4.8324,-4.457,-4.457,-4.457,-4.457,-4.457,-4.457,-4.457,-4.4677,-4.523,-4.5273,-4.4865,-4.4937,-4.5029,-4.5106,-4.5648,-4.5933,-4.6032,-4.6571,-4.7088,-4.7572,-4.7614,-4.7856,-4.8267,-4.8324,-4.8324,-4.8324,-4.8324,-4.8324,-4.8324,-4.8324,-4.8324,-4.8324,-4.8324,-4.8324,-4.8324,-4.8324,-4.8324,-4.8324,-4.8324,-4.8324,-4.8324,-4.8324,-4.8324,-4.8324,-4.8324,-4.8324,-4.8324,-4.8324,-4.8324,-4.8324,-4.8324,-4.8324,-4.8324,-4.8324,-4.8324,-4.8324,-4.8324,-4.8324,-4.8361,-4.8912,-4.9664,-5.0472,-5.1096,-5.1518,-5.1756,-5.2307,-5.2839,-5.3133,-5.3261,-5.3243,-5.3353,-5.3757,-5.4142,-5.4142,-5.4142,-5.4142,-5.4069,-5.3573,-5.3206,-5.3206,-5.3206,-5.2858,-5.1903,-5.1187,-5.0435,-4.9444,-4.8691,-4.8343,-4.8324,-4.8324,-4.8324,-4.8324,-4.8324,-4.8324,-4.8324,-4.8324,-4.8324,-4.8324,-4.8324,-4.8324,-4.8324,-4.8324,-4.8324,-4.8324,-4.8324,-4.8324,-4.8324,-4.8324,-4.8324,-4.8324,-4.8324,-4.8251,-4.8012,-4.7755,-4.7957,-4.457,-4.457,-4.457,-4.457,-4.457,-4.457,-4.457,-4.4694,-4.523,-4.5497,-4.5459,-4.5977,-4.621,-4.6305,-4.691,-4.715,-4.7194,-4.7856,-4.8114,-4.8172,-4.8229,-4.8267,-4.8306,-4.8324,-4.8324,-4.8324,-4.8324,-4.8324,-4.8324,-4.8324,-4.8324,-4.8324,-4.8324,-4.8324,-4.8324,-4.8324,-4.8324,-4.8324,-4.8324,-4.8324,-4.8324,-4.8324,-4.8324,-4.8324,-4.8306,-4.8324,-4.8269,-4.8324,-4.8306,-4.8324,-4.8324,-4.8324,-4.8324,-4.8324,-4.8324,-4.8324,-4.8324,-4.8324,-4.8324,-4.8379,-4.882,-4.9572,-4.9811,-5.0178,-5.082,-5.1004,-5.1683,-5.2747,-5.3151,-5.3151,-5.3206,-5.3316,-5.3408,-5.3427,-5.339,-5.3316,-5.3353,-5.3261,-5.3206,-5.3206,-5.3115,-5.2656,-5.1316,-5.082,-5.0123,-4.8746,-4.8453,-4.8324,-4.8324,-4.8324,-4.8324,-4.8324,-4.8324,-4.8324,-4.8324,-4.8324,-4.8324,-4.8324,-4.8324,-4.8324,-4.8324,-4.8324,-4.8324,-4.8324,-4.8324,-4.8324,-4.8324,-4.8324,-4.8324,-4.8288,-4.8233,-4.8049,-4.7388,-4.6764,-4.6801,-4.457,-4.457,-4.457,-4.457,-4.457,-4.457,-4.457,-4.4677,-4.523,-4.5679,-4.6112,-4.6686,-4.6793,-4.6478,-4.7106,-4.7385,-4.7428,-4.8035,-4.8324,-4.8324,-4.8324,-4.8324,-4.8324,-4.8324,-4.8324,-4.8324,-4.8324,-4.8324,-4.8324,-4.8324,-4.8324,-4.8324,-4.8324,-4.8324,-4.8324,-4.8324,-4.8324,-4.8324,-4.8324,-4.8324,-4.8324,-4.8324,-4.8067,-4.7664,-4.7609,-4.7609,-4.7609,-4.7609,-4.781,-4.8269,-4.8324,-4.8324,-4.8324,-4.8324,-4.8324,-4.8324,-4.8324,-4.8324,-4.8324,-4.8324,-4.8453,-4.8802,-4.9297,-4.9738,-5.0068,-5.0508,-5.1114,-5.1665,-5.2197,-5.2656,-5.3096,-5.3206,-5.3206,-5.3206,-5.3206,-5.3206,-5.3206,-5.2784,-5.2491,-5.2472,-5.2491,-5.2105,-5.1022,-5.038,-4.9609,-4.8581,-4.8324,-4.8324,-4.8324,-4.8324,-4.8324,-4.8324,-4.8324,-4.8324,-4.8324,-4.8324,-4.8324,-4.8324,-4.8324,-4.8324,-4.8324,-4.8324,-4.8324,-4.8324,-4.8324,-4.8324,-4.8324,-4.8324,-4.8324,-4.8214,-4.7774,-4.737,-4.6562,-4.614,-4.6305,-4.457,-4.457,-4.457,-4.457,-4.457,-4.457,-4.457,-4.471,-4.5422,-4.5995,-4.646,-4.7298,-4.7393,-4.7052,-4.7428,-4.7656,-4.7715,-4.8114,-4.8324,-4.8324,-4.8324,-4.8324,-4.8324,-4.8324,-4.8324,-4.8324,-4.8324,-4.8324,-4.8324,-4.8324,-4.8324,-4.8324,-4.8324,-4.8324,-4.8324,-4.8324,-4.8324,-4.8324,-4.8324,-4.8324,-4.8324,-4.8324,-4.7939,-4.7205,-4.7075,-4.7021,-4.6801,-4.7003,-4.7388,-4.7939,-4.8177,-4.8324,-4.8324,-4.8324,-4.8324,-4.8324,-4.8324,-4.8324,-4.8324,-4.8324,-4.8324,-4.8361,-4.8912,-4.9224,-4.9334,-4.9793,-5.0215,-5.0527,-5.1004,-5.1683,-5.2711,-5.2876,-5.2968,-5.3151,-5.3206,-5.3206,-5.317,-5.2637,-5.227,-5.205,-5.2307,-5.1922,-5.0967,-5.0123,-4.9315,-4.8526,-4.8324,-4.8324,-4.8324,-4.8324,-4.8324,-4.8324,-4.8324,-4.8324,-4.8324,-4.8324,-4.8324,-4.8324,-4.8324,-4.8324,-4.8324,-4.8324,-4.8324,-4.8324,-4.8324,-4.8324,-4.8324,-4.8324,-4.8141,-4.7865,-4.7352,-4.6599,-4.5736,-4.5461,-4.5223,-4.457,-4.457,-4.457,-4.457,-4.457,-4.457,-4.4626,-4.4732,-4.5823,-4.6395,-4.6578,-4.7666,-4.8212,-4.8153,-4.8172,-4.8267,-4.8249,-4.8267,-4.8324,-4.8324,-4.8324,-4.8324,-4.8324,-4.8324,-4.8324,-4.8324,-4.8324,-4.8324,-4.8324,-4.8324,-4.8324,-4.8324,-4.8324,-4.8324,-4.8324,-4.8324,-4.8324,-4.8324,-4.8324,-4.8324,-4.8324,-4.8324,-4.7921,-4.7167,-4.7057,-4.6728,-4.6159,-4.6691,-4.7094,-4.7186,-4.7902,-4.8324,-4.8324,-4.8324,-4.8324,-4.8324,-4.8324,-4.8324,-4.8324,-4.8324,-4.8324,-4.8324,-4.8398,-4.8398,-4.8489,-4.86,-4.8948,-4.9554,-4.9719,-5.038,-5.1793,-5.2142,-5.2472,-5.3115,-5.3206,-5.3206,-5.3206,-5.3041,-5.2747,-5.2289,-5.2527,-5.2252,-5.0986,-5.0086,-4.9315,-4.86,-4.8324,-4.8324,-4.8324,-4.8324,-4.8324,-4.8324,-4.8324,-4.8324,-4.8324,-4.8324,-4.8324,-4.8324,-4.8324,-4.8324,-4.8324,-4.8324,-4.8324,-4.8324,-4.8324,-4.8324,-4.8324,-4.8141,-4.7829,-4.7407,-4.6673,-4.5883,-4.4966,-4.414,-4.4026,-4.457,-4.457,-4.457,-4.457,-4.457,-4.457,-4.4814,-4.5211,-4.5589,-4.6291,-4.7035,-4.7551,-4.7956,-4.8324,-4.8324,-4.8324,-4.8324,-4.8324,-4.8324,-4.8324,-4.8324,-4.8324,-4.8324,-4.8324,-4.8324,-4.8324,-4.8324,-4.8324,-4.8324,-4.8324,-4.8324,-4.8324,-4.8324,-4.8324,-4.8324,-4.8324,-4.8324,-4.8324,-4.8324,-4.8324,-4.8324,-4.8324,-4.7939,-4.7112,-4.6599,-4.6214,-4.5902,-4.6177,-4.6562,-4.7057,-4.7884,-4.8324,-4.8324,-4.8324,-4.8324,-4.8324,-4.8324,-4.8324,-4.8324,-4.8324,-4.8324,-4.8324,-4.8324,-4.8324,-4.8324,-4.8324,-4.8434,-4.8691,-4.8783,-4.9499,-5.0894,-5.1665,-5.2325,-5.3041,-5.3206,-5.3206,-5.3096,-5.2766,-5.2307,-5.2105,-5.227,-5.1958,-5.1169,-5.0545,-4.9829,-4.8618,-4.8324,-4.8324,-4.8324,-4.8324,-4.8324,-4.8324,-4.8324,-4.8324,-4.8324,-4.8324,-4.8324,-4.8324,-4.8324,-4.8324,-4.8324,-4.8324,-4.8324,-4.8324,-4.8324,-4.8324,-4.8324,-4.8288,-4.7865,-4.6875,-4.614,-4.5532,-4.4195,-4.3959,-4.3837,-4.457,-4.457,-4.457,-4.457,-4.457,-4.457,-4.4961,-4.5494,-4.5718,-4.6379,-4.7306,-4.7612,-4.7937,-4.8269,-4.8324,-4.8324,-4.8324,-4.8324,-4.8324,-4.8324,-4.8324,-4.8324,-4.8324,-4.8324,-4.8324,-4.8324,-4.8324,-4.8324,-4.8324,-4.8324,-4.8324,-4.8324,-4.8324,-4.8324,-4.8324,-4.8324,-4.8324,-4.8324,-4.8324,-4.8324,-4.8324,-4.8324,-4.8067,-4.7425,-4.6471,-4.5755,-4.5535,-4.5516,-4.5883,-4.6691,-4.748,-4.8049,-4.8269,-4.8324,-4.8324,-4.8324,-4.8324,-4.8324,-4.8324,-4.8324,-4.8324,-4.8324,-4.8324,-4.8324,-4.8324,-4.8324,-4.8324,-4.8324,-4.8324,-4.8985,-5.0435,-5.1298,-5.2032,-5.2949,-5.3206,-5.3206,-5.3188,-5.2729,-5.2472,-5.238,-5.2179,-5.1775,-5.1279,-5.0967,-5.016,-4.8893,-4.8526,-4.8324,-4.8324,-4.8324,-4.8324,-4.8324,-4.8324,-4.8324,-4.8306,-4.8306,-4.8344,-4.8344,-4.8324,-4.8324,-4.8324,-4.8324,-4.8306,-4.8324,-4.8306,-4.8324,-4.8324,-4.8306,-4.7629,-4.6616,-4.6239,-4.5827,-4.4879,-4.4159,-4.4109,-4.4536,-4.4502,-4.457,-4.4434,-4.4367,-4.435,-4.4858,-4.5407,-4.601,-4.6646,-4.7409,-4.7999,-4.8251,-4.8324,-4.8324,-4.8324,-4.8324,-4.8324,-4.8324,-4.8324,-4.8324,-4.8324,-4.8324,-4.8324,-4.8324,-4.8324,-4.8324,-4.8324,-4.8324,-4.8324,-4.8324,-4.8324,-4.8324,-4.8324,-4.8324,-4.8324,-4.8324,-4.8324,-4.8324,-4.8324,-4.8324,-4.8324,-4.8288,-4.8067,-4.6709,-4.559,-4.4856,-4.48,-4.5186,-4.5938,-4.6746,-4.7498,-4.8196,-4.8324,-4.8324,-4.8324,-4.8324,-4.8324,-4.8324,-4.8324,-4.8324,-4.8324,-4.8324,-4.8324,-4.8324,-4.8324,-4.8306,-4.8382,-4.8437,-4.8987,-5.0425,-5.0961,-5.1599,-5.2894,-5.3206,-5.3206,-5.323,-5.323,-5.3188,-5.3041,-5.2546,-5.2068,-5.183,-5.1389,-5.0622,-4.9837,-4.8987,-4.8548,-4.8642,-4.8569,-4.8344,-4.8402,-4.8513,-4.8623,-4.8458,-4.8326,-4.8364,-4.8364,-4.8344,-4.8324,-4.8324,-4.8324,-4.8402,-4.8439,-4.864,-4.8657,-4.8583,-4.8544,-4.8023,-4.7196,-4.6778,-4.6053,-4.5193,-4.4505,-4.4495,-4.3775,-4.3775,-4.3775,-4.347,-4.3031,-4.2997,-4.3645,-4.4748,-4.5378,-4.6336,-4.7373,-4.8035,-4.8324,-4.8324,-4.8324,-4.8324,-4.8324,-4.8324,-4.8324,-4.8324,-4.8324,-4.8324,-4.8324,-4.8324,-4.8324,-4.8324,-4.8324,-4.8324,-4.8324,-4.8324,-4.8324,-4.8324,-4.8324,-4.8324,-4.8324,-4.8324,-4.8324,-4.8324,-4.8324,-4.8324,-4.8324,-4.8324,-4.8324,-4.8141,-4.6746,-4.5773,-4.5516,-4.5002,-4.5112,-4.5865,-4.6691,-4.748,-4.8141,-4.8324,-4.8324,-4.8324,-4.8324,-4.8324,-4.8324,-4.8324,-4.8324,-4.8324,-4.8324,-4.8324,-4.8324,-4.8324,-4.8421,-4.8621,-4.8728,-4.9296,-5.0501,-5.1297,-5.2027,-5.3088,-5.3206,-5.3359,-5.3565,-5.3624,-5.3484,-5.3212,-5.2968,-5.2619,-5.2183,-5.1706,-5.1427,-5.0806,-4.9898,-4.9362,-4.9709,-4.9108,-4.89,-4.9062,-4.9094,-4.9029,-4.893,-4.8881,-4.8881,-4.8779,-4.864,-4.8586,-4.8532,-4.8495,-4.855,-4.8676,-4.8863,-4.8884,-4.8861,-4.8576,-4.8047,-4.7353,-4.659,-4.5866,-4.5157,-4.4909,-4.4881,-4.2997,-4.2997,-4.2997,-4.2743,-4.2303,-4.2303,-4.3099,-4.4385,-4.5024,-4.6094,-4.7306,-4.8017,-4.8324,-4.8324,-4.8324,-4.8324,-4.8324,-4.8324,-4.8324,-4.8324,-4.8324,-4.8324,-4.8324,-4.8324,-4.8324,-4.8324,-4.8324,-4.8324,-4.8324,-4.8324,-4.8324,-4.8324,-4.8324,-4.8324,-4.8324,-4.8324,-4.8324,-4.8324,-4.8324,-4.8324,-4.8324,-4.8324,-4.8324,-4.8122,-4.704,-4.6416,-4.6287,-4.559,-4.5388,-4.5993,-4.6929,-4.7792,-4.8269,-4.8324,-4.8324,-4.8324,-4.8324,-4.8324,-4.8324,-4.8324,-4.8324,-4.8324,-4.8324,-4.8324,-4.8324,-4.8324,-4.844,-4.864,-4.8795,-4.9314,-5.0346,-5.1073,-5.1959,-5.3107,-5.3514,-5.3758,-5.4013,-5.4048,-5.4015,-5.3777,-5.3701,-5.3403,-5.3088,-5.2568,-5.2233,-5.1641,-5.0719,-4.9908,-5.0172,-4.9602,-4.9518,-4.9445,-4.9386,-4.9356,-4.9445,-4.9445,-4.9445,-4.9265,-4.9094,-4.8996,-4.8949,-4.893,-4.8996,-4.9094,-4.9265,-4.8889,-4.8788,-4.848,-4.8031,-4.7211,-4.6518,-4.6187,-4.5731,-4.5303,-4.5199,-4.2236,-4.2236,-4.2236,-4.2168,-4.2066,-4.2049,-4.274,-4.4078,-4.4932,-4.5922,-4.7122,-4.7941,-4.8324,-4.8324,-4.8324,-4.8324,-4.8324,-4.8324,-4.8324,-4.8324,-4.8324,-4.8324,-4.8324,-4.8324,-4.8324,-4.8324,-4.8324,-4.8324,-4.8324,-4.8324,-4.8324,-4.8324,-4.8324,-4.8324,-4.8324,-4.8324,-4.8324,-4.8324,-4.8324,-4.8324,-4.8324,-4.8324,-4.8324,-4.8269,-4.7498,-4.6965,-4.6874,-4.6342,-4.5975,-4.6177,-4.7443,-4.8214,-4.8306,-4.8324,-4.8324,-4.8324,-4.8324,-4.8324,-4.8306,-4.8402,-4.8402,-4.8383,-4.8458,-4.8364,-4.8495,-4.855,-4.8568,-4.8692,-4.8897,-4.9375,-5.0121,-5.0708,-5.1639,-5.2999,-5.3924,-5.439,-5.4377,-5.4352,-5.4137,-5.4118,-5.4282,-5.4264,-5.3846,-5.3263,-5.2705,-5.2107,-5.1247,-5.05,-5.0194,-4.9976,-4.9618,-4.9645,-4.98,-4.9827,-4.9949,-4.9949,-4.9949,-4.9898,-4.9645,-4.9504,-4.9386,-4.9356,-4.9171,-4.9296,-4.9391,-4.9003,-4.8529,-4.8181,-4.7859,-4.7277,-4.6841,-4.668,-4.6223,-4.563,-4.5419,-4.1491,-4.1491,-4.1491,-4.117,-4.0696,-4.0663,-4.1188,-4.2227,-4.3814,-4.5006,-4.6088,-4.7583,-4.8269,-4.8306,-4.8306,-4.8324,-4.8324,-4.8324,-4.8324,-4.8324,-4.8324,-4.8324,-4.8324,-4.8324,-4.8324,-4.8324,-4.8324,-4.8324,-4.8324,-4.8324,-4.8324,-4.8324,-4.8324,-4.8324,-4.8324,-4.8324,-4.8324,-4.8324,-4.8324,-4.8324,-4.8324,-4.8324,-4.8324,-4.8233,-4.7553,-4.713,-4.7075,-4.6929,-4.6801,-4.6874,-4.7719,-4.8324,-4.8324,-4.8306,-4.8344,-4.8344,-4.8344,-4.8306,-4.8383,-4.8604,-4.8728,-4.8779,-4.8963,-4.919,-4.919,-4.919,-4.9326,-4.9532,-4.9746,-4.9974,-5.0517,-5.1128,-5.2078,-5.3092,-5.4116,-5.4458,-5.3864,-5.3783,-5.3661,-5.2817,-5.2711,-5.2779,-5.2772,-5.2621,-5.2389,-5.2191,-5.1556,-5.0846,-5.0672,-5.0297,-4.9949,-5.0272,-5.0421,-5.0421,-5.0421,-5.0421,-5.0421,-5.0462,-5.0291,-5.0043,-4.9879,-4.9728,-4.9409,-4.9144,-4.9349,-4.9148,-4.8321,-4.77,-4.7376,-4.7067,-4.6532,-4.6052,-4.5936,-4.555,-4.5532,-4.073,-4.073,-4.073,-4.0476,-4.0104,-4.0087,-4.0646,-4.1732,-4.3014,-4.4251,-4.5382,-4.6997,-4.7791,-4.7829,-4.8141,-4.8306,-4.8324,-4.8324,-4.8324,-4.8324,-4.8324,-4.8324,-4.8324,-4.8324,-4.8324,-4.8324,-4.8324,-4.8324,-4.8324,-4.8324,-4.8324,-4.8324,-4.8324,-4.8324,-4.8324,-4.8324,-4.8324,-4.8324,-4.8324,-4.8324,-4.8324,-4.8324,-4.8324,-4.8251,-4.7829,-4.7609,-4.7609,-4.7627,-4.7498,-4.7388,-4.7847,-4.8324,-4.8306,-4.8477,-4.8532,-4.8568,-4.8692,-4.8813,-4.8847,-4.9029,-4.9139,-4.9171,-4.9386,-4.9475,-4.9475,-4.9504,-4.9617,-4.9746,-4.9974,-5.0206,-5.0533,-5.1313,-5.2067,-5.2642,-5.3648,-5.3957,-5.3229,-5.341,-5.3225,-5.2672,-5.2448,-5.2429,-5.2429,-5.2403,-5.2336,-5.2212,-5.1749,-5.1366,-5.1137,-5.0689,-5.0399,-5.0604,-5.0683,-5.0624,-5.0565,-5.0565,-5.0565,-5.0643,-5.0604,-5.0421,-5.0294,-5.0078,-4.9671,-4.9382,-4.9412,-4.9009,-4.7932,-4.7124,-4.6838,-4.6435,-4.5874,-4.5663,-4.5605,-4.5586,-4.5586,-4.0087,-4.0087,-4.0087,-4.0087,-4.0087,-4.0138,-4.0743,-4.1885,-4.2743,-4.3768,-4.4952,-4.6351,-4.6965,-4.704,-4.7517,-4.8031,-4.8141,-4.8067,-4.8233,-4.8269,-4.8324,-4.8324,-4.8324,-4.8324,-4.8324,-4.8324,-4.8324,-4.8324,-4.8324,-4.8324,-4.8324,-4.8324,-4.8324,-4.8324,-4.8324,-4.8324,-4.8324,-4.8324,-4.8324,-4.8324,-4.8324,-4.8324,-4.8324,-4.8306,-4.8269,-4.8177,-4.8196,-4.8254,-4.8052,-4.7334,-4.7996,-4.8384,-4.8477,-4.8813,-4.8911,-4.8978,-4.9202,-4.9386,-4.9475,-4.9475,-4.9561,-4.9589,-4.9617,-4.9617,-4.97,-4.9773,-4.9773,-4.9872,-4.9974,-5.0206,-5.0409,-5.1233,-5.174,-5.1971,-5.2567,-5.297,-5.2972,-5.301,-5.3049,-5.2953,-5.2874,-5.2933,-5.2953,-5.2895,-5.2605,-5.1691,-5.1363,-5.1214,-5.1028,-5.0718,-5.0565,-5.0624,-5.0683,-5.0683,-5.0683,-5.0683,-5.0663,-5.0683,-5.0683,-5.0585,-5.0585,-5.035,-4.997,-4.9625,-4.9086,-4.8182,-4.7009,-4.6471,-4.6278,-4.6067,-4.5682,-4.5605,-4.5586,-4.5586,-4.5586,-4.0087,-4.0087,-4.0087,-4.0087,-4.0087,-4.0138,-4.0502,-4.1296,-4.2492,-4.3451,-4.4325,-4.5572,-4.6139,-4.6195,-4.6471,-4.6746,-4.7407,-4.7517,-4.7682,-4.8306,-4.8324,-4.8324,-4.8324,-4.8324,-4.8324,-4.8324,-4.8324,-4.8324,-4.8324,-4.8324,-4.8324,-4.8324,-4.8324,-4.8324,-4.8324,-4.8324,-4.8324,-4.8324,-4.8324,-4.8324,-4.8324,-4.8324,-4.8324,-4.8324,-4.8324,-4.8324,-4.8364,-4.8604,-4.8704,-4.863,-4.8667,-4.8863,-4.9126,-4.9295,-4.9356,-4.9397,-4.9445,-4.9551,-4.9561,-4.98,-4.9993,-4.9974,-5.0202,-5.0462,-5.0442,-5.038,-5.0399,-5.0442,-5.0544,-5.0544,-5.0602,-5.1334,-5.151,-5.1356,-5.1702,-5.1972,-5.151,-5.1818,-5.1914,-5.1529,-5.1356,-5.126,-5.1318,-5.1414,-5.1241,-5.0991,-5.0952,-5.0875,-5.0798,-5.0702,-5.0683,-5.0683,-5.0683,-5.0683,-5.0683,-5.0683,-5.0683,-5.0683,-5.0683,-5.0683,-5.0683,-5.0491,-5.0048,-4.9298,-4.8432,-4.7432,-4.6451,-4.6009,-4.5855,-4.5682,-4.5586,-4.5586,-4.5586,-4.5586,-4.5586,-4.0087,-4.0087,-4.0087,-4.0087,-4.0121,-4.0368,-4.0797,-4.1418,-4.2412,-4.3176,-4.3832,-4.4871,-4.5346,-4.5388,-4.5755,-4.6361,-4.7076,-4.7535,-4.7902,-4.8269,-4.8324,-4.8324,-4.8324,-4.8324,-4.8324,-4.8324,-4.8324,-4.8324,-4.8324,-4.8324,-4.8324,-4.8324,-4.8324,-4.8324,-4.8324,-4.8324,-4.8324,-4.8324,-4.8324,-4.8324,-4.8324,-4.8324,-4.8324,-4.8324,-4.8324,-4.8324,-4.8344,-4.8495,-4.8692,-4.8897,-4.9094,-4.9265,-4.9522,-4.9673,-4.9792,-4.98,-4.9974,-5.0043,-5.0159,-5.0249,-5.038,-5.0358,-5.0604,-5.0663,-5.0683,-5.0683,-5.0683,-5.0683,-5.0683,-5.0683,-5.0702,-5.0971,-5.101,-5.0914,-5.1068,-5.1125,-5.0875,-5.1087,-5.1221,-5.0798,-5.0798,-5.0779,-5.0702,-5.0683,-5.0702,-5.0837,-5.0837,-5.0779,-5.076,-5.0683,-5.0683,-5.0683,-5.0683,-5.0683,-5.0683,-5.0683,-5.0683,-5.0683,-5.0683,-5.0683,-5.0683,-5.0414,-5.0087,-4.9183,-4.824,-4.7201,-4.6336,-4.5893,-4.5605,-4.5586,-4.5586,-4.5586,-4.5586,-4.5586,-4.5586,-4.0087,-4.0087,-4.0087,-4.0087,-4.0154,-4.0577,-4.115,-4.1821,-4.2339,-4.2897,-4.3521,-4.4262,-4.4522,-4.4654,-4.5131,-4.5993,-4.6948,-4.7884,-4.8269,-4.8306,-4.8324,-4.8324,-4.8324,-4.8324,-4.8324,-4.8324,-4.8324,-4.8324,-4.8324,-4.8324,-4.8324,-4.8324,-4.8324,-4.8324,-4.8324,-4.8324,-4.8324,-4.8324,-4.8324,-4.8324,-4.8324,-4.8324,-4.8324,-4.8324,-4.8324,-4.8364,-4.8458,-4.8568,-4.8728,-4.9075,-4.9475,-4.9645,-4.9773,-4.9949,-5.0183,-5.0183,-5.0442,-5.0525,-5.0544,-5.0624,-5.0663,-5.0683,-5.0683,-5.0683,-5.0683,-5.0683,-5.0683,-5.0683,-5.0683,-5.0683,-5.0683,-5.0779,-5.076,-5.0702,-5.0702,-5.0683,-5.0683,-5.0683,-5.0721,-5.0721,-5.0683,-5.0683,-5.0683,-5.0683,-5.0683,-5.0683,-5.0683,-5.0683,-5.0683,-5.0683,-5.0683,-5.0683,-5.0683,-5.0683,-5.0683,-5.0683,-5.0683,-5.0683,-5.0683,-5.0683,-5.0683,-5.0529,-5.0125,-4.9086,-4.8105,-4.7201,-4.6432,-4.5932,-4.5701,-4.5624,-4.5586,-4.5586,-4.5586,-4.5586,-4.5586,-4.0087,-4.0087,-4.0087,-4.0087,-4.0121,-4.0204,-4.0891,-4.1725,-4.1984,-4.2573,-4.3446,-4.366,-4.3771,-4.3791,-4.3791,-4.4727,-4.625,-4.7553,-4.8324,-4.8324,-4.8324,-4.8324,-4.8324,-4.8324,-4.8324,-4.8324,-4.8324,-4.8324,-4.8324,-4.8324,-4.8324,-4.8324,-4.8324,-4.8324,-4.8324,-4.8324,-4.8324,-4.8324,-4.8324,-4.8324,-4.8324,-4.8344,-4.8402,-4.8402,-4.8458,-4.8532,-4.8847,-4.9126,-4.9475,-4.9898,-5.0272,-5.0421,-5.0399,-5.0483,-5.0544,-5.0565,-5.0624,-5.0683,-5.0683,-5.0683,-5.0683,-5.0683,-5.0683,-5.0683,-5.0683,-5.0683,-5.0683,-5.0683,-5.0683,-5.0683,-5.0683,-5.0683,-5.0683,-5.0683,-5.0683,-5.0683,-5.0683,-5.0683,-5.0683,-5.0683,-5.0683,-5.0683,-5.0683,-5.0683,-5.0683,-5.0683,-5.0683,-5.0683,-5.0683,-5.0683,-5.0683,-5.0683,-5.0683,-5.0683,-5.0683,-5.0683,-5.0683,-5.0683,-5.0683,-5.0683,-5.0683,-5.0683,-5.0164,-4.9413,-4.8567,-4.774,-4.6971,-4.6163,-4.5778,-4.5663,-4.5624,-4.5605,-4.5586,-4.5586,-4.5586,-4.0087,-4.0087,-4.0087,-4.0087,-4.0171,-4.04,-4.0995,-4.1757,-4.2153,-4.2722,-4.3301,-4.3479,-4.3479,-4.3479,-4.3479,-4.4397,-4.5975,-4.7553,-4.8251,-4.8324,-4.8324,-4.8324,-4.8324,-4.8324,-4.8324,-4.8324,-4.8324,-4.8324,-4.8324,-4.8324,-4.8324,-4.8324,-4.8324,-4.8324,-4.8324,-4.8324,-4.8324,-4.8324,-4.8324,-4.8306,-4.8344,-4.8495,-4.8657,-4.8863,-4.8897,-4.9011,-4.9171,-4.9375,-4.9561,-4.98,-5.014,-5.0317,-5.0462,-5.0604,-5.0683,-5.0683,-5.0683,-5.0683,-5.0683,-5.0683,-5.0683,-5.0683,-5.0683,-5.0683,-5.0683,-5.0683,-5.0683,-5.0683,-5.0683,-5.0683,-5.0683,-5.0683,-5.0683,-5.0683,-5.0683,-5.0683,-5.0683,-5.0683,-5.0683,-5.0683,-5.0683,-5.0683,-5.0683,-5.0683,-5.0683,-5.0683,-5.0683,-5.0683,-5.0683,-5.0683,-5.0683,-5.0683,-5.0683,-5.0683,-5.0683,-5.0683,-5.0683,-5.0683,-5.0683,-5.0683,-5.0683,-5.0683,-5.0587,-5.0183,-4.9298,-4.8432,-4.7375,-4.6547,-4.6144,-4.5759,-4.574,-4.572,-4.5624,-4.5586,-4.5586,-3.9952,-4.0087,-4.0087,-4.0154,-4.0336,-4.0703,-4.1313,-4.1991,-4.2461,-4.2977,-4.3461,-4.3479,-4.3479,-4.3534,-4.3846,-4.458,-4.5975,-4.7443,-4.8031,-4.8324,-4.8324,-4.8324,-4.8324,-4.8324,-4.8324,-4.8324,-4.8324,-4.8324,-4.8324,-4.8324,-4.8324,-4.8324,-4.8324,-4.8324,-4.8324,-4.8324,-4.8324,-4.8324,-4.8324,-4.8288,-4.8477,-4.8813,-4.9139,-4.9445,-4.9504,-4.9504,-4.9617,-4.9664,-4.9746,-4.9898,-5.0092,-5.023,-5.0272,-5.0544,-5.0683,-5.0683,-5.0683,-5.0683,-5.0683,-5.0683,-5.0683,-5.0683,-5.0683,-5.0683,-5.0683,-5.0683,-5.0683,-5.0683,-5.0683,-5.0683,-5.0683,-5.0683,-5.0683,-5.0683,-5.0683,-5.0683,-5.0683,-5.0683,-5.0683,-5.0683,-5.0683,-5.0683,-5.0683,-5.0683,-5.0683,-5.0683,-5.0683,-5.0683,-5.0683,-5.0683,-5.0683,-5.0683,-5.0683,-5.0683,-5.0683,-5.0683,-5.0683,-5.0683,-5.0683,-5.0683,-5.0683,-5.0683,-5.0587,-5.0491,-5.0202,-4.9298,-4.8105,-4.7182,-4.6971,-4.6663,-4.6144,-4.5951,-4.6105,-4.5836,-4.5586,-3.9495,-4.007,-4.0121,-4.0368,-4.0763,-4.0886,-4.1578,-4.2516,-4.2665,-4.3021,-4.3479,-4.3479,-4.3479,-4.3626,-4.425,-4.5039,-4.5938,-4.6874,-4.7664,-4.8104,-4.8251,-4.8324,-4.8324,-4.8324,-4.8324,-4.8324,-4.8324,-4.8324,-4.8324,-4.8324,-4.8324,-4.8324,-4.8324,-4.8324,-4.8324,-4.8324,-4.8324,-4.8324,-4.8324,-4.8458,-4.8795,-4.9171,-4.9416,-4.9504,-4.9608,-4.9746,-4.9974,-5.0043,-5.0159,-5.0442,-5.0544,-5.0624,-5.0643,-5.0663,-5.0683,-5.0683,-5.0683,-5.0683,-5.0683,-5.0683,-5.0683,-5.0683,-5.0683,-5.0683,-5.0683,-5.0683,-5.0683,-5.0683,-5.0683,-5.0683,-5.0683,-5.0683,-5.0683,-5.0683,-5.0683,-5.0683,-5.0683,-5.0683,-5.0683,-5.0683,-5.0683,-5.0683,-5.0683,-5.0683,-5.0683,-5.0683,-5.0683,-5.0683,-5.0683,-5.0683,-5.0683,-5.0683,-5.0683,-5.0683,-5.0683,-5.0683,-5.0683,-5.0683,-5.0683,-5.0683,-5.0683,-5.0683,-5.0683,-5.0567,-5.0394,-5.0183,-4.9221,-4.849,-4.8067,-4.7528,-4.699,-4.6797,-4.6778,-4.6336,-4.5778,-3.8176,-3.8952,-4.0107,-4.0397,-4.0394,-4.1076,-4.1895,-4.2591,-4.2705,-4.2985,-4.3393,-4.3479,-4.3479,-4.3644,-4.4342,-4.4856,-4.5461,-4.6471,-4.7241,-4.7719,-4.8012,-4.8288,-4.8324,-4.8324,-4.8324,-4.8324,-4.8324,-4.8324,-4.8324,-4.8324,-4.8324,-4.8324,-4.8324,-4.8324,-4.8324,-4.8324,-4.8324,-4.8324,-4.8344,-4.8513,-4.8897,-4.9295,-4.9617,-4.9827,-5.0043,-5.0249,-5.0358,-5.0462,-5.0523,-5.0683,-5.0683,-5.0683,-5.0683,-5.0683,-5.0683,-5.0683,-5.0683,-5.0683,-5.0683,-5.0683,-5.0683,-5.0683,-5.0683,-5.0683,-5.0683,-5.0683,-5.0683,-5.0683,-5.0683,-5.0683,-5.0683,-5.0683,-5.0683,-5.0683,-5.0683,-5.0683,-5.0683,-5.0683,-5.0683,-5.0683,-5.0683,-5.0683,-5.0683,-5.0683,-5.0683,-5.0683,-5.0683,-5.0683,-5.0683,-5.0683,-5.0683,-5.0683,-5.0683,-5.0683,-5.0683,-5.0683,-5.0683,-5.0683,-5.0683,-5.0683,-5.0683,-5.0683,-5.0683,-5.0683,-5.0587,-5.0317,-5.001,-4.951,-4.8817,-4.8298,-4.7817,-4.7548,-4.7259,-4.6778,-4.624,-3.7085,-3.7729,-3.956,-4.011,-3.9853,-4.1131,-4.206,-4.2574,-4.2824,-4.3123,-4.3393,-4.3479,-4.3479,-4.3589,-4.4085,-4.447,-4.4819,-4.5975,-4.6562,-4.7003,-4.7535,-4.7921,-4.8012,-4.8086,-4.8324,-4.8324,-4.8324,-4.8324,-4.8324,-4.8324,-4.8324,-4.8324,-4.8324,-4.8324,-4.8324,-4.8324,-4.8324,-4.8306,-4.8421,-4.8692,-4.9094,-4.9475,-4.9872,-5.0225,-5.0523,-5.0683,-5.0683,-5.0683,-5.0683,-5.0683,-5.0683,-5.0683,-5.0683,-5.0683,-5.0683,-5.0683,-5.0683,-5.0683,-5.0683,-5.0683,-5.0683,-5.0683,-5.0683,-5.0683,-5.0683,-5.0683,-5.0683,-5.0683,-5.0683,-5.0683,-5.0683,-5.0683,-5.0683,-5.0683,-5.0683,-5.0683,-5.0683,-5.0683,-5.0683,-5.0683,-5.0683,-5.0683,-5.0683,-5.0683,-5.0683,-5.0683,-5.0683,-5.0683,-5.0683,-5.0683,-5.0683,-5.0683,-5.0683,-5.0683,-5.0683,-5.0683,-5.0683,-5.0683,-5.0683,-5.0683,-5.0683,-5.0683,-5.0683,-5.0683,-5.0683,-5.0587,-5.0337,-4.9933,-4.9548,-4.926,-4.8875,-4.8105,-4.7625,-4.7105,-4.6509,-3.6666,-3.6627,-3.8139,-3.9076,-3.9615,-4.0894,-4.1778,-4.2388,-4.3063,-4.3373,-4.3497,-4.3479,-4.3479,-4.3534,-4.3663,-4.4048,-4.4672,-4.4819,-4.5461,-4.6159,-4.6783,-4.7315,-4.7627,-4.8031,-4.8324,-4.8324,-4.8324,-4.8324,-4.8324,-4.8324,-4.8324,-4.8324,-4.8324,-4.8324,-4.8324,-4.8324,-4.8364,-4.8421,-4.864,-4.8996,-4.9386,-4.98,-5.0183,-5.0483,-5.0663,-5.0683,-5.0683,-5.0683,-5.0683,-5.0683,-5.0683,-5.0683,-5.0683,-5.0683,-5.0683,-5.0683,-5.0683,-5.0683,-5.0683,-5.0683,-5.0683,-5.0683,-5.0683,-5.0683,-5.0683,-5.0683,-5.0683,-5.0683,-5.0683,-5.0683,-5.0683,-5.0683,-5.0683,-5.0683,-5.0683,-5.0683,-5.0683,-5.0683,-5.0683,-5.0683,-5.0683,-5.0683,-5.0683,-5.0683,-5.0683,-5.0683,-5.0683,-5.0683,-5.0683,-5.0683,-5.0683,-5.0683,-5.0683,-5.0683,-5.0683,-5.0683,-5.0683,-5.0683,-5.0683,-5.0683,-5.0683,-5.0683,-5.0683,-5.0683,-5.0683,-5.0683,-5.0664,-5.0337,-5.0164,-5.0279,-4.9894,-4.899,-4.7759,-4.6836,-4.6278,-3.65,-3.6527,-3.7694,-3.8574,-3.9372,-4.0653,-4.1622,-4.2271,-4.2635,-4.3057,-4.3479,-4.3479,-4.3479,-4.3479,-4.3497,-4.3626,-4.403,-4.4562,-4.5149,-4.5938,-4.6673,-4.7296,-4.7774,-4.8049,-4.8324,-4.8324,-4.8324,-4.8324,-4.8324,-4.8324,-4.8324,-4.8324,-4.8324,-4.8324,-4.8324,-4.8344,-4.8421,-4.8621,-4.8847,-4.9126,-4.9504,-4.9872,-5.0183,-5.0294,-5.0643,-5.0683,-5.0683,-5.0683,-5.0683,-5.0683,-5.0683,-5.0683,-5.0683,-5.0683,-5.0683,-5.0683,-5.0683,-5.0683,-5.0683,-5.0683,-5.0683,-5.0683,-5.0683,-5.0683,-5.0683,-5.0683,-5.0683,-5.0683,-5.0683,-5.0683,-5.0683,-5.0683,-5.0683,-5.0683,-5.0683,-5.0683,-5.0683,-5.0683,-5.0683,-5.0683,-5.0683,-5.0683,-5.0683,-5.0683,-5.0683,-5.0683,-5.0683,-5.0683,-5.0683,-5.0683,-5.0683,-5.0683,-5.0683,-5.0683,-5.0683,-5.0683,-5.0683,-5.0683,-5.0683,-5.0683,-5.0683,-5.0683,-5.0683,-5.0683,-5.0683,-5.0683,-5.0683,-5.0683,-5.0625,-5.0548,-5.024,-4.9702,-4.8317,-4.6874,-4.6278,-3.6333,-3.6724,-3.7396,-3.8096,-3.8865,-4.0163,-4.1075,-4.1607,-4.2121,-4.2745,-4.3479,-4.3479,-4.3479,-4.3479,-4.3479,-4.3497,-4.3681,-4.4103,-4.4782,-4.5516,-4.6305,-4.7186,-4.7774,-4.8177,-4.8324,-4.8324,-4.8324,-4.8324,-4.8324,-4.8324,-4.8324,-4.8324,-4.8324,-4.8324,-4.8324,-4.8344,-4.8513,-4.8813,-4.893,-4.9202,-4.9645,-4.9949,-5.0225,-5.0294,-5.0604,-5.0683,-5.0683,-5.0683,-5.0683,-5.0683,-5.0683,-5.0683,-5.0683,-5.0683,-5.0683,-5.0683,-5.0683,-5.0683,-5.0683,-5.0683,-5.0683,-5.0683,-5.0683,-5.0683,-5.0683,-5.0683,-5.0683,-5.0683,-5.0683,-5.0683,-5.0683,-5.0683,-5.0683,-5.0683,-5.0683,-5.0683,-5.0683,-5.0683,-5.0683,-5.0683,-5.0683,-5.0683,-5.0683,-5.0683,-5.0683,-5.0683,-5.0683,-5.0683,-5.0683,-5.0683,-5.0683,-5.0683,-5.0683,-5.0683,-5.0683,-5.0683,-5.0683,-5.0683,-5.0683,-5.0683,-5.0683,-5.0683,-5.0683,-5.0683,-5.0683,-5.0683,-5.0683,-5.0683,-5.0683,-5.0683,-5.0202,-4.9644,-4.9086,-4.7721,-4.6817,-3.6249,-3.7152,-3.7248,-3.756,-3.8212,-3.9374,-3.9974,-4.0414,-4.1699,-4.2745,-4.3442,-4.3479,-4.3479,-4.3479,-4.3479,-4.3479,-4.3534,-4.3699,-4.4232,-4.5131,-4.603,-4.6581,-4.7315,-4.7939,-4.8324,-4.8324,-4.8324,-4.8324,-4.8324,-4.8324,-4.8324,-4.8344,-4.8382,-4.8382,-4.8306,-4.8306,-4.8495,-4.8863,-4.8911,-4.9426,-4.993,-5.0159,-5.0358,-5.0544,-5.0663,-5.0683,-5.0683,-5.0683,-5.0683,-5.0683,-5.0683,-5.0683,-5.0683,-5.0683,-5.0683,-5.0683,-5.0683,-5.0683,-5.0683,-5.0683,-5.0683,-5.0683,-5.0683,-5.0683,-5.0683,-5.0683,-5.0683,-5.0683,-5.0683,-5.0683,-5.0683,-5.0683,-5.0683,-5.0683,-5.0683,-5.0683,-5.0683,-5.0683,-5.0683,-5.0683,-5.0683,-5.0683,-5.0683,-5.0683,-5.0683,-5.0683,-5.0683,-5.0683,-5.0683,-5.0683,-5.0683,-5.0683,-5.0683,-5.0683,-5.0683,-5.0683,-5.0683,-5.0683,-5.0683,-5.0683,-5.0683,-5.0683,-5.0683,-5.0683,-5.0683,-5.0683,-5.0683,-5.0683,-5.0683,-5.0606,-4.9933,-4.9394,-4.9029,-4.8548,-4.7548,-3.6865,-3.7266,-3.7895,-3.8285,-3.8501,-3.8884,-3.9386,-4.012,-4.1552,-4.2745,-4.3369,-4.3479,-4.3479,-4.3479,-4.3479,-4.3497,-4.3552,-4.4213,-4.4745,-4.5498,-4.6232,-4.715,-4.7792,-4.8086,-4.8324,-4.8324,-4.8324,-4.8324,-4.8324,-4.8324,-4.8324,-4.8344,-4.8458,-4.855,-4.8458,-4.855,-4.8915,-4.9295,-4.9561,-4.9974,-5.0421,-5.0483,-5.0544,-5.0683,-5.0683,-5.0683,-5.0683,-5.0683,-5.0683,-5.0683,-5.0683,-5.0683,-5.0683,-5.0683,-5.0683,-5.0683,-5.0683,-5.0683,-5.0683,-5.0683,-5.0683,-5.0683,-5.0683,-5.0683,-5.0683,-5.0683,-5.0683,-5.0683,-5.0683,-5.0683,-5.0683,-5.0683,-5.0683,-5.0683,-5.0683,-5.0683,-5.0683,-5.0683,-5.0683,-5.0683,-5.0683,-5.0683,-5.0683,-5.0683,-5.0683,-5.0683,-5.0683,-5.0683,-5.0683,-5.0683,-5.0683,-5.0683,-5.0683,-5.0683,-5.0683,-5.0683,-5.0683,-5.0683,-5.0683,-5.0683,-5.0683,-5.0683,-5.0683,-5.0683,-5.0683,-5.0683,-5.0683,-5.0683,-5.0683,-5.0452,-4.9971,-4.9625,-4.9433,-4.8894,-4.8048,-3.7152,-3.7506,-3.815,-3.8546,-3.8676,-3.8707,-3.9166,-4.0029,-4.1309,-4.2356,-4.3002,-4.3314,-4.3479,-4.3479,-4.3479,-4.3479,-4.3552,-4.3993,-4.5039,-4.581,-4.6379,-4.7223,-4.7921,-4.8324,-4.8324,-4.8324,-4.8324,-4.8324,-4.8324,-4.8324,-4.8324,-4.8364,-4.8568,-4.8568,-4.864,-4.8949,-4.9295,-4.9645,-4.9949,-5.0225,-5.0544,-5.0663,-5.0683,-5.0683,-5.0683,-5.0683,-5.0683,-5.0683,-5.0683,-5.0683,-5.0683,-5.0683,-5.0683,-5.0683,-5.0683,-5.0683,-5.0683,-5.0683,-5.0683,-5.0683,-5.0683,-5.0683,-5.0683,-5.0683,-5.0683,-5.0683,-5.0683,-5.0683,-5.0683,-5.0683,-5.0683,-5.0683,-5.0683,-5.0683,-5.0683,-5.0683,-5.0683,-5.0683,-5.0683,-5.0683,-5.0683,-5.0683,-5.0683,-5.0683,-5.0683,-5.0683,-5.0683,-5.0683,-5.0683,-5.0683,-5.0683,-5.0683,-5.0683,-5.0683,-5.0683,-5.0683,-5.0683,-5.0683,-5.0683,-5.0683,-5.0683,-5.0683,-5.0683,-5.0683,-5.0683,-5.0683,-5.0683,-5.0683,-5.0683,-5.0606,-5.0337,-5.0048,-4.9856,-4.9375,-4.8779,-3.6985,-3.7825,-3.7946,-3.8249,-3.8676,-3.8707,-3.9166,-3.9918,-4.0735,-4.153,-4.2378,-4.313,-4.3406,-4.3461,-4.3479,-4.3479,-4.3681,-4.3736,-4.4727,-4.5718,-4.6416,-4.7297,-4.7957,-4.8324,-4.8324,-4.8324,-4.8324,-4.8324,-4.8324,-4.8324,-4.8324,-4.8344,-4.8458,-4.8604,-4.8881,-4.9295,-4.9664,-4.9949,-5.0159,-5.0399,-5.0643,-5.0683,-5.0683,-5.0683,-5.0683,-5.0683,-5.0683,-5.0683,-5.0683,-5.0683,-5.0683,-5.0683,-5.0683,-5.0683,-5.0683,-5.0683,-5.0683,-5.0683,-5.0683,-5.0683,-5.0683,-5.0683,-5.0683,-5.0683,-5.0683,-5.0683,-5.0683,-5.0683,-5.0683,-5.0683,-5.0683,-5.0683,-5.0683,-5.0683,-5.0683,-5.0683,-5.0683,-5.0683,-5.0683,-5.0683,-5.0683,-5.0683,-5.0683,-5.0683,-5.0683,-5.0683,-5.0683,-5.0683,-5.0683,-5.0683,-5.0683,-5.0683,-5.0683,-5.0683,-5.0683,-5.0683,-5.0683,-5.0683,-5.0683,-5.0683,-5.0683,-5.0683,-5.0683,-5.0683,-5.0683,-5.0683,-5.0683,-5.0683,-5.0683,-5.0567,-5.0471,-5.0452,-5.026,-5.0356,-4.9952,-3.7129,-3.7928,-3.83,-3.8546,-3.8658,-3.8707,-3.9166,-3.9882,-4.0194,-4.0983,-4.2323,-4.253,-4.3023,-4.3461,-4.3479,-4.3479,-4.392,-4.458,-4.5296,-4.6012,-4.6581,-4.7609,-4.8086,-4.8159,-4.8269,-4.8269,-4.8251,-4.8214,-4.8288,-4.8288,-4.8306,-4.8306,-4.8495,-4.8691,-4.9019,-4.9542,-4.9853,-5.0135,-5.0336,-5.0544,-5.0663,-5.0683,-5.0683,-5.0683,-5.0683,-5.0683,-5.0683,-5.0683,-5.0683,-5.0683,-5.0683,-5.0683,-5.0683,-5.0683,-5.0683,-5.0683,-5.0683,-5.0683,-5.0683,-5.0683,-5.0683,-5.0683,-5.0683,-5.0683,-5.0683,-5.0683,-5.0683,-5.0683,-5.0683,-5.0683,-5.0683,-5.0683,-5.0683,-5.0683,-5.0683,-5.0683,-5.0683,-5.0683,-5.0683,-5.0683,-5.0683,-5.0683,-5.0683,-5.0683,-5.0683,-5.0683,-5.0683,-5.0683,-5.0683,-5.0683,-5.0683,-5.0683,-5.0683,-5.0683,-5.0683,-5.0683,-5.0683,-5.0683,-5.0683,-5.0683,-5.0683,-5.0683,-5.0683,-5.0683,-5.0683,-5.0683,-5.0683,-5.0683,-5.0683,-5.0683,-5.0625,-5.0664,-5.0683,-5.0683,-5.0683,-3.6624,-3.7321,-3.7942,-3.8395,-3.867,-3.8707,-3.9001,-3.9423,-3.9735,-4.0634,-4.1809,-4.2184,-4.2768,-4.3406,-4.3479,-4.3497,-4.3589,-4.4176,-4.4874,-4.5553,-4.6562,-4.6801,-4.7168,-4.7407,-4.7239,-4.7423,-4.7681,-4.7717,-4.7882,-4.8177,-4.8251,-4.7829,-4.8327,-4.8484,-4.866,-4.9081,-4.9728,-5.0092,-5.0421,-5.0624,-5.0683,-5.0683,-5.0683,-5.0683,-5.0683,-5.0683,-5.0683,-5.0683,-5.0683,-5.0683,-5.0683,-5.0683,-5.0683,-5.0683,-5.0683,-5.0683,-5.0683,-5.0683,-5.0683,-5.0683,-5.0683,-5.0683,-5.0683,-5.0683,-5.0683,-5.0683,-5.0683,-5.0683,-5.0683,-5.0683,-5.0683,-5.0683,-5.0683,-5.0683,-5.0683,-5.0683,-5.0683,-5.0683,-5.0683,-5.0683,-5.0683,-5.0683,-5.0683,-5.0683,-5.0683,-5.0683,-5.0683,-5.0683,-5.0683,-5.0683,-5.0683,-5.0683,-5.0683,-5.0683,-5.0683,-5.0683,-5.0683,-5.0683,-5.0683,-5.0683,-5.0683,-5.0683,-5.0683,-5.0683,-5.0683,-5.0683,-5.0683,-5.0683,-5.0683,-5.0683,-5.0683,-5.0683,-5.0683,-5.0683,-5.0683,-3.5799,-3.6384,-3.7074,-3.7845,-3.8542,-3.856,-3.8615,-3.8762,-3.943,-4.0239,-4.1042,-4.1855,-4.2551,-4.3149,-4.3369,-4.3479,-4.3608,-4.3975,-4.4488,-4.4764,-4.5369,-4.5828,-4.6122,-4.5975,-4.636,-4.6359,-4.6524,-4.7002,-4.7203,-4.7406,-4.7407,-4.7076,-4.7591,-4.7739,-4.7627,-4.8175,-4.8679,-4.9117,-4.9851,-5.0354,-5.0625,-5.0683,-5.0683,-5.0683,-5.0683,-5.0683,-5.0683,-5.0683,-5.0683,-5.0683,-5.0683,-5.0683,-5.0683,-5.0683,-5.0683,-5.0683,-5.0683,-5.0683,-5.0683,-5.0683,-5.0683,-5.0683,-5.0683,-5.0683,-5.0683,-5.0683,-5.0683,-5.0683,-5.0683,-5.0683,-5.0683,-5.0683,-5.0683,-5.0683,-5.0683,-5.0683,-5.0683,-5.0683,-5.0683,-5.0683,-5.0683,-5.0683,-5.0683,-5.0683,-5.0683,-5.0683,-5.0683,-5.0683,-5.0683,-5.0683,-5.0683,-5.0683,-5.0683,-5.0683,-5.0683,-5.0683,-5.0683,-5.0683,-5.0683,-5.0683,-5.0683,-5.0683,-5.0683,-5.0683,-5.0683,-5.0683,-5.0683,-5.0683,-5.0683,-5.0683,-5.0683,-5.0683,-5.0683,-5.0683,-5.0683,-3.5582,-3.6303,-3.6486,-3.7037,-3.7716,-3.7771,-3.8157,-3.8707,-3.8903,-3.9454,-4.0235,-4.1034,-4.1876,-4.2653,-4.3185,-4.3387,-4.3571,-4.3901,-4.4452,-4.48,-4.5076,-4.5168,-4.5736,-4.559,-4.5718,-4.5938,-4.6085,-4.6195,-4.6397,-4.6526,-4.6489,-4.625,-4.6599,-4.6616,-4.6447,-4.7003,-4.7486,-4.789,-4.872,-4.9745,-5.0451,-5.0644,-5.0683,-5.0683,-5.0683,-5.0683,-5.0683,-5.0683,-5.0683,-5.0683,-5.0683,-5.0683,-5.0683,-5.0683,-5.0683,-5.0683,-5.0683,-5.0683,-5.0683,-5.0683,-5.0683,-5.0683,-5.0683,-5.0683,-5.0683,-5.0683,-5.0683,-5.0683,-5.0683,-5.0683,-5.0683,-5.0683,-5.0683,-5.0683,-5.0683,-5.0683,-5.0683,-5.0683,-5.0683,-5.0683,-5.0683,-5.0683,-5.0683,-5.0683,-5.0683,-5.0683,-5.0683,-5.0683,-5.0683,-5.0683,-5.0683,-5.0683,-5.0683,-5.0683,-5.0683,-5.0683,-5.0683,-5.0683,-5.0683,-5.0683,-5.0683,-5.0683,-5.0683,-5.0683,-5.0683,-5.0683,-5.0683,-5.0683,-5.0683,-5.0683,-5.0683,-5.0683,-5.0683,-5.0683,-5.0683,-3.4761,-3.522,-3.5587,-3.6413,-3.7367,-3.7496,-3.7936,-3.8615,-3.8707,-3.8946,-3.9441,-4.0221,-4.1156,-4.2121,-4.2782,-4.324,-4.3461,-4.392,-4.4011,-4.4305,-4.4617,-4.4617,-4.4837,-4.4929,-4.4709,-4.4836,-4.5278,-4.5462,-4.57,-4.5883,-4.5902,-4.5535,-4.5553,-4.5663,-4.5552,-4.587,-4.6271,-4.6594,-4.7448,-4.8555,-4.9825,-5.0276,-5.0644,-5.0683,-5.0683,-5.0683,-5.0683,-5.0683,-5.0683,-5.0683,-5.0683,-5.0683,-5.0683,-5.0683,-5.0683,-5.0683,-5.0683,-5.0683,-5.0683,-5.0683,-5.0683,-5.0683,-5.0683,-5.0683,-5.0683,-5.0683,-5.0683,-5.0683,-5.0683,-5.0683,-5.0683,-5.0683,-5.0683,-5.0683,-5.0683,-5.0683,-5.0683,-5.0683,-5.0683,-5.0683,-5.0683,-5.0683,-5.0683,-5.0683,-5.0683,-5.0683,-5.0683,-5.0683,-5.0683,-5.0683,-5.0683,-5.0683,-5.0683,-5.0683,-5.0683,-5.0683,-5.0683,-5.0683,-5.0683,-5.0683,-5.0683,-5.0683,-5.0683,-5.0683,-5.0683,-5.0683,-5.0683,-5.0683,-5.0683,-5.0683,-5.0683,-5.0683,-5.0683,-5.0644,-5.0471,-3.3844,-3.3917,-3.4578,-3.5807,-3.7202,-3.7331,-3.7845,-3.8615,-3.8707,-3.8707,-3.8836,-3.9467,-4.0662,-4.1566,-4.2323,-4.28,-4.3222,-4.3571,-4.3571,-4.3571,-4.3626,-4.3883,-4.3846,-4.3644,-4.3773,-4.3956,-4.4323,-4.4856,-4.5278,-4.5241,-4.5021,-4.4782,-4.4947,-4.5241,-4.4966,-4.5111,-4.5526,-4.5774,-4.6413,-4.7222,-4.8473,-4.9808,-5.0296,-5.0548,-5.0683,-5.0683,-5.0683,-5.0683,-5.0683,-5.0683,-5.0683,-5.0683,-5.0683,-5.0683,-5.0683,-5.0683,-5.0683,-5.0683,-5.0683,-5.0683,-5.0683,-5.0683,-5.0683,-5.0683,-5.0683,-5.0683,-5.0683,-5.0683,-5.0683,-5.0683,-5.0683,-5.0683,-5.0683,-5.0683,-5.0683,-5.0683,-5.0683,-5.0683,-5.0683,-5.0683,-5.0683,-5.0683,-5.0683,-5.0683,-5.0683,-5.0683,-5.0683,-5.0683,-5.0683,-5.0683,-5.0683,-5.0683,-5.0683,-5.0683,-5.0683,-5.0683,-5.0683,-5.0683,-5.0683,-5.0683,-5.0683,-5.0683,-5.0683,-5.0683,-5.0683,-5.0683,-5.0683,-5.0683,-5.0683,-5.0683,-5.0683,-5.0683,-5.0683,-5.0587,-5.0202,-3.3807,-3.3825,-3.3972,-3.5,-3.6395,-3.6541,-3.7349,-3.856,-3.8707,-3.8707,-3.8744,-3.8836,-3.9496,-4.0432,-4.1809,-4.2543,-4.2892,-4.324,-4.3442,-4.3497,-4.3479,-4.3479,-4.3479,-4.3479,-4.3479,-4.3608,-4.3736,-4.3828,-4.4397,-4.4213,-4.3956,-4.3864,-4.3828,-4.3956,-4.3901,-4.4101,-4.4283,-4.4613,-4.5268,-4.6083,-4.7145,-4.8422,-4.9748,-5.0257,-5.0683,-5.0683,-5.0683,-5.0683,-5.0683,-5.0683,-5.0683,-5.0683,-5.0683,-5.0683,-5.0683,-5.0683,-5.0683,-5.0683,-5.0683,-5.0683,-5.0683,-5.0683,-5.0683,-5.0683,-5.0683,-5.0683,-5.0683,-5.0683,-5.0683,-5.0683,-5.0683,-5.0683,-5.0683,-5.0683,-5.0683,-5.0683,-5.0683,-5.0683,-5.0683,-5.0683,-5.0683,-5.0683,-5.0683,-5.0683,-5.0683,-5.0683,-5.0683,-5.0683,-5.0683,-5.0683,-5.0683,-5.0683,-5.0683,-5.0683,-5.0683,-5.0683,-5.0683,-5.0683,-5.0683,-5.0683,-5.0683,-5.0683,-5.0683,-5.0683,-5.0683,-5.0683,-5.0683,-5.0683,-5.0683,-5.0683,-5.0683,-5.0683,-5.0683,-5.0414,-4.9933]}]]